ECMWFNIL_sfc_temp_000.txt.gz
Temp
46 47 48 49 49 50 50 51 51 52 52 53 53 53 54 55 57 56 57 57 57 57 58 59 60 62 63 64 64 64 64 64 64 65 64 64 65 64 65 67 68 68
45 47 49 49 49 50 50 51 51 50 50 51 52 54 55 55 56 57 57 57 57 57 58 58 59 60 62 62 63 63 63 63 64 66 64 64 65 65 65 67 68 69
45 45 45 46 47 48 49 50 50 50 50 50 51 52 54 56 56 57 57 57 57 57 57 57 58 59 60 61 62 63 63 63 63 64 64 64 65 65 66 66 68 68
46 46 46 46 46 47 49 49 50 50 50 50 51 52 53 54 54 55 56 58 58 57 57 57 57 58 59 61 61 62 62 63 63 64 63 64 65 65 67 67 68 69
47 47 47 46 46 47 48 48 48 49 50 50 51 51 52 52 52 54 55 55 56 57 57 57 57 57 58 59 60 60 61 62 63 63 63 63 64 64 66 66 67 67
46 47 48 47 48 48 48 48 49 49 49 50 50 52 52 52 52 53 54 55 56 57 57 57 57 57 57 58 59 59 60 61 62 63 62 63 64 64 65 65 64 65
46 47 46 48 48 48 48 48 49 49 49 50 51 51 52 51 51 52 53 54 55 56 57 57 57 56 57 57 58 58 59 61 62 63 63 62 63 64 64 63 63 64
46 47 47 48 47 48 47 48 48 49 50 50 49 50 51 51 51 52 52 53 54 55 57 58 58 57 57 57 57 57 58 60 61 62 62 63 62 63 64 64 63 63
46 46 47 47 47 47 47 47 48 48 49 49 49 49 51 51 51 51 52 52 52 53 54 56 58 58 57 56 57 57 58 59 61 62 62 62 62 62 64 64 63 62
46 47 46 46 46 47 47 47 48 48 49 49 49 49 49 50 51 51 51 51 51 53 54 55 57 58 57 57 57 58 58 59 61 62 62 63 63 63 63 63 63 62
46 46 46 46 46 47 47 47 48 48 48 48 48 48 49 49 50 50 50 50 50 51 53 55 57 57 57 57 57 58 58 59 60 62 62 63 64 64 63 63 63 62
46 46 46 46 47 47 47 47 47 47 47 48 48 47 48 49 48 49 49 49 50 51 52 54 57 58 58 57 57 57 58 59 60 61 62 63 63 64 65 64 64 63
45 46 46 46 46 46 47 47 47 47 47 47 47 47 47 47 48 48 49 49 50 51 51 53 55 57 58 57 57 57 58 58 59 60 62 62 63 63 64 64 64 64
45 46 46 47 47 47 47 46 46 46 46 47 47 46 46 47 47 47 48 49 49 50 51 53 54 56 57 58 57 57 57 58 59 59 60 61 62 63 63 63 63 64
46 46 47 47 46 46 46 46 46 46 46 45 46 46 46 47 47 47 47 47 49 50 51 52 53 55 57 57 57 57 57 58 59 60 60 60 61 61 62 61 61 62
45 46 46 46 46 45 45 45 45 45 45 45 45 45 45 46 46 46 47 47 47 49 50 51 52 55 55 52 53 57 57 58 59 59 60 60 59 59 59 59 59 58
45 45 45 45 45 45 45 44 44 44 44 44 44 44 44 45 46 45 46 47 48 48 49 51 52 54 51 48 48 49 55 57 58 59 59 59 58 58 57 55 55 55
45 45 44 44 44 44 44 44 43 43 42 43 43 43 44 44 44 45 46 47 48 49 49 51 52 51 48 47 47 47 50 57 58 58 58 57 56 56 55 53 52 50
45 44 44 43 43 43 43 42 42 41 41 41 41 43 44 43 44 45 45 47 48 49 49 51 52 50 47 47 46 46 46 52 58 57 56 55 54 54 52 51 49 48
44 44 43 42 43 42 42 41 40 40 41 41 42 42 42 43 43 44 45 47 49 49 50 51 52 50 46 47 47 45 45 48 57 55 54 54 54 53 51 51 50 47
43 43 42 42 42 41 41 40 40 40 40 40 40 40 41 42 43 44 46 48 50 51 51 51 52 49 46 46 46 45 45 46 56 55 53 53 54 53 52 51 51 50
42 42 42 41 41 41 40 39 39 39 38 39 40 40 42 43 43 45 46 49 51 51 51 51 53 47 45 46 46 45 45 50 54 54 52 51 50 52 52 51 51 50
43 42 41 41 40 40 39 38 38 38 38 39 38 39 40 41 42 44 47 50 51 52 51 52 51 46 44 45 45 44 45 52 53 54 51 49 48 48 49 50 51 51
42 42 41 40 39 38 37 37 37 37 37 39 38 39 40 41 42 44 47 49 50 50 51 49 47 45 42 43 43 43 47 52 52 51 48 46 44 44 44 46 48 49
42 41 40 39 38 37 37 35 35 36 37 38 39 39 40 41 43 44 46 48 49 49 48 47 46 44 42 42 42 43 47 51 50 49 46 43 43 42 42 43 46 47
41 40 40 39 37 37 36 35 35 35 35 37 39 39 39 41 43 44 43 42 44 45 46 46 45 44 43 41 42 43 46 50 50 47 44 42 43 42 41 41 42 43

ECMWFNIL_sfc_temp_006.txt.gz
Temp
63 63 62 63 63 64 63 62 63 62 62 63 63 64 64 64 64 63 63 63 64 64 65 66 67 68 70 70 70 71 72 71 72 72 70 68 67 66 68 69 67 66
62 61 63 63 63 63 63 62 61 61 61 62 63 63 64 63 63 63 62 62 62 63 64 65 65 67 68 69 70 69 71 71 70 72 71 69 67 68 66 68 69 68
62 61 61 60 61 61 60 61 61 61 62 62 62 62 62 63 62 63 62 62 61 61 62 63 64 66 68 69 69 69 70 70 70 72 71 72 71 69 69 69 70 70
61 61 61 61 61 61 61 61 61 62 62 62 62 63 63 62 62 61 61 61 61 61 61 62 63 64 66 67 68 69 70 70 71 72 71 72 72 71 68 68 69 70
62 62 62 62 61 61 61 60 60 60 61 61 61 62 62 62 62 62 62 63 62 61 60 60 62 63 64 65 67 68 69 69 70 71 71 71 72 72 71 70 68 68
62 63 63 62 61 61 60 60 60 60 60 60 60 62 62 62 63 62 62 61 62 61 60 61 61 63 64 65 65 66 67 68 70 70 70 71 72 72 73 71 70 68
61 61 61 62 61 61 60 60 60 60 60 61 62 61 62 61 61 63 63 62 62 62 62 61 61 61 62 63 64 65 67 68 69 70 70 71 72 71 73 72 72 71
61 62 62 62 61 60 59 60 60 60 61 61 59 60 61 61 62 62 62 61 61 61 62 62 62 63 63 62 63 64 65 67 67 68 69 70 70 72 72 73 72 71
61 61 62 61 60 60 60 60 60 61 63 59 59 60 60 60 60 61 61 62 62 61 61 61 62 63 62 62 61 62 64 65 66 67 67 67 68 70 73 74 72 71
61 61 60 60 59 60 60 60 61 61 62 60 59 59 58 59 60 60 60 60 59 60 61 61 61 61 62 62 62 62 63 64 66 66 67 67 68 70 72 72 72 72
60 61 60 60 59 60 60 60 60 60 61 61 59 58 58 58 58 59 59 59 58 59 60 61 61 62 62 62 62 62 63 63 65 66 67 68 68 69 67 71 72 71
60 60 59 59 59 60 60 60 60 60 60 59 58 57 58 58 57 57 57 58 59 59 60 60 62 62 62 62 63 62 62 62 63 65 66 67 68 69 70 71 71 72
61 60 60 59 59 59 60 60 60 58 58 58 58 57 57 57 57 57 57 57 58 58 58 58 59 60 61 61 61 61 61 62 62 63 65 66 67 68 70 70 71 72
60 60 60 60 60 60 59 59 58 58 58 58 58 57 57 57 57 57 57 57 57 57 58 59 59 59 59 60 61 61 60 60 61 62 64 65 66 67 68 70 70 71
60 60 60 60 60 60 60 59 57 58 58 58 58 58 57 57 57 56 56 56 57 57 58 58 57 57 58 59 59 59 60 59 60 61 62 64 66 67 68 69 70 70
60 60 60 60 59 59 58 58 57 57 57 58 58 57 57 56 56 55 55 54 54 56 56 56 56 57 54 49 49 57 59 60 59 59 61 62 63 65 67 68 69 70
60 60 60 59 59 58 57 57 58 58 58 57 57 56 55 55 55 54 54 54 53 54 54 54 54 55 49 46 45 45 51 55 57 58 60 60 61 63 65 66 68 70
60 60 59 58 58 58 57 58 57 57 56 56 55 54 54 55 53 53 54 54 53 53 53 52 53 50 46 45 44 44 46 52 54 55 57 59 60 62 64 67 68 68
60 59 58 58 57 57 57 57 57 55 55 54 53 53 53 52 52 52 52 53 52 52 52 53 53 49 45 44 44 43 43 46 52 53 54 56 58 60 62 65 67 68
59 59 58 57 56 57 57 56 55 53 53 52 52 52 51 51 51 50 51 51 51 51 51 52 52 49 45 44 44 43 42 43 51 51 52 54 57 58 59 62 65 67
59 59 57 55 56 56 55 55 53 52 51 51 50 49 48 48 49 49 49 49 49 50 49 49 50 46 44 43 43 42 42 43 51 50 50 52 55 57 57 58 63 66
59 58 57 57 56 56 54 53 51 50 48 48 48 48 49 49 48 48 47 47 48 48 47 47 49 44 43 43 42 42 42 47 49 49 49 50 52 55 58 58 60 64
59 57 56 57 57 55 53 51 50 49 48 48 47 47 47 47 46 46 47 47 47 48 48 48 49 47 43 42 42 41 43 49 49 49 49 49 51 54 57 59 59 62
58 58 57 57 57 53 51 50 49 49 49 49 47 46 45 45 46 45 46 46 46 46 46 46 47 47 44 43 42 42 44 48 49 48 49 50 51 53 56 58 60 55
59 58 57 57 55 53 51 48 48 48 49 49 47 46 45 46 45 45 45 45 46 45 45 44 45 46 43 42 42 42 44 48 48 48 48 50 51 52 55 56 60 58
59 57 57 57 54 53 52 49 49 49 48 47 47 46 45 45 44 44 44 44 45 45 45 45 45 46 47 43 43 42 42 47 49 48 48 51 52 53 54 57 59 63

ECMWFNIL_sfc_temp_009.txt.gz
Temp
69 69 68 68 68 69 68 68 68 68 68 68 67 68 68 69 69 68 67 67 67 67 67 67 68 68 69 69 69 71 71 70 72 73 73 72 71 70 68 69 70 70
67 68 69 69 69 69 68 68 67 67 67 67 67 68 68 68 68 67 66 66 66 66 67 67 67 68 68 69 68 68 70 71 70 73 71 71 72 70 69 69 69 69
67 67 67 67 67 67 67 67 66 66 66 67 67 67 67 67 66 67 66 66 65 66 66 66 66 66 66 67 68 68 68 70 70 71 71 72 72 71 70 70 69 69
67 67 66 66 66 66 66 66 66 66 66 66 66 66 67 66 66 66 65 65 64 64 65 65 65 66 66 67 67 68 69 69 71 71 71 72 72 72 72 72 70 69
66 66 67 67 66 66 66 65 65 65 66 65 66 66 65 65 65 65 65 65 65 65 65 65 66 65 66 65 66 66 67 67 69 70 71 71 72 72 72 72 71 70
67 68 68 67 66 65 65 65 65 65 65 64 64 65 65 65 65 65 65 64 65 65 65 65 66 66 66 65 65 65 67 67 68 69 70 70 71 73 74 73 72 71
66 66 66 67 66 65 65 65 65 65 65 65 66 64 65 65 64 65 65 65 65 65 66 65 65 65 66 65 65 64 66 67 68 68 69 70 71 71 73 73 73 73
66 66 66 66 65 65 64 64 65 64 64 65 64 64 65 64 65 64 64 64 64 65 65 66 65 66 66 65 65 64 64 65 65 67 67 69 70 70 71 72 72 72
66 66 66 65 64 64 64 64 64 64 65 64 64 64 66 65 65 64 64 65 64 64 65 65 66 66 65 65 65 65 65 64 64 65 65 66 67 69 71 73 72 72
66 66 65 65 64 64 64 64 64 64 65 64 65 65 64 65 65 65 64 64 63 63 64 64 64 64 65 66 66 66 65 65 66 65 65 66 67 69 71 70 71 71
65 65 64 64 63 64 64 64 64 64 65 65 64 64 64 64 64 65 63 63 61 62 63 63 63 65 64 65 65 66 65 65 65 66 65 65 66 68 67 69 70 70
65 64 64 64 64 64 63 64 64 64 64 64 65 64 63 63 63 63 61 61 61 62 62 63 64 64 64 65 65 66 66 65 65 65 65 66 66 67 68 69 69 70
65 65 64 64 64 64 64 64 64 64 64 64 64 64 63 63 63 62 61 61 61 61 61 61 62 63 63 63 64 65 65 66 66 65 65 65 65 66 67 68 69 70
65 65 65 64 64 64 64 64 64 64 63 64 64 62 62 62 62 61 61 61 60 61 61 61 61 62 62 63 63 63 63 64 64 64 64 65 64 65 65 67 68 69
65 65 65 65 64 64 63 63 63 63 63 63 62 62 61 62 62 61 60 60 61 61 61 61 60 60 61 62 62 63 63 62 63 63 63 63 64 64 65 65 67 68
66 65 64 64 63 63 63 63 63 62 62 62 62 62 62 62 62 61 61 60 59 60 60 59 59 59 57 51 51 60 62 62 62 62 63 61 61 62 63 64 65 67
65 65 65 64 64 63 63 62 62 62 61 61 61 60 59 60 59 59 58 58 58 58 57 57 57 58 51 48 47 45 53 58 58 58 60 60 60 61 61 62 64 66
65 65 64 64 63 63 63 63 62 61 61 61 59 58 58 58 56 56 57 57 57 57 57 56 57 53 48 47 46 45 46 53 56 56 56 57 57 57 59 61 61 63
66 65 64 64 63 63 62 62 61 60 60 59 58 57 56 55 55 55 55 56 56 55 55 56 56 51 47 46 45 45 44 47 54 54 54 55 56 56 57 58 60 61
65 65 64 63 63 62 61 61 60 59 59 58 57 55 54 53 53 52 53 53 54 54 54 55 55 51 47 46 45 43 43 44 53 53 53 53 54 54 55 56 57 59
65 64 63 63 62 61 60 60 59 59 58 57 55 53 51 51 51 51 51 52 52 53 52 52 53 48 45 44 43 42 42 42 50 51 52 52 52 53 54 54 55 56
64 63 62 62 62 61 60 59 59 58 56 55 53 52 52 52 52 52 51 50 51 51 50 50 52 46 44 44 43 43 42 48 50 50 50 50 51 52 53 54 54 55
64 63 62 61 61 60 60 59 58 57 55 54 52 51 50 50 51 51 51 51 51 50 50 50 51 48 44 43 42 42 43 49 49 49 49 49 49 51 52 53 53 54
64 64 62 61 61 60 59 59 59 57 55 53 51 50 50 50 51 51 51 51 50 50 50 48 49 48 44 43 42 42 43 48 48 47 47 48 48 50 51 52 52 50
64 63 62 61 60 59 59 58 57 56 55 53 51 51 50 51 51 50 50 50 50 50 48 47 48 47 44 43 42 42 44 47 47 46 46 47 47 48 50 51 52 51
63 62 61 60 60 59 59 58 57 56 54 52 51 51 50 50 49 49 48 49 50 49 48 48 47 47 47 43 43 42 42 45 46 44 43 44 46 47 48 50 51 52

ECMWFNIL_sfc_temp_012.txt.gz
Temp
66 65 65 64 64 66 65 64 65 65 65 65 64 64 64 65 66 65 64 64 63 63 63 63 63 63 64 64 64 65 65 64 65 65 66 66 66 66 67 67 65 64
65 65 65 65 65 65 65 65 65 64 64 64 64 64 64 64 64 64 63 63 63 63 63 63 63 63 63 63 63 63 64 64 63 66 65 65 66 66 66 66 66 66
65 65 64 64 64 64 64 64 64 64 63 63 64 64 64 64 63 63 62 62 62 62 62 62 62 62 63 62 62 62 62 62 62 64 64 65 65 65 66 66 66 66
65 64 64 64 64 64 64 63 63 62 62 62 62 63 64 64 63 62 62 63 62 61 61 62 61 62 62 62 62 61 62 62 64 64 64 65 65 66 66 66 66 67
64 64 64 64 64 64 63 63 62 62 62 62 63 63 62 61 61 61 61 61 61 61 61 62 62 61 62 61 62 61 61 61 62 63 63 63 64 65 66 66 66 66
65 65 65 65 64 63 62 62 63 62 62 62 61 62 61 62 61 61 61 61 61 61 61 62 62 62 62 62 61 60 60 60 61 62 63 63 64 65 67 67 66 65
64 64 64 64 64 63 62 62 62 62 62 62 62 61 61 61 61 62 62 61 62 61 62 61 61 61 61 61 61 60 61 61 61 62 62 63 63 64 65 67 67 67
64 64 64 64 63 63 62 62 62 61 61 62 60 61 61 61 62 61 61 61 61 61 61 61 61 61 61 61 60 60 60 61 61 61 61 61 62 62 64 65 66 66
64 64 64 63 62 62 62 62 62 62 62 61 61 61 62 61 61 61 62 62 61 61 61 61 61 61 60 60 60 60 60 60 60 61 60 60 60 61 62 64 64 64
64 64 63 62 61 61 61 62 62 62 62 61 62 61 61 61 62 62 62 61 60 60 60 60 60 60 60 60 60 60 60 60 61 61 61 61 61 61 61 62 62 63
63 63 62 62 61 61 61 62 62 62 62 62 61 61 62 61 61 61 60 60 59 60 60 60 60 60 60 60 60 60 60 60 61 61 61 61 61 61 61 61 61 61
63 62 62 62 62 61 61 62 62 62 62 61 62 61 61 61 60 60 60 60 60 60 60 60 60 59 59 59 60 60 60 60 60 60 60 61 61 61 62 62 61 61
63 62 62 62 61 61 61 62 62 61 61 61 62 61 60 60 60 60 60 60 60 60 60 59 59 59 59 59 59 59 59 59 59 59 60 60 61 61 62 62 62 62
63 63 62 62 62 62 62 61 61 61 61 61 61 60 59 60 59 59 59 59 59 59 59 59 59 59 59 59 59 59 58 58 59 58 58 59 60 61 61 61 62 62
63 63 63 62 62 61 61 60 60 60 60 60 59 59 59 59 60 60 59 59 60 59 60 59 58 58 59 59 58 58 58 58 58 58 58 58 59 59 60 61 61 62
64 62 63 62 61 60 60 60 60 60 59 59 59 59 59 59 59 58 58 57 57 57 57 57 57 57 55 50 49 54 55 56 55 55 55 55 55 57 58 59 60 60
63 63 62 61 61 60 59 60 60 59 58 59 58 58 57 57 57 57 55 55 55 55 55 55 55 56 50 46 46 45 49 52 53 53 54 54 54 54 54 56 57 58
63 63 62 61 61 61 61 61 59 59 58 58 57 56 56 56 54 54 54 54 53 54 53 53 54 51 47 46 45 44 45 50 52 52 52 53 53 52 53 54 55 56
64 63 62 61 61 61 60 59 59 58 57 57 56 55 54 54 54 53 52 52 52 51 51 52 52 49 46 46 45 43 43 44 49 51 52 52 52 53 53 53 53 54
63 63 61 60 60 60 59 59 57 56 56 55 55 55 53 52 51 51 51 51 51 51 51 51 51 49 46 45 44 44 43 43 47 48 49 50 51 52 53 53 53 52
63 62 60 60 60 59 58 57 56 55 55 55 54 54 51 50 50 50 51 51 51 51 51 50 51 47 44 44 44 43 43 44 47 48 48 49 49 50 51 51 52 52
62 61 60 60 60 58 58 57 55 55 54 54 53 53 52 50 50 50 50 50 50 50 49 49 51 46 44 44 43 43 42 46 48 48 48 48 49 49 50 50 51 51
62 61 59 59 59 58 57 56 54 54 54 54 52 51 49 50 49 49 50 50 50 50 49 49 50 48 44 43 42 42 42 46 46 47 47 47 47 49 50 50 51 51
62 62 60 59 58 57 56 55 55 54 55 54 52 51 50 49 50 49 50 50 49 49 49 48 48 48 45 44 43 43 43 45 46 45 45 46 46 48 48 49 50 49
62 61 59 58 57 56 55 54 54 53 54 54 52 50 48 49 50 49 49 49 49 48 48 47 47 47 45 43 43 42 44 46 46 45 44 44 45 45 47 47 48 49
61 60 59 58 57 55 54 54 54 54 53 50 50 50 50 50 49 49 47 47 48 48 47 48 47 48 47 43 43 43 42 45 45 44 43 43 44 45 44 46 47 48

ECMWFNIL_sfc_temp_018.txt.gz
Temp
57 56 56 56 55 56 56 55 54 55 55 53 54 52 51 52 52 53 52 52 53 52 53 52 53 53 54 52 53 54 53 53 53 54 55 54 53 53 55 55 55 55
57 57 57 56 56 56 55 56 55 55 55 53 54 52 51 52 53 52 53 52 52 52 52 53 53 54 53 53 52 53 53 53 52 56 54 54 54 53 53 53 54 55
56 55 56 56 56 54 54 55 55 55 54 53 52 52 54 52 51 51 50 51 53 52 52 52 52 52 53 52 52 52 53 53 53 54 54 53 53 54 54 54 55 54
56 56 56 56 55 55 54 55 53 53 52 53 53 53 54 54 51 51 52 56 50 52 51 52 52 52 52 52 52 52 52 52 53 53 53 54 54 54 54 54 54 55
56 55 55 55 55 55 54 55 54 53 53 54 52 52 54 51 50 50 50 51 51 50 50 51 51 50 51 50 50 50 51 51 51 52 52 52 53 54 54 54 53 54
56 56 56 56 55 54 54 53 53 53 52 51 52 53 50 51 50 50 50 50 49 50 50 49 49 50 49 49 49 49 50 51 50 50 51 51 52 53 55 54 53 53
56 55 55 55 54 54 54 53 52 53 52 53 50 51 50 50 50 49 49 49 49 50 50 49 49 48 48 49 49 49 49 49 48 49 49 50 51 52 53 54 54 53
56 55 55 54 54 53 53 52 52 52 51 50 51 50 50 50 49 48 49 49 49 49 48 48 49 48 48 48 48 48 47 50 50 49 48 49 50 50 51 53 53 53
56 55 54 53 53 52 52 52 51 51 51 51 50 49 49 49 50 48 49 48 48 49 47 47 48 47 47 48 48 47 47 47 49 48 48 49 49 50 51 52 51 52
55 55 54 53 53 52 52 51 51 51 51 51 50 49 50 49 49 49 49 48 48 48 47 47 47 47 47 47 48 48 47 48 47 48 48 49 49 50 50 50 50 50
55 54 54 53 53 51 51 51 51 51 51 51 49 49 49 48 49 49 48 48 49 48 47 47 47 47 47 46 46 47 47 48 48 48 48 49 50 50 52 50 50 50
55 53 54 53 53 52 51 51 51 51 50 50 49 49 48 48 48 47 49 47 47 46 47 47 47 47 47 47 47 47 46 46 47 47 48 48 49 49 49 49 49 49
54 54 54 53 52 52 51 51 51 51 51 50 50 49 48 47 47 46 48 46 47 46 46 46 46 47 46 46 46 46 46 46 45 45 46 47 47 48 48 48 48 49
54 53 52 52 52 51 51 51 51 50 50 49 49 48 47 46 45 46 46 46 45 45 46 46 45 46 46 46 46 45 45 44 44 44 45 45 46 47 47 48 48 48
52 52 52 52 52 51 51 50 50 50 49 49 48 47 48 46 45 45 44 43 43 44 44 45 45 46 46 46 44 43 43 43 43 44 44 44 45 45 46 47 47 47
53 52 52 52 51 51 50 50 49 49 48 46 47 46 46 45 44 43 43 43 42 43 43 44 45 45 47 47 46 45 44 44 44 43 43 43 44 44 44 45 46 46
52 52 51 51 51 50 49 49 49 48 47 46 46 45 45 45 44 43 42 42 41 41 43 43 44 45 46 44 43 44 45 44 43 43 43 43 43 43 43 44 45 46
52 51 51 50 50 49 49 49 48 46 46 44 44 44 43 43 43 42 41 40 41 41 42 42 42 46 43 43 43 42 44 44 43 43 43 43 43 43 43 44 44 44
52 52 51 50 50 50 49 48 47 45 44 43 43 43 42 42 40 40 40 40 41 41 40 41 41 44 42 43 42 42 42 42 42 42 42 42 42 43 42 43 43 43
52 52 51 51 50 50 48 46 45 44 42 42 42 41 39 39 38 39 40 40 40 41 40 39 40 43 42 42 42 41 40 40 41 41 41 41 42 42 43 43 43 43
51 51 51 50 49 48 45 44 43 41 41 40 39 39 39 38 38 41 40 40 39 38 38 40 42 43 41 41 41 41 40 41 41 41 41 42 42 42 42 42 43 43
50 50 49 48 46 44 44 42 41 41 41 40 39 38 36 36 38 38 39 37 37 37 36 37 40 41 41 41 41 41 41 41 40 40 40 41 41 41 41 42 42 42
50 50 48 46 44 45 44 44 44 42 40 39 39 37 37 37 39 38 37 36 37 38 36 37 38 41 41 41 40 40 40 40 39 39 39 39 39 40 41 41 42 42
48 48 46 46 46 46 45 43 41 40 39 40 40 37 36 36 35 35 35 36 37 37 37 38 39 41 41 41 41 41 41 40 39 37 37 37 38 39 40 40 41 44
47 47 47 46 45 44 44 42 41 42 41 38 37 36 36 34 36 35 34 33 35 37 43 41 39 41 42 41 41 41 41 40 38 37 36 37 37 37 38 39 39 42
48 47 47 47 45 44 42 42 40 39 37 37 35 36 36 33 35 34 33 35 35 36 38 39 38 39 41 41 41 41 41 40 39 38 37 37 38 38 38 38 39 39

ECMWFNIL_sfc_temp_021.txt.gz
Temp
55 54 54 54 54 54 53 52 51 52 52 50 50 51 49 50 51 50 50 50 50 49 50 50 51 51 52 50 50 51 51 51 51 50 50 50 50 50 51 50 50 51
54 55 56 55 54 54 52 53 53 53 52 51 52 50 48 50 50 50 50 50 50 48 49 49 50 50 50 50 50 50 50 50 50 52 50 50 50 49 50 49 49 50
54 54 54 54 54 53 53 52 53 52 52 52 50 49 51 50 50 49 48 48 49 48 48 48 49 49 50 49 49 49 49 49 49 49 50 49 49 50 50 50 50 50
55 55 55 55 54 54 53 53 51 51 50 51 51 51 52 53 50 48 51 52 47 49 47 49 48 48 49 49 49 49 49 48 49 49 49 49 49 50 50 50 50 51
55 55 55 55 54 54 53 53 52 52 52 52 49 50 53 50 48 48 47 47 48 48 48 47 47 48 49 49 48 48 49 49 49 48 48 48 48 49 49 50 49 49
56 56 56 55 54 53 52 53 53 52 51 50 50 52 50 49 49 48 48 49 47 48 48 47 47 48 47 47 47 47 47 49 49 47 47 47 47 48 50 49 48 48
56 55 55 55 54 53 54 53 52 52 51 52 50 50 50 49 49 48 47 47 47 49 50 48 47 47 47 46 46 47 47 46 47 47 47 47 47 47 48 48 48 48
56 56 55 54 54 53 53 52 51 51 51 50 51 50 50 50 49 48 47 47 47 47 47 47 47 46 46 45 46 46 46 48 48 47 46 47 47 48 49 49 47 47
56 55 54 53 54 53 53 52 51 51 51 52 51 50 49 51 49 48 48 46 47 47 46 46 46 46 45 45 45 45 44 45 46 45 45 46 46 47 48 48 48 48
55 55 54 53 53 53 53 52 51 51 51 52 51 50 50 49 49 48 48 47 47 46 45 46 46 45 45 45 45 45 44 44 44 44 44 44 45 45 46 47 47 47
55 55 54 54 54 53 52 51 51 51 51 52 50 50 50 49 48 46 47 46 48 47 45 44 44 44 44 44 44 44 44 44 44 44 44 44 44 44 48 46 46 46
55 54 54 54 54 52 51 51 51 51 51 51 51 51 48 48 48 47 49 46 46 44 44 44 43 43 43 44 44 44 43 43 43 44 44 43 43 44 44 45 45 45
55 55 55 53 52 51 51 51 51 51 51 50 50 50 49 47 46 46 47 46 44 44 44 45 44 44 43 42 42 42 43 43 42 42 42 42 43 44 44 44 44 45
55 55 54 52 51 51 51 51 51 50 51 50 49 48 48 47 46 47 46 44 44 44 44 44 43 42 41 41 41 42 42 42 41 42 42 42 42 43 43 44 44 44
56 54 53 52 51 51 50 50 50 50 50 49 49 48 48 47 46 46 44 43 42 43 43 43 43 43 42 42 42 41 40 41 41 42 42 42 42 42 43 43 43 44
54 53 52 51 51 50 50 50 50 49 49 48 48 47 46 45 44 44 44 43 42 41 40 42 42 42 46 46 46 43 41 42 42 42 42 41 42 41 42 42 43 43
51 50 51 51 51 51 50 50 49 49 48 47 46 45 45 45 44 43 41 41 41 40 39 41 41 43 45 42 41 43 43 41 41 41 40 40 40 40 40 42 42 42
50 51 51 51 51 51 50 50 49 48 47 46 44 43 44 44 42 40 40 40 40 38 38 40 41 45 41 41 41 41 43 42 41 40 40 40 40 40 40 41 41 41
51 51 50 50 51 51 50 50 49 48 45 44 44 43 42 41 40 41 40 39 39 38 39 40 39 42 41 41 41 41 41 41 40 39 39 39 39 39 40 40 41 41
51 51 50 50 50 49 48 49 48 47 43 42 42 41 40 40 40 40 38 38 37 38 38 38 38 42 41 41 41 41 40 40 40 39 39 39 39 40 40 40 40 40
51 51 50 48 47 47 47 46 44 40 41 41 41 40 40 40 39 38 38 38 37 35 36 37 38 41 40 40 40 40 40 40 39 40 39 39 39 39 40 40 40 40
50 48 48 49 48 45 44 43 43 43 40 40 39 38 38 38 37 39 38 37 36 34 36 35 35 39 39 40 40 40 40 40 39 38 38 38 39 39 39 39 39 39
49 48 46 46 45 45 44 43 42 41 40 41 41 39 38 38 39 38 37 35 36 36 34 33 33 38 40 40 40 40 40 39 38 38 38 37 38 38 39 39 39 39
48 47 45 45 46 45 43 42 42 41 41 42 41 38 37 38 38 37 35 35 35 34 33 34 34 38 40 40 40 40 40 38 38 37 36 36 37 37 37 38 39 43
46 45 45 44 44 43 42 41 41 40 39 38 39 39 38 37 39 36 35 33 33 34 41 38 34 37 40 39 40 40 40 38 37 36 35 35 36 36 38 38 39 42
47 46 45 44 43 42 42 41 40 39 37 38 38 39 38 36 38 36 34 34 34 35 34 34 34 34 38 39 40 40 40 39 38 35 35 36 37 38 38 39 40 40

ECMWFNIL_sfc_temp_024.txt.gz
Temp
53 53 54 53 53 54 53 52 51 52 52 50 52 51 51 52 51 52 52 51 52 52 51 51 52 52 52 51 52 53 53 51 52 51 51 52 51 51 52 52 52 51
53 53 55 54 53 53 52 53 52 53 53 51 52 51 50 50 51 52 52 52 52 51 50 51 52 51 51 51 51 52 51 50 51 53 51 51 51 51 51 51 51 51
53 53 53 53 54 53 52 52 52 52 53 52 51 50 51 51 52 50 52 51 51 50 50 50 50 51 50 50 50 51 51 50 51 50 51 51 50 50 51 51 51 51
53 54 54 54 54 53 52 52 51 51 51 51 51 51 52 53 52 51 51 54 50 50 49 49 50 50 50 50 50 50 50 50 50 50 50 50 51 52 50 51 52 51
54 53 53 54 54 53 52 52 52 51 52 53 51 50 52 52 51 51 51 50 50 49 49 49 48 49 49 49 49 49 51 50 49 49 50 50 50 51 52 52 51 50
54 54 55 54 54 53 52 53 53 52 52 51 51 52 52 52 52 51 51 50 49 49 48 48 48 48 48 48 48 48 48 48 49 48 49 49 49 49 50 50 50 50
55 54 54 54 53 53 53 53 53 53 52 53 51 51 51 51 52 52 51 50 49 51 50 49 48 48 48 47 48 47 47 48 47 48 48 48 49 48 49 50 50 49
55 55 55 54 54 53 54 54 53 52 52 51 52 52 52 52 52 51 51 50 50 49 48 47 47 47 46 47 47 46 47 48 47 47 47 47 47 48 48 49 48 48
55 55 55 54 54 54 53 54 53 52 52 52 52 51 51 53 52 51 50 50 50 48 47 46 47 46 46 46 46 47 47 46 46 46 47 46 46 47 47 48 48 48
55 56 54 54 54 54 54 54 53 51 51 52 52 51 51 51 50 50 49 49 49 48 47 46 46 46 46 46 46 46 45 46 45 45 46 46 47 47 46 47 47 47
55 55 55 54 54 55 54 53 51 51 51 52 51 50 51 50 50 49 49 49 49 48 47 46 46 45 46 46 45 45 45 45 45 45 45 46 46 46 48 48 47 47
55 55 55 55 55 55 54 52 51 51 51 51 52 51 50 50 50 49 50 49 48 47 47 46 46 46 46 46 45 45 44 44 45 46 46 45 46 46 46 46 46 46
55 55 55 55 55 55 53 52 51 51 51 51 51 52 50 49 49 49 49 48 47 46 46 47 46 45 45 44 44 43 44 45 44 44 44 44 45 45 45 45 45 46
54 54 53 53 52 51 51 51 52 52 52 52 51 50 50 50 49 49 48 47 46 47 46 46 45 44 43 43 43 43 45 44 43 44 44 44 44 44 44 45 45 45
54 53 53 52 52 52 50 50 51 51 51 51 51 51 50 50 49 48 47 45 45 45 44 44 44 44 44 43 44 44 43 43 43 43 43 43 43 44 44 44 44 44
53 52 52 52 52 51 51 51 51 50 50 50 50 50 49 48 47 47 47 46 44 43 44 45 44 44 47 43 44 45 43 43 42 43 43 42 42 42 43 43 43 44
51 51 51 52 52 51 50 50 50 50 50 50 49 48 47 47 46 45 44 43 43 44 43 43 42 45 42 41 41 42 43 43 42 42 42 41 41 41 41 42 43 44
51 50 50 50 50 50 50 50 50 49 49 49 47 46 46 46 44 43 42 43 43 42 42 42 43 44 40 42 41 41 42 43 42 41 41 41 41 41 41 42 42 42
50 50 50 49 50 50 49 49 49 49 47 46 47 46 45 44 42 43 43 42 43 42 41 43 43 43 41 41 41 41 40 41 41 41 40 41 40 41 40 41 41 42
49 49 49 49 49 48 48 49 49 49 47 46 45 43 42 41 42 42 42 42 42 42 41 40 41 43 41 41 40 40 39 40 41 40 40 40 40 40 40 41 41 41
48 48 48 47 47 47 47 48 48 46 45 44 43 42 41 41 40 41 41 42 41 40 40 40 40 42 40 40 39 39 39 39 40 39 39 39 39 40 40 40 41 41
48 47 47 46 46 46 47 47 45 45 42 41 41 40 40 40 40 42 41 40 39 38 39 39 36 38 39 39 39 39 39 41 39 38 38 39 39 39 40 40 41 40
48 47 46 45 46 46 46 46 45 43 41 42 41 41 41 41 41 41 41 40 38 38 37 37 35 37 38 39 39 39 39 39 38 38 38 37 38 39 39 40 40 40
47 47 46 46 47 47 46 45 44 43 42 44 43 42 41 41 41 39 38 39 39 37 37 37 35 36 39 39 39 39 40 39 38 37 37 37 37 38 38 39 40 41
46 46 46 46 45 43 43 42 42 42 42 44 43 43 41 40 40 40 37 36 37 36 41 38 35 38 39 38 39 39 40 39 38 37 36 36 37 37 38 39 40 41
45 46 45 45 44 43 42 41 40 40 40 41 40 41 40 39 40 39 39 36 35 37 38 38 36 35 38 38 39 39 39 40 39 36 36 36 37 37 37 39 40 40

ECMWFNIL_sfc_temp_027.txt.gz
Temp
66 66 66 66 67 68 67 66 66 67 67 68 68 68 68 68 67 66 66 66 66 65 65 65 65 64 65 65 65 66 65 63 63 64 63 63 62 61 61 61 61 62
64 65 66 67 67 66 66 66 66 66 66 66 68 68 67 67 66 67 66 66 66 65 65 65 65 65 65 66 65 64 64 63 62 64 63 62 62 62 61 61 61 61
64 64 64 65 65 65 64 65 65 66 67 66 66 66 65 66 65 66 66 66 65 65 64 65 65 65 65 65 65 64 64 63 62 63 63 62 62 62 62 62 61 60
64 64 65 65 66 66 65 64 64 65 65 65 65 65 65 64 65 64 65 65 65 65 64 64 65 65 65 65 64 64 63 63 63 63 62 62 62 62 61 61 61 61
64 64 65 65 66 66 65 64 64 65 64 65 65 64 65 64 64 64 64 64 65 65 64 64 64 64 64 65 65 63 63 63 62 63 63 61 61 61 61 61 60 59
65 66 66 65 65 65 65 65 65 65 65 64 64 65 65 65 65 65 65 64 65 64 64 64 64 64 64 64 64 63 63 63 62 62 62 61 61 61 62 61 60 60
65 64 64 65 65 65 65 65 65 65 65 65 65 64 65 65 65 66 66 65 65 65 65 64 63 63 63 63 63 62 62 62 62 62 61 61 61 60 60 60 60 60
65 65 65 65 64 64 64 65 65 65 65 65 64 64 65 65 67 66 66 66 65 65 65 65 64 64 63 64 63 61 60 60 61 61 61 60 60 60 60 59 58 59
65 65 65 64 64 64 64 65 65 65 65 64 64 64 64 66 66 65 66 66 66 65 65 64 64 64 63 63 63 62 62 60 60 61 60 59 59 59 60 60 58 58
65 66 65 64 64 64 64 65 65 65 65 64 65 65 64 65 66 66 65 65 65 65 65 64 64 63 63 64 63 63 62 61 60 60 60 59 58 59 59 58 58 57
65 65 64 64 64 64 64 65 64 65 64 65 64 64 65 64 64 66 65 65 64 65 65 64 64 64 63 63 62 61 61 60 59 59 58 58 58 57 56 57 57 57
64 64 64 64 64 64 64 64 64 64 64 63 65 64 64 64 64 64 65 66 66 66 65 65 65 64 64 63 61 60 60 59 58 58 58 58 57 57 57 57 56 57
61 61 62 64 64 64 65 65 65 64 63 62 59 59 61 61 63 64 65 66 66 65 65 64 64 63 62 60 60 60 59 58 57 57 56 56 56 57 57 57 57 57
64 62 61 62 64 65 65 64 64 63 62 61 60 57 56 57 59 62 64 65 64 65 64 63 61 61 61 60 60 58 57 56 56 55 55 55 55 56 56 56 56 56
64 65 65 64 64 64 64 64 63 62 61 61 60 58 57 56 57 58 58 60 62 62 61 61 60 59 59 59 58 57 56 55 55 55 54 54 54 55 55 55 55 55
63 63 64 64 64 63 64 63 62 61 61 60 59 58 59 58 57 58 58 56 56 57 57 57 57 55 49 45 49 56 56 55 54 54 54 53 53 53 53 54 54 54
62 62 63 63 64 64 63 61 61 60 60 60 60 60 58 58 58 57 55 55 55 55 55 53 51 50 42 41 41 44 52 54 53 53 53 53 53 52 52 52 53 54
61 61 61 62 62 63 63 62 60 59 57 58 58 57 58 58 56 57 55 54 54 54 53 53 52 44 41 41 41 41 44 53 53 52 52 52 52 52 52 52 52 51
61 61 61 61 62 62 62 60 59 58 58 57 57 58 56 55 55 54 53 54 54 54 53 53 52 42 41 41 41 40 39 46 54 52 51 51 51 51 51 50 50 50
60 60 60 60 61 61 61 60 59 59 58 58 58 56 54 51 49 49 50 52 53 52 52 52 50 42 40 40 40 39 38 43 52 50 50 50 50 50 49 49 49 49
60 60 59 60 60 60 60 60 59 57 56 56 56 54 52 49 48 48 49 49 49 49 49 49 48 40 40 39 39 39 38 42 51 50 50 50 50 49 49 49 49 48
59 59 59 59 59 59 58 59 58 56 55 55 53 51 50 49 48 48 47 47 47 47 46 46 45 38 39 39 39 39 38 50 51 50 50 50 49 49 49 49 49 49
59 58 58 58 58 58 58 58 57 55 53 53 51 50 48 48 47 48 49 47 46 47 48 48 48 41 38 39 39 37 43 52 51 51 50 49 49 49 49 49 48 49
59 59 58 58 58 57 57 58 57 54 52 52 50 48 46 46 46 47 48 48 48 48 49 49 50 44 37 39 38 38 42 50 51 50 49 49 49 49 49 49 49 45
59 58 58 58 57 57 57 54 51 49 48 48 47 46 45 46 47 46 46 46 48 48 47 49 49 45 38 38 38 38 44 51 51 51 49 48 48 48 48 49 50 49
58 57 57 57 57 56 53 50 48 47 45 44 43 43 42 47 47 47 46 45 46 48 47 49 49 50 47 37 39 39 39 48 50 49 48 47 48 47 46 48 49 50

ECMWFNIL_sfc_temp_030.txt.gz
Temp
75 76 75 75 75 76 75 75 75 74 74 75 74 74 74 74 73 73 73 72 72 71 71 71 71 70 71 71 71 72 71 69 69 69 68 68 67 66 66 66 65 67
74 75 76 76 76 76 76 75 75 75 74 74 75 75 75 74 73 73 72 72 72 71 71 71 71 71 71 72 70 70 70 69 68 70 67 67 67 66 65 65 65 66
73 73 73 74 74 74 74 75 75 75 75 75 75 75 74 74 73 73 73 72 72 71 71 71 71 71 71 71 70 70 70 68 68 69 69 68 68 67 66 67 66 65
73 73 73 74 74 74 74 74 74 75 75 74 74 75 75 73 73 73 72 72 72 71 71 71 70 71 72 71 70 70 69 69 69 69 68 68 68 68 67 67 66 66
73 73 74 74 74 75 74 74 74 74 74 74 74 74 74 73 72 73 72 72 72 71 71 70 71 71 71 70 71 69 69 69 68 69 68 67 67 67 67 67 65 65
74 75 75 74 74 74 74 74 74 74 74 74 74 75 74 73 73 73 72 72 72 72 71 71 71 71 71 71 70 69 69 69 68 68 68 67 67 67 68 66 65 65
72 73 73 74 74 74 73 74 74 74 75 75 76 74 74 73 73 74 74 73 73 72 72 71 71 70 71 70 70 69 69 69 68 69 68 68 67 65 66 66 66 66
72 73 73 74 73 73 72 73 74 74 74 75 74 74 75 74 75 74 74 73 74 73 73 73 72 72 71 70 70 68 67 67 67 68 68 67 66 66 65 65 64 64
73 73 73 72 72 72 72 73 73 73 75 73 74 74 75 75 74 74 74 74 74 73 73 73 72 72 70 70 69 68 68 67 67 67 66 65 64 65 67 67 64 64
71 72 72 72 71 72 72 72 73 73 74 73 74 74 74 74 75 75 74 73 73 73 73 72 72 71 70 70 70 69 68 67 67 67 66 66 65 66 67 65 64 63
67 68 69 70 70 72 72 72 72 73 73 73 72 72 73 73 74 75 74 74 72 73 73 72 72 71 70 70 69 69 69 67 67 67 66 66 65 64 62 64 63 63
69 69 68 68 68 69 70 72 72 73 73 73 74 73 72 72 73 73 73 74 74 74 74 73 73 72 72 71 70 69 68 67 67 66 65 65 64 64 64 64 62 63
70 70 68 68 67 68 68 71 72 72 73 73 73 73 71 69 67 68 70 73 73 73 73 73 72 72 71 70 70 69 68 67 65 64 64 64 64 64 64 63 63 63
70 71 70 69 69 68 66 66 67 69 71 72 73 71 70 69 67 67 69 71 72 72 72 73 72 72 72 71 69 68 67 65 65 63 64 63 62 63 63 62 62 63
70 71 71 72 71 70 69 69 69 70 70 70 70 70 70 69 66 68 68 69 70 70 71 71 70 69 70 69 68 67 66 64 64 64 63 62 62 62 62 62 62 62
70 70 71 71 71 71 71 71 70 68 68 68 68 69 70 70 67 66 69 69 69 70 70 69 68 67 55 51 56 66 65 64 62 62 62 61 60 60 61 61 61 62
70 70 70 70 71 71 71 71 71 70 68 67 67 67 67 67 66 66 68 67 69 69 68 64 60 55 44 44 44 49 61 62 62 61 60 60 60 59 59 60 61 63
70 70 70 70 70 71 71 72 71 70 70 69 66 64 64 64 64 65 66 65 66 66 62 59 56 45 42 42 43 44 50 60 60 60 59 60 60 59 59 60 60 59
69 70 70 70 70 70 70 70 70 70 69 68 67 66 65 64 65 65 66 66 65 63 61 57 54 42 41 42 42 42 41 50 62 59 59 59 59 58 58 58 58 58
68 68 68 69 69 69 69 69 69 69 68 68 68 66 63 63 65 65 65 65 63 61 58 56 53 42 41 41 41 40 39 45 60 57 57 58 58 58 57 57 57 57
68 68 67 68 68 68 68 68 68 68 67 67 67 66 63 62 64 63 63 62 60 59 55 52 49 40 41 40 39 40 38 42 57 55 57 57 57 57 57 56 56 56
67 67 66 67 67 67 67 67 67 67 66 67 66 66 66 65 64 64 60 58 56 54 52 49 46 39 39 40 39 40 37 51 55 54 55 56 56 57 57 58 57 56
67 66 66 66 66 66 66 66 66 66 66 66 65 64 63 62 60 58 57 55 52 51 49 47 45 41 39 39 40 37 41 55 56 58 59 57 57 57 57 57 57 56
67 67 66 65 66 65 65 65 66 66 65 65 63 62 59 59 58 55 54 53 51 50 49 47 48 43 39 39 39 38 43 56 59 59 57 57 57 57 57 57 57 49
66 66 65 65 65 65 65 64 64 64 65 62 61 59 56 55 55 53 52 52 52 50 48 49 49 44 39 39 38 39 46 57 58 58 56 56 56 56 57 57 57 53
65 65 64 64 64 65 65 65 63 60 59 58 55 55 53 52 50 50 49 49 50 51 51 52 50 49 45 38 40 38 38 53 57 56 55 55 55 55 54 55 56 56

ECMWFNIL_sfc_temp_033.txt.gz
Temp
77 77 76 76 77 77 76 76 76 75 75 76 76 75 75 75 75 74 74 74 74 73 73 73 73 72 73 73 73 75 74 71 71 71 71 70 69 68 68 68 68 69
76 77 77 77 77 78 77 77 76 76 75 76 77 76 76 75 74 75 74 73 74 73 73 73 73 73 73 74 72 73 72 71 70 72 69 69 69 69 67 67 67 68
76 76 76 76 76 76 77 76 76 76 76 76 77 76 76 76 74 75 74 74 73 73 73 73 73 73 73 73 72 72 72 71 70 71 71 70 70 69 69 69 68 68
76 76 76 77 77 77 77 76 76 76 76 76 76 76 76 75 75 74 74 74 74 73 73 73 72 73 74 73 72 72 72 71 72 71 70 70 70 70 69 69 68 68
76 76 77 77 77 78 77 76 76 76 76 76 76 76 76 75 74 74 74 73 74 73 73 72 72 72 73 72 72 72 71 71 71 71 70 69 70 69 69 69 67 67
76 78 78 77 77 76 76 76 76 76 77 76 75 76 76 75 75 75 74 73 74 74 73 73 72 72 72 72 72 72 71 71 71 70 71 69 70 69 70 69 67 67
75 74 76 77 77 77 75 76 76 77 77 77 77 75 76 75 75 75 76 74 75 74 74 73 72 72 72 72 71 71 71 72 71 71 71 70 70 68 69 69 69 69
74 75 76 77 76 76 75 75 76 76 76 77 76 76 76 76 77 76 76 75 75 76 75 75 74 74 72 72 71 71 70 71 70 70 70 71 69 68 68 69 67 67
71 72 74 74 74 75 74 75 75 76 77 76 76 76 77 76 76 76 76 76 76 75 76 75 75 74 73 72 71 71 71 70 69 70 69 69 67 68 70 69 67 66
68 70 70 71 73 73 72 73 73 72 73 76 77 76 76 76 77 77 76 75 75 75 76 75 75 74 73 73 72 72 71 70 70 69 69 69 68 69 70 69 67 66
65 66 68 67 67 66 66 67 69 69 72 77 76 75 76 76 76 77 76 76 74 75 76 75 75 75 74 73 72 72 72 71 70 70 69 69 69 69 67 68 67 66
67 67 67 68 68 69 68 68 69 65 64 67 75 75 75 75 75 76 76 76 77 76 76 77 77 76 75 74 74 73 71 71 70 70 69 69 69 68 68 67 66 66
65 63 66 69 69 69 70 71 70 70 71 70 72 72 73 74 74 74 74 76 77 76 76 76 76 75 74 74 74 74 72 71 69 69 69 68 68 68 68 67 67 66
73 72 71 69 69 70 70 70 70 70 68 69 71 71 72 74 74 74 72 71 72 74 75 76 75 75 75 74 74 73 72 71 70 68 68 67 67 67 67 66 66 66
72 73 73 73 72 72 71 71 71 71 70 71 72 72 71 72 73 73 66 67 69 65 69 67 71 73 74 73 71 71 71 69 69 68 67 66 65 66 66 65 66 65
74 73 73 73 73 73 74 73 73 72 71 71 69 72 73 73 72 69 63 63 65 68 70 69 67 69 61 59 62 71 70 70 67 67 67 66 65 64 64 64 65 65
73 73 74 73 73 74 74 74 75 74 73 72 72 71 70 70 70 62 62 60 62 66 68 66 63 58 45 47 50 56 68 68 66 65 65 65 64 63 63 64 64 65
73 73 73 73 73 74 74 75 74 74 74 73 71 71 70 70 69 66 65 65 65 67 65 60 57 46 44 45 47 49 56 66 64 64 63 63 63 63 63 63 63 63
73 72 72 72 73 73 73 73 73 73 73 73 72 71 70 69 70 69 68 67 66 67 66 62 57 43 44 45 45 44 45 56 64 62 62 62 62 62 62 62 62 61
72 72 71 72 72 72 72 72 72 72 72 72 72 71 69 69 69 68 67 67 65 65 64 60 57 44 43 43 43 43 42 50 64 60 61 61 61 61 61 60 60 60
71 71 71 71 71 71 71 71 71 71 71 71 71 70 69 68 68 67 67 66 65 63 60 57 52 41 42 42 42 42 41 49 61 59 60 60 60 60 60 60 59 59
71 70 70 70 70 70 70 70 70 70 69 70 70 70 70 70 69 68 66 66 64 58 56 53 49 40 41 42 42 41 41 57 58 57 57 58 59 60 60 61 61 60
71 70 69 69 69 69 69 69 68 69 69 70 69 69 69 68 67 66 66 63 59 57 54 52 50 43 40 40 40 39 46 56 56 57 58 57 58 59 60 61 61 61
71 71 69 69 69 68 68 68 69 69 69 70 68 68 68 68 67 66 64 60 57 56 54 51 50 44 39 40 39 38 44 55 57 57 57 58 58 60 61 61 61 54
70 69 69 68 68 68 68 67 68 68 69 69 68 68 67 64 61 60 57 56 54 52 49 49 49 44 39 39 40 40 46 54 56 58 56 57 58 59 60 61 61 56
69 68 67 67 67 67 67 67 68 68 67 67 66 64 62 61 59 55 52 51 51 51 50 50 49 47 44 38 40 39 38 48 54 55 55 56 57 58 57 58 59 59

ECMWFNIL_sfc_temp_036.txt.gz
Temp
71 71 70 70 70 70 69 69 69 69 69 69 68 68 68 68 69 68 68 68 68 67 68 67 67 67 68 68 66 68 66 65 64 64 64 63 62 62 62 62 61 62
71 71 71 71 71 70 70 70 70 69 69 70 70 69 69 69 68 68 68 68 68 67 68 67 67 67 67 66 67 65 65 65 64 68 63 63 63 62 62 61 62 62
71 71 70 70 69 70 70 70 71 70 69 70 71 70 70 69 68 68 68 67 67 67 67 67 67 67 68 67 66 65 65 65 64 65 65 64 64 62 63 63 62 63
71 71 71 71 71 71 70 70 71 70 70 70 70 70 70 70 68 68 68 69 67 67 66 66 66 67 67 67 66 66 65 65 65 65 64 64 64 63 63 62 62 62
71 71 72 72 72 72 71 70 70 70 70 69 71 71 70 68 68 68 67 67 67 67 66 66 66 66 66 66 66 65 65 65 64 64 63 63 63 63 63 62 62 62
72 73 73 72 72 72 71 71 71 71 70 70 69 70 70 69 68 68 68 67 67 67 67 66 66 66 66 66 65 65 65 66 64 64 64 63 63 63 67 64 62 62
71 71 71 72 72 72 72 71 71 71 71 70 71 69 70 69 69 69 70 69 69 68 68 66 66 65 65 65 64 64 64 64 65 64 65 64 63 62 65 64 62 63
70 70 70 70 71 71 71 71 70 70 70 71 69 70 70 70 71 70 69 70 69 70 69 69 68 67 66 65 64 64 63 66 65 64 63 64 62 63 62 64 62 62
66 65 67 69 69 69 69 70 70 70 71 69 69 70 70 70 71 70 70 71 70 69 70 69 69 68 66 65 64 64 64 64 64 63 62 63 62 62 64 64 61 61
66 67 65 65 65 65 63 63 66 67 66 67 68 68 69 69 70 71 71 70 70 70 70 69 69 68 67 67 67 66 64 64 63 63 63 63 63 63 64 63 61 60
63 63 64 64 62 62 62 62 62 63 63 65 64 65 66 65 67 69 70 71 69 70 71 70 69 70 69 68 67 66 66 65 64 64 63 63 63 63 64 63 61 60
65 65 63 62 61 61 63 64 64 64 64 63 63 63 63 62 62 63 67 70 72 71 71 71 71 71 71 70 69 67 66 65 65 65 65 64 63 63 63 63 61 61
66 65 64 63 62 63 64 64 65 64 64 64 64 64 63 62 63 63 65 62 61 61 64 69 71 71 70 69 70 70 68 66 65 65 65 63 64 63 64 62 62 62
67 66 64 63 62 62 63 65 65 60 60 60 61 62 64 65 66 64 60 61 60 61 62 64 64 65 64 63 68 69 67 66 65 63 63 64 64 63 63 62 61 62
69 68 66 65 64 64 64 64 65 65 63 62 61 62 65 65 63 61 61 61 62 62 63 62 62 60 60 61 62 65 67 66 66 65 63 62 62 63 62 62 61 61
70 69 69 68 68 67 68 67 67 67 67 66 67 67 67 64 61 61 62 62 62 62 62 61 62 62 59 54 52 61 64 66 64 63 63 62 61 61 60 60 60 60
68 69 69 68 68 68 68 68 69 68 67 67 67 67 67 67 65 62 63 62 61 61 61 62 62 63 52 50 51 49 62 62 62 61 62 61 61 60 59 59 60 61
68 69 68 68 69 68 68 68 67 67 67 67 67 66 66 66 65 63 63 62 61 62 61 62 59 50 45 48 51 51 55 62 62 61 60 60 59 59 59 60 60 60
69 68 68 67 67 68 68 68 67 67 66 66 66 66 66 65 65 64 63 63 62 62 62 59 55 43 44 46 47 48 50 57 62 60 59 58 58 58 59 59 58 57
67 67 67 66 67 67 66 66 66 65 65 65 65 65 64 64 64 63 63 63 62 63 59 55 52 43 43 44 44 46 49 54 60 58 58 58 58 58 58 58 57 57
67 67 66 66 66 66 64 64 64 63 64 64 64 64 63 63 63 62 63 63 63 59 53 52 47 41 42 43 44 46 48 51 57 56 57 56 57 57 57 57 57 56
67 66 65 65 65 65 64 64 63 63 63 63 63 63 63 64 64 63 62 62 56 53 51 47 46 40 42 42 43 45 49 56 56 55 55 55 56 57 56 57 57 55
67 66 65 64 65 64 64 63 62 63 62 64 62 62 62 62 62 63 61 55 54 52 49 47 46 42 41 42 42 44 50 54 54 54 54 54 54 56 56 56 57 56
67 67 65 64 64 64 63 63 63 63 62 63 62 61 61 61 61 58 55 55 53 51 50 47 45 42 40 40 40 41 46 52 53 54 53 54 54 55 55 56 57 56
66 66 65 64 64 63 62 62 61 61 62 62 62 62 60 57 57 54 54 52 51 49 49 48 46 43 40 40 39 41 47 52 53 53 52 53 53 53 55 55 56 55
64 64 63 63 63 62 62 62 62 61 61 61 61 60 57 55 54 52 50 49 49 49 48 48 46 45 42 39 40 40 41 50 51 51 51 52 53 53 52 53 53 54

ECMWFNIL_sfc_temp_039.txt.gz
Temp
63 63 63 62 62 62 61 61 60 62 61 61 61 60 61 61 61 60 59 59 59 59 59 58 59 59 61 59 58 61 60 58 57 56 56 56 55 55 58 56 54 55
63 63 64 63 62 63 61 62 61 62 61 61 62 61 61 62 61 60 59 59 59 58 58 59 58 58 58 58 58 59 58 57 58 61 57 56 55 54 54 55 54 54
63 63 63 63 63 62 61 61 62 61 61 62 62 62 62 62 61 60 60 59 59 58 58 58 59 59 58 58 57 59 59 57 57 57 56 56 55 54 55 54 54 54
63 63 63 63 62 63 63 61 60 60 60 61 61 63 63 63 62 61 60 63 59 58 57 58 58 59 58 59 57 58 57 57 57 57 56 56 56 55 55 55 54 54
64 64 62 63 62 63 63 62 61 61 61 61 62 61 62 62 61 61 61 60 59 58 58 58 57 59 58 58 58 56 58 57 57 56 56 55 55 57 56 55 55 53
64 65 64 65 63 64 63 62 62 62 61 60 62 62 62 62 62 61 61 60 59 59 59 58 58 58 57 57 56 55 56 58 56 56 56 55 56 56 60 55 54 53
64 64 64 63 63 63 63 62 62 62 63 63 61 62 62 62 62 62 61 61 61 60 60 59 59 58 57 56 57 56 56 56 56 57 56 55 56 56 58 56 55 55
60 61 61 61 61 61 62 63 62 61 60 61 62 62 62 62 63 62 61 61 62 61 60 61 60 60 58 57 58 56 56 58 58 57 55 56 55 56 55 59 54 53
58 58 60 61 60 60 60 61 60 60 60 60 60 60 60 61 62 62 62 62 61 62 61 61 61 61 60 59 57 58 57 56 58 56 56 54 55 57 57 56 55 54
59 59 59 59 62 60 59 59 59 59 60 61 60 58 60 60 60 61 61 60 61 61 62 61 61 61 61 61 60 59 58 59 56 57 57 54 56 57 57 56 55 54
59 59 59 58 58 57 59 58 57 58 58 60 60 60 60 60 60 59 60 59 59 60 61 61 62 62 61 61 61 61 60 59 58 59 58 57 56 57 58 56 55 55
57 58 59 59 59 59 59 58 58 60 59 58 59 59 59 60 60 58 58 57 57 58 59 60 60 61 60 60 61 61 61 59 59 60 59 59 56 57 56 56 55 55
58 59 58 57 57 57 56 57 57 57 58 59 58 58 59 58 58 58 56 57 58 58 59 60 60 59 57 59 60 60 59 59 59 59 59 59 57 58 56 56 55 54
59 58 57 57 57 56 56 57 58 57 57 57 59 58 57 58 58 58 57 57 58 58 58 59 58 57 57 57 59 60 60 60 60 59 58 58 57 56 56 56 55 55
59 58 57 56 57 57 56 56 58 58 57 57 56 56 58 57 58 57 57 57 57 57 58 57 58 57 57 57 57 59 58 58 59 59 58 58 56 56 56 56 55 55
57 58 58 58 56 56 57 57 58 58 57 56 57 58 57 58 57 57 56 55 56 57 58 58 58 58 57 53 54 58 57 60 59 59 59 58 57 55 55 55 55 54
57 57 56 57 57 57 57 57 58 58 58 58 58 58 58 57 57 56 56 56 57 57 57 58 58 59 52 47 47 50 56 55 57 57 57 57 56 55 54 54 54 55
57 58 57 57 58 58 58 57 56 56 57 57 57 57 57 57 57 57 57 56 57 57 55 56 56 54 49 47 46 46 50 56 56 57 57 56 56 55 55 54 55 55
54 54 54 55 56 56 56 54 54 55 56 56 56 57 55 55 57 57 56 56 56 55 55 54 56 49 42 45 45 47 48 52 57 56 55 54 54 54 54 53 53 53
56 55 54 53 53 54 54 54 54 53 53 53 54 55 55 55 54 56 56 56 56 54 51 49 45 41 43 45 46 46 46 49 53 53 53 54 55 54 53 52 51 52
56 56 56 55 55 54 53 52 53 51 52 51 52 54 54 54 53 53 56 55 52 50 46 43 42 41 41 42 43 44 45 47 50 51 51 51 51 51 51 51 51 52
56 54 52 52 54 54 54 54 52 51 52 51 52 51 50 51 50 51 50 49 49 46 44 41 40 41 41 42 43 44 46 50 50 49 49 49 49 49 50 51 51 50
56 55 54 54 54 55 55 54 53 52 52 51 53 49 48 49 46 47 47 46 44 44 43 41 40 40 41 42 44 45 46 49 48 49 49 49 49 49 51 50 50 50
53 54 54 54 52 54 53 51 51 50 51 52 54 49 46 46 46 46 44 44 44 43 44 42 39 40 42 42 43 44 48 51 51 51 49 48 49 50 50 51 52 53
53 53 53 53 53 52 52 53 51 52 51 48 48 47 46 44 45 44 42 42 42 42 45 42 39 40 41 41 42 44 48 50 50 49 48 49 49 49 50 49 47 45
52 53 52 52 51 50 49 50 50 49 50 47 45 46 44 42 43 42 41 41 41 42 42 41 40 39 39 41 42 43 45 50 49 48 47 46 47 48 47 48 44 41

ECMWFNIL_sfc_temp_045.txt.gz
Temp
59 60 60 59 58 57 55 54 52 52 52 52 53 52 53 53 53 52 52 52 52 52 52 52 52 53 54 52 52 53 52 51 51 50 51 51 50 51 52 50 50 50
59 60 60 59 58 57 55 53 53 53 52 52 52 52 51 54 53 52 52 52 54 51 51 51 51 51 51 51 51 52 51 51 51 53 52 50 49 50 49 48 48 48
59 59 59 59 59 57 56 55 54 53 53 53 51 52 55 53 52 52 52 51 52 52 51 51 51 52 52 50 51 53 52 51 51 50 52 50 49 50 47 48 48 48
59 60 60 60 60 59 57 57 54 54 53 53 54 54 54 55 52 52 52 57 51 53 51 51 52 51 51 50 51 51 51 51 51 50 50 49 50 50 48 49 49 48
60 59 60 60 60 60 58 58 57 56 55 56 54 54 55 54 52 52 52 53 52 52 52 52 51 51 51 50 51 50 50 51 50 50 50 50 50 51 49 51 49 49
58 60 59 60 60 59 58 59 59 57 56 54 55 55 54 54 54 53 53 53 52 53 53 52 51 51 50 51 50 51 51 51 50 50 51 50 50 49 51 49 48 49
58 58 59 60 59 59 60 60 59 58 57 57 56 55 54 54 54 54 54 54 53 53 53 53 52 52 50 50 50 51 50 51 49 50 50 50 50 50 50 49 49 48
56 57 58 57 59 58 58 57 57 56 55 55 56 56 55 55 55 55 56 56 55 54 53 53 53 53 52 51 52 51 50 52 52 50 51 50 50 50 49 51 49 50
56 56 58 57 56 56 55 56 56 55 56 55 55 55 56 56 56 56 56 57 57 57 56 55 55 54 53 52 52 52 52 51 52 50 51 50 50 50 50 49 48 49
57 56 56 56 57 56 56 56 56 55 56 56 56 56 56 57 57 57 56 56 57 57 57 57 57 56 55 54 55 54 53 53 52 51 51 51 52 52 50 50 50 48
53 54 54 54 54 54 55 55 54 54 55 56 56 56 56 55 56 57 57 57 58 58 57 56 56 56 55 54 54 53 53 53 53 53 52 52 52 53 54 52 50 51
52 52 53 53 52 53 54 54 54 53 54 54 55 56 55 54 54 54 56 57 57 57 57 56 56 55 54 55 55 53 52 52 53 53 53 53 52 52 53 52 52 51
53 53 53 53 53 53 54 54 54 55 55 54 54 54 54 55 55 55 54 55 57 57 57 57 57 57 56 56 56 54 53 53 53 52 52 52 52 53 53 52 52 52
53 54 54 54 54 54 54 55 54 54 55 55 54 54 54 55 55 55 56 56 56 56 56 56 56 56 56 56 56 57 56 55 55 55 54 53 52 52 52 52 53 53
54 54 54 54 54 54 54 54 55 55 55 55 54 54 55 55 56 56 56 56 56 55 55 55 55 56 56 56 55 56 56 56 56 55 55 54 53 52 51 51 51 52
53 53 54 53 53 53 53 53 53 54 53 53 54 53 54 54 54 55 55 56 56 55 54 53 54 55 55 52 52 55 55 56 55 54 54 54 54 53 51 51 52 52
52 52 52 52 51 51 50 51 51 52 50 50 51 53 54 54 53 53 54 54 54 53 53 53 53 54 50 47 46 46 52 52 53 53 52 53 52 52 52 51 51 52
46 47 48 48 49 49 48 48 48 49 50 49 49 50 50 51 51 52 52 51 51 49 50 49 50 47 43 47 45 44 46 52 52 52 53 52 52 51 52 52 53 53
46 48 48 48 49 49 48 46 46 47 47 47 48 47 47 48 48 49 48 48 49 50 48 48 48 42 40 41 41 42 42 47 51 51 51 51 51 52 52 52 52 52
45 46 47 46 45 45 45 46 47 49 47 45 45 46 45 48 46 45 46 46 47 47 46 42 41 43 41 40 40 39 39 42 48 48 49 49 49 49 50 49 49 50
45 45 45 44 46 46 43 43 44 44 46 44 43 46 46 47 44 41 44 46 44 42 40 40 40 41 40 40 41 41 41 43 43 43 44 43 43 44 45 46 47 49
45 44 44 43 42 41 42 43 42 43 44 44 40 39 39 38 39 41 41 39 39 38 39 39 38 40 40 40 41 41 43 45 43 43 43 43 44 43 44 44 46 47
45 45 44 43 42 44 44 45 45 44 44 41 41 38 38 38 37 37 36 36 37 37 36 37 36 39 40 40 40 41 43 43 43 44 44 43 41 41 42 44 44 44
45 45 46 44 44 47 46 45 43 42 39 40 39 39 38 37 37 36 36 36 35 35 38 37 36 39 41 41 41 43 44 44 43 44 42 41 40 41 42 44 47 48
44 44 45 45 46 45 43 45 42 40 39 38 38 38 37 36 37 36 35 35 35 37 44 37 36 40 41 41 41 43 44 42 44 43 41 39 39 40 42 43 43 45
44 45 43 42 43 44 41 42 40 39 37 38 36 37 37 35 36 34 34 33 33 34 36 35 36 37 38 41 41 42 43 45 44 43 40 39 39 40 39 39 40 41

ECMWFNIL_sfc_temp_048.txt.gz
Temp
57 57 57 56 55 55 53 52 52 52 51 51 54 51 52 53 52 51 52 52 53 52 53 53 54 54 54 53 53 54 53 52 52 51 52 52 52 53 53 52 52 53
57 58 58 57 56 55 54 53 52 53 52 51 52 51 51 52 52 52 52 53 53 51 51 52 53 53 53 53 53 53 53 53 53 54 52 51 51 51 50 50 51 51
57 57 57 57 56 55 54 54 53 52 52 51 50 51 53 52 51 51 51 51 53 51 52 52 53 53 52 52 53 54 53 53 53 52 53 51 51 51 50 50 51 51
56 58 58 58 57 56 55 55 53 53 52 53 53 53 53 54 52 52 52 56 51 52 51 52 52 52 52 52 53 53 52 53 52 52 52 52 52 52 51 51 51 51
57 57 57 58 57 56 56 55 54 54 55 55 53 53 55 53 52 52 52 52 52 52 52 52 51 52 52 52 52 52 53 52 51 52 53 52 52 53 52 52 51 51
58 58 57 57 57 57 56 56 56 55 55 54 55 55 53 53 53 53 53 53 52 53 53 52 52 52 52 52 52 52 53 53 52 52 53 53 52 52 52 51 51 52
57 57 57 57 57 57 57 57 57 56 56 57 55 54 54 54 54 54 54 53 53 54 54 53 53 53 52 52 53 52 52 52 51 53 53 52 53 53 52 52 52 52
55 56 55 55 56 56 57 57 57 56 55 55 55 54 54 55 55 54 54 55 55 54 54 54 54 54 52 52 54 53 52 53 52 53 53 52 52 53 52 52 51 53
55 56 56 56 56 55 55 55 55 55 56 55 55 55 55 55 55 55 55 56 55 55 55 55 55 55 53 53 53 53 54 53 53 53 54 53 53 54 53 52 52 53
55 55 56 55 56 54 56 55 55 54 56 57 56 55 56 56 56 57 57 56 56 56 56 56 55 56 55 55 54 54 54 54 53 53 53 54 54 54 53 53 53 52
54 54 54 54 54 54 54 54 54 55 56 57 56 57 57 56 57 57 57 57 57 57 58 57 57 56 56 56 55 54 54 54 54 54 54 54 54 54 54 54 53 55
52 53 53 53 53 53 54 54 54 55 55 55 56 55 55 55 55 56 57 57 57 57 57 57 57 56 56 56 56 55 54 54 54 54 54 54 54 54 54 54 54 54
53 53 53 54 53 53 53 53 53 54 54 54 54 55 55 54 54 54 55 56 56 56 56 56 57 57 56 56 56 56 55 55 54 54 54 54 54 54 54 54 54 54
53 53 53 53 52 53 54 54 54 53 53 53 53 53 53 54 54 55 54 54 54 55 55 56 55 55 56 56 56 56 55 54 54 54 54 54 54 54 54 54 55 54
52 53 53 53 53 53 52 53 54 54 53 53 53 53 53 53 54 54 54 54 54 53 54 54 54 54 55 55 55 56 56 55 55 55 55 55 55 54 54 54 54 55
51 51 52 51 52 52 53 52 53 53 53 53 53 53 54 53 53 53 54 53 53 53 53 53 54 55 54 50 50 55 55 55 55 55 55 55 55 54 53 53 54 55
50 51 51 51 51 51 50 51 52 52 52 52 53 52 53 53 53 52 52 52 53 53 53 53 53 55 50 46 45 45 51 53 53 54 54 54 54 54 54 54 54 55
49 50 50 49 51 52 51 51 51 51 51 51 51 52 52 51 51 52 51 51 51 51 51 52 52 47 42 41 41 42 45 51 52 53 53 53 53 53 53 53 53 53
46 48 47 46 47 47 47 49 51 50 50 50 50 50 49 49 50 50 50 50 50 51 51 51 50 43 40 40 40 40 40 44 51 51 51 51 51 52 52 52 52 52
46 48 47 46 45 45 46 47 48 47 46 46 47 46 46 46 46 48 48 48 48 48 49 47 45 43 40 40 40 39 39 41 49 50 49 48 48 50 51 51 51 51
45 45 46 46 45 45 45 46 46 45 46 43 43 43 43 43 43 44 46 46 46 45 44 44 42 40 39 40 40 40 39 42 46 45 45 45 45 45 46 48 48 49
45 44 43 43 43 44 46 45 44 44 44 43 42 40 40 40 41 42 42 42 40 41 42 43 40 39 39 40 41 40 41 45 44 45 44 44 44 44 45 46 47 47
46 46 45 43 43 45 44 44 45 43 41 41 42 40 40 40 39 39 39 39 40 39 40 42 40 40 39 40 39 40 42 44 45 45 43 42 42 43 44 45 45 45
45 46 46 44 44 46 45 43 41 40 39 40 42 41 40 39 38 38 37 38 38 38 39 40 41 41 40 40 40 41 43 45 45 44 42 42 41 42 43 45 48 47
44 44 45 45 45 43 42 42 42 42 40 39 39 39 39 37 39 37 37 37 37 39 44 38 37 41 40 40 40 41 44 45 45 44 42 41 41 41 41 42 43 45
45 47 47 48 46 44 43 43 41 40 38 39 37 38 38 36 37 36 36 36 35 35 37 37 38 39 41 40 41 41 42 45 45 45 42 40 41 42 41 41 42 43

ECMWFNIL_sfc_temp_051.txt.gz
Temp
67 67 67 67 68 68 67 67 67 67 67 68 68 68 68 67 66 67 67 68 68 68 67 67 67 67 67 67 67 69 69 66 66 66 67 66 66 65 65 65 65 66
65 65 66 66 66 65 66 67 67 68 67 67 68 68 67 67 66 68 67 67 68 68 67 67 68 68 68 68 68 68 68 67 65 67 66 65 65 65 64 64 65 66
65 65 64 64 64 63 63 64 66 67 68 68 67 67 67 67 67 67 68 68 68 67 67 67 67 68 68 68 68 68 68 67 66 67 67 66 66 66 65 65 66 65
65 66 66 66 65 64 64 64 65 66 67 66 67 68 68 67 68 67 67 67 68 67 67 67 68 68 69 68 68 68 67 67 67 67 66 66 66 67 66 66 65 66
64 65 66 65 65 65 65 66 65 66 67 68 67 67 67 67 67 68 68 67 68 67 67 67 67 67 68 68 69 68 67 67 66 68 67 66 66 66 66 66 66 65
65 66 66 65 64 65 65 66 67 67 67 66 67 67 67 66 68 68 68 67 67 68 67 68 68 67 68 68 68 68 68 68 67 68 68 67 67 66 67 67 66 66
64 64 64 65 64 65 66 66 66 67 67 68 67 66 66 66 67 68 69 68 68 68 68 67 67 67 66 67 68 68 68 68 68 68 68 68 67 65 66 67 68 67
64 65 66 66 66 65 65 65 66 66 66 67 67 66 67 67 67 68 69 69 69 69 69 68 68 68 67 67 68 66 66 65 66 67 68 67 66 67 67 66 66 67
65 65 65 65 65 66 66 67 66 66 67 67 67 67 68 69 69 69 69 70 70 69 70 69 69 68 67 68 67 67 67 66 65 66 66 66 66 67 68 68 66 66
65 66 65 66 65 66 66 66 66 66 67 68 68 68 68 69 70 69 68 69 69 70 70 70 69 68 68 68 68 68 67 67 67 65 65 65 66 68 68 66 66 66
64 65 65 65 65 66 65 65 66 67 67 68 68 68 69 68 67 68 67 68 68 70 70 69 69 68 68 67 67 67 67 66 67 66 65 66 65 65 63 65 66 65
63 63 64 64 65 65 65 65 66 66 66 66 68 69 67 67 68 68 68 69 70 70 69 69 68 67 68 68 68 67 66 66 66 66 65 66 65 65 65 63 63 65
63 63 64 64 64 64 65 66 66 66 66 66 66 67 67 67 68 69 69 69 70 69 69 68 68 68 67 66 66 66 66 65 65 65 64 63 62 64 64 63 63 63
63 63 64 64 64 65 65 66 66 67 67 67 67 67 67 68 68 68 67 68 68 68 67 66 66 66 67 67 67 66 66 65 64 63 64 64 63 63 63 62 62 62
63 64 65 65 65 65 65 65 66 66 66 66 66 66 66 67 67 67 66 66 67 66 66 65 65 65 66 66 66 66 65 64 64 64 64 64 64 64 64 64 65 65
64 64 65 65 65 65 66 65 65 65 64 64 65 66 66 66 65 65 65 65 65 65 65 64 64 64 59 52 52 63 65 65 65 65 65 64 64 64 65 65 64 65
64 64 65 65 65 65 65 64 63 63 63 64 63 64 63 63 63 63 63 63 64 64 63 62 63 61 44 42 42 43 57 64 64 65 65 64 64 63 63 65 65 66
64 64 64 63 60 60 61 63 62 61 62 63 62 61 62 61 61 62 62 62 62 63 63 62 62 46 40 40 40 40 44 58 62 63 63 63 64 64 64 64 64 64
63 64 63 61 60 60 60 60 60 58 59 60 61 60 59 59 59 58 59 59 61 62 60 58 58 41 40 40 40 39 39 49 60 61 62 62 63 63 63 63 63 63
62 64 64 63 63 62 61 61 61 61 60 61 61 59 59 57 57 57 56 57 56 58 57 58 59 43 39 40 41 39 38 47 59 59 62 61 61 60 60 61 62 62
64 64 63 63 63 63 63 64 63 61 61 61 62 61 60 59 58 57 54 53 54 56 60 59 55 39 39 39 39 40 39 49 62 60 61 60 59 59 59 59 60 60
64 63 62 63 63 63 63 63 61 61 60 59 59 58 56 55 53 54 54 54 55 59 61 61 55 38 39 39 39 39 42 61 61 60 59 59 59 58 59 59 60 60
61 60 58 59 62 63 63 62 61 60 59 60 60 59 59 58 57 57 58 59 58 60 61 61 58 44 38 39 39 40 52 62 60 61 59 58 57 57 58 58 57 59
60 61 59 60 63 64 61 59 59 59 59 58 63 62 60 58 58 58 57 57 57 57 56 59 58 46 38 40 40 41 52 61 62 60 58 57 56 56 58 57 53 47
57 56 58 58 59 59 59 60 61 61 58 58 59 61 58 58 58 60 57 56 55 54 47 54 57 51 40 40 39 42 55 62 62 62 59 58 58 56 56 57 55 50
59 59 57 57 58 56 56 58 56 57 57 58 57 61 60 58 57 58 57 56 54 55 54 54 56 56 49 38 41 41 46 61 62 62 59 57 58 58 56 56 55 54

ECMWFNIL_sfc_temp_054.txt.gz
Temp
75 77 76 76 77 76 75 75 75 74 75 75 75 75 75 74 75 74 74 75 75 74 74 74 74 74 75 75 75 76 75 73 73 74 73 73 72 72 71 71 71 73
74 76 77 77 76 76 76 75 75 75 74 75 75 75 75 74 74 75 74 74 75 74 75 74 75 75 75 75 74 74 74 73 73 75 72 72 72 72 70 71 71 73
73 74 75 75 75 74 74 75 75 75 75 75 75 75 74 74 74 75 74 75 74 74 74 74 74 74 74 75 74 74 73 72 72 74 73 72 72 72 71 72 72 72
73 74 75 75 75 74 74 74 74 75 74 74 74 74 74 74 74 74 74 74 74 74 74 74 74 75 76 75 74 74 74 74 74 73 72 73 73 73 72 72 72 73
72 73 75 75 75 75 74 74 73 74 74 73 74 74 74 74 74 74 74 74 74 74 74 74 74 74 74 75 75 73 73 73 73 74 73 72 72 72 72 72 71 71
72 74 75 76 75 74 74 74 74 73 73 73 73 75 75 74 75 75 74 74 74 74 74 74 74 74 75 74 74 74 74 74 73 73 73 72 73 73 75 73 72 71
71 72 73 74 74 74 74 74 73 73 74 75 76 74 75 74 75 76 76 75 75 75 76 74 74 73 74 74 74 73 74 74 74 74 74 74 73 71 73 73 73 73
71 73 73 74 73 73 74 74 73 73 73 75 74 75 75 75 76 76 76 76 76 77 76 76 75 75 74 75 74 73 72 73 73 74 73 73 72 73 72 73 72 73
71 71 72 71 72 73 73 74 74 73 74 73 74 74 76 76 76 76 76 77 77 76 77 76 76 76 75 74 74 74 74 73 73 73 72 72 71 72 74 74 72 71
71 71 71 71 71 73 73 74 74 74 74 73 73 73 74 75 77 77 77 76 76 77 77 77 76 75 75 76 75 75 74 74 73 73 73 73 72 73 74 73 72 71
70 71 70 71 71 73 72 74 74 74 74 74 73 73 74 74 76 77 76 76 75 76 77 77 76 76 75 75 74 74 74 73 74 74 73 73 73 73 70 72 71 71
71 70 70 71 72 72 73 74 74 74 74 74 75 74 74 75 76 76 76 77 77 78 78 77 77 76 76 76 76 74 73 73 73 73 73 74 73 73 73 73 71 72
71 71 71 71 71 72 73 74 74 74 75 74 74 74 74 75 76 76 76 77 78 77 76 76 76 76 75 74 74 74 73 73 72 72 72 72 72 73 73 73 73 73
71 71 71 71 72 73 73 73 74 73 74 73 72 72 74 76 76 76 76 77 77 77 77 76 75 75 75 74 74 74 72 72 72 71 71 71 70 71 71 72 71 72
69 70 71 71 71 72 72 73 73 74 73 73 72 73 74 76 75 75 74 75 76 75 75 74 74 73 74 73 73 72 72 71 71 72 71 71 71 71 71 71 71 71
70 69 71 71 71 71 72 73 73 73 73 73 73 73 72 73 74 74 74 74 73 74 73 71 71 71 56 47 50 67 72 73 71 71 71 71 70 70 70 71 71 71
71 71 71 71 71 72 71 72 71 68 67 66 67 67 67 69 71 72 72 71 72 72 70 70 70 61 42 43 44 44 62 70 70 70 70 70 69 69 69 69 70 72
70 71 71 70 71 71 71 70 67 67 67 66 66 65 66 66 68 69 69 70 70 71 70 69 64 45 41 41 43 43 47 65 71 71 70 71 71 70 71 71 70 69
71 71 70 69 69 69 69 69 69 68 67 65 65 66 65 65 67 67 68 69 70 70 69 68 63 41 40 39 40 40 42 53 73 70 70 70 70 70 70 70 70 69
71 71 70 70 70 69 69 68 67 66 66 67 67 66 65 66 64 67 69 70 70 70 69 68 63 43 39 40 41 40 42 49 72 69 69 69 69 69 68 69 68 69
72 71 71 71 71 70 70 69 68 66 66 67 67 66 66 66 68 69 68 69 70 70 70 67 59 38 41 38 40 40 42 46 71 68 69 69 68 67 68 67 67 67
72 72 71 72 71 71 70 69 69 69 68 69 69 69 69 69 69 69 68 68 69 69 69 67 60 37 39 40 39 42 39 62 69 69 68 68 67 67 68 68 68 67
72 71 70 71 72 71 71 69 69 69 69 71 69 69 69 69 68 69 70 69 68 69 68 66 64 46 38 39 39 38 45 70 69 70 68 67 67 67 67 65 64 65
72 72 70 69 71 70 69 69 70 70 70 71 70 69 69 69 70 69 69 70 69 68 68 67 64 48 39 41 39 39 46 68 70 69 67 66 66 66 66 64 57 45
72 71 71 69 67 68 69 68 69 69 70 71 71 70 69 70 71 70 69 69 68 66 54 62 65 52 38 42 38 42 54 70 69 70 66 66 66 65 65 64 60 52
70 70 70 71 71 69 69 69 69 69 69 69 69 71 70 70 70 70 68 68 67 66 65 66 65 63 52 37 42 44 41 61 70 68 66 65 66 65 64 63 61 59

ECMWFNIL_sfc_temp_057.txt.gz
Temp
77 76 76 77 77 77 77 76 76 76 76 76 76 75 76 75 76 75 75 76 76 75 75 75 76 75 76 76 76 77 76 74 74 74 74 73 73 72 72 73 73 74
76 76 76 77 77 77 77 77 76 77 76 76 76 76 76 75 76 76 75 75 76 76 76 76 76 77 76 76 76 75 75 75 74 77 74 74 74 73 72 72 73 75
76 76 76 76 76 76 76 76 77 76 76 77 76 76 75 76 75 76 76 76 76 75 75 76 76 76 76 76 76 75 75 74 73 74 74 74 73 73 73 74 74 74
75 76 76 76 76 76 76 76 76 76 76 75 75 76 76 76 76 75 76 76 76 75 75 76 76 77 78 77 76 76 76 75 75 75 74 74 74 74 73 74 73 74
74 76 76 76 76 77 76 76 76 76 76 75 75 76 76 75 75 76 75 76 76 76 75 75 76 76 76 76 77 75 75 75 75 76 74 73 74 74 74 74 73 73
75 77 75 75 76 76 76 76 76 76 76 75 75 76 76 76 76 76 76 75 76 76 75 76 76 76 77 76 76 75 76 75 75 75 75 74 75 76 77 74 74 73
73 74 74 74 74 75 75 76 76 76 76 76 77 76 76 76 76 77 77 77 77 77 77 76 75 75 76 76 75 75 75 75 76 76 76 75 74 73 76 75 75 74
73 74 74 73 72 74 75 76 76 76 76 77 75 76 77 77 78 77 77 77 78 78 77 77 76 76 76 76 75 74 74 75 75 76 75 75 74 74 74 74 73 74
73 73 73 72 70 74 75 76 75 76 77 75 76 76 77 77 77 77 77 78 78 77 78 77 77 77 76 76 75 74 74 74 74 75 74 73 73 73 76 75 73 73
72 73 73 71 72 75 75 75 75 76 77 76 77 77 77 77 78 78 78 78 77 78 78 78 78 77 76 77 76 76 75 75 75 74 74 74 74 75 76 74 73 72
71 72 72 73 73 74 74 75 75 75 76 77 76 76 77 77 77 78 77 78 76 78 78 77 77 77 76 76 76 75 76 75 75 75 74 74 73 74 73 74 73 72
71 71 71 71 71 72 73 74 74 74 75 75 76 76 77 76 76 77 77 77 78 79 79 78 78 77 78 77 77 76 75 75 75 75 74 74 74 74 75 74 73 73
71 71 70 70 70 71 72 74 75 75 75 76 76 76 76 75 76 76 76 77 77 77 77 78 78 78 77 76 76 77 76 75 74 73 73 73 74 74 75 74 74 74
64 64 68 70 72 71 73 74 75 75 75 76 76 76 75 76 76 75 75 75 73 73 77 77 76 75 77 77 76 76 74 74 73 70 70 71 70 72 73 73 73 73
63 63 65 70 71 73 72 73 74 74 76 76 75 75 75 77 77 77 72 71 69 73 73 73 72 67 64 64 70 70 74 69 68 66 66 65 66 68 70 71 73 73
64 66 67 71 71 69 70 72 73 72 73 75 75 76 74 69 66 63 65 65 70 73 70 69 68 63 54 46 49 63 64 60 62 64 66 65 65 64 67 69 71 72
73 73 71 69 70 71 69 63 64 65 66 68 67 68 68 68 68 65 61 61 64 67 67 67 62 57 42 42 44 44 60 63 65 64 65 66 68 67 66 65 65 71
72 72 72 70 68 68 67 68 66 64 66 68 69 69 69 69 69 69 68 66 63 63 64 62 58 43 42 42 42 41 46 62 69 71 70 70 70 72 71 71 70 70
72 72 69 67 67 64 62 61 65 65 66 67 67 69 69 69 70 68 65 67 66 65 62 63 58 41 42 41 43 41 41 49 70 72 71 71 71 70 70 71 71 70
73 72 70 69 67 65 65 66 67 68 67 67 68 67 67 67 66 66 64 62 61 62 63 64 60 42 42 41 42 40 40 45 71 71 71 71 71 71 70 70 69 70
74 73 69 71 71 71 70 69 69 68 68 68 66 65 64 64 63 63 66 66 64 65 65 64 60 37 40 39 40 39 40 43 69 70 71 70 70 69 70 69 69 69
74 73 73 72 71 70 70 68 68 67 67 68 67 67 67 68 69 69 68 69 70 69 67 64 56 37 39 39 39 40 39 58 70 70 70 70 69 69 69 70 69 69
75 74 73 72 72 71 70 69 69 69 70 70 68 68 69 69 69 70 70 70 69 69 67 64 60 44 39 39 39 38 44 65 70 70 70 68 68 68 67 65 62 62
74 75 73 73 73 72 70 70 71 71 72 72 70 69 69 70 71 71 71 71 70 70 70 67 64 48 40 42 38 37 44 63 70 70 67 67 67 67 65 64 58 46
74 73 73 72 72 72 71 71 71 71 72 72 72 72 70 71 72 71 71 71 70 69 60 65 65 53 39 40 40 39 51 67 70 70 67 67 68 66 66 64 61 52
73 72 71 70 71 71 71 71 72 72 71 71 71 73 71 72 71 72 69 70 69 68 67 68 66 64 53 38 42 43 39 57 67 69 66 66 67 67 65 63 62 59

ECMWFNIL_sfc_temp_060.txt.gz
Temp
71 71 71 70 71 71 71 70 70 70 70 69 68 69 68 68 69 68 69 69 69 68 69 69 69 68 70 68 67 69 68 66 66 67 67 66 65 65 66 66 64 64
71 71 71 71 70 71 71 70 70 70 69 69 69 68 69 69 69 69 68 69 69 69 69 70 69 69 68 68 68 67 67 66 66 71 66 66 65 65 64 65 65 65
71 71 71 71 70 70 70 71 71 70 69 70 69 69 69 69 69 69 69 68 68 69 69 69 68 69 69 68 68 67 67 66 66 67 66 66 65 65 65 65 65 65
71 72 72 72 71 71 70 70 70 70 70 69 69 70 70 70 69 69 69 70 68 69 68 69 70 70 70 69 68 67 68 67 68 67 66 66 66 66 65 65 65 66
70 71 72 71 72 71 71 70 70 70 70 69 69 69 69 68 68 69 68 68 68 69 69 69 69 69 70 69 69 67 68 68 68 67 66 64 66 66 66 66 65 64
67 66 68 71 70 70 70 70 71 71 70 69 68 70 69 70 69 70 69 68 69 69 69 69 70 71 70 70 69 68 68 69 68 68 68 66 67 68 71 68 65 64
66 66 64 67 70 71 70 70 70 71 70 70 70 69 70 70 70 70 71 70 70 70 70 69 69 70 70 70 69 69 69 69 70 71 69 67 66 67 70 69 67 66
66 65 64 65 69 69 70 71 70 70 70 70 69 70 70 71 72 70 70 71 71 71 70 71 70 70 70 70 70 68 68 71 71 71 68 68 68 67 67 70 67 66
64 63 63 64 67 68 69 71 70 70 71 69 69 69 70 71 71 70 71 71 71 70 71 70 70 70 70 71 68 69 68 69 69 68 67 67 68 68 69 69 68 66
61 62 62 62 66 68 69 70 70 70 71 70 71 70 71 70 71 72 71 70 71 71 71 71 71 70 71 71 71 70 70 69 69 68 69 68 68 69 70 67 68 67
62 62 62 62 65 66 68 69 70 70 70 71 70 70 71 69 71 71 71 71 70 72 72 71 71 71 70 70 69 70 71 69 69 70 68 69 68 67 69 67 66 66
62 61 62 62 63 65 67 69 70 70 70 70 71 71 70 70 70 71 72 72 72 73 73 72 72 71 71 71 70 69 68 68 67 64 63 63 62 63 62 62 66 67
64 62 61 60 64 66 67 69 70 69 71 71 70 70 69 69 70 70 70 71 72 72 73 71 69 70 70 69 70 69 65 63 61 61 61 61 61 61 61 61 60 61
66 62 61 62 64 64 62 62 67 68 67 68 69 69 69 70 70 70 69 71 70 68 64 64 65 66 66 66 66 64 62 62 60 59 60 60 60 60 59 61 61 60
64 64 63 63 62 61 61 61 60 62 66 68 68 69 70 71 71 71 69 67 65 64 64 63 62 60 57 57 64 64 63 62 61 61 61 61 60 60 61 61 59 61
65 63 64 63 61 61 61 60 59 59 59 63 68 69 68 66 64 65 65 64 63 62 62 61 60 58 49 45 49 60 62 61 61 60 60 59 59 59 59 60 61 60
63 63 63 62 61 61 60 59 59 60 61 63 63 65 65 65 65 64 62 62 61 61 60 60 58 52 43 41 41 44 60 62 61 61 61 60 59 60 59 60 61 62
63 63 62 62 61 61 61 61 60 60 60 61 63 63 64 65 65 64 63 62 62 61 60 59 56 45 40 42 41 41 45 57 63 62 62 61 61 60 61 62 63 61
61 61 60 61 61 61 60 60 60 60 60 61 64 64 64 62 62 62 62 62 62 61 60 59 56 41 42 41 42 40 40 48 62 64 64 63 64 64 64 64 63 63
59 60 60 60 59 59 59 60 61 62 62 62 63 64 63 61 59 59 61 60 60 59 59 59 56 44 41 42 41 39 39 43 61 65 64 65 64 64 63 62 62 62
60 61 62 61 60 61 62 63 63 62 63 64 64 63 62 61 59 59 60 60 60 60 60 58 55 40 40 39 39 39 40 41 63 66 65 64 63 63 62 60 61 63
62 63 63 63 63 63 63 63 62 63 63 63 63 63 63 63 62 61 60 60 61 61 60 58 51 36 38 38 39 40 38 53 63 63 63 63 62 60 58 57 57 58
70 68 66 66 66 65 65 64 64 63 63 64 63 63 62 62 62 62 63 62 61 62 59 57 55 41 37 38 38 37 46 61 62 65 63 61 60 59 57 55 54 58
71 70 68 67 67 66 65 64 64 65 64 64 63 63 63 63 63 63 64 64 63 62 60 58 56 44 38 38 38 37 44 56 61 62 61 60 59 59 57 54 52 53
69 68 68 68 67 66 65 65 65 64 65 65 64 64 63 64 65 65 64 63 63 62 59 59 56 48 38 38 38 38 48 59 61 64 60 60 59 57 57 55 51 48
67 67 66 66 66 65 65 65 65 65 64 65 64 66 65 65 64 64 63 62 61 61 62 61 58 55 45 39 39 38 38 55 60 62 60 60 60 59 57 55 52 50

ECMWFNIL_sfc_temp_063.txt.gz
Temp
66 66 65 65 64 64 63 64 64 64 63 61 61 61 61 62 63 62 62 62 63 63 63 62 63 63 64 63 62 63 62 60 61 60 60 59 58 59 61 60 58 58
65 65 65 65 64 64 64 65 64 64 62 62 61 61 62 62 62 62 62 62 63 62 61 62 62 62 61 60 59 59 58 59 59 63 59 59 58 59 58 57 57 57
64 63 63 63 63 63 64 64 63 63 63 62 62 62 63 62 62 62 61 60 61 61 61 62 62 62 62 61 61 61 61 59 59 58 59 59 58 59 57 58 57 57
63 64 64 63 63 63 64 63 63 63 63 63 63 63 64 64 62 60 61 63 61 62 63 63 62 63 63 61 60 60 60 60 59 58 58 58 58 58 57 56 56 58
64 63 63 63 63 63 64 64 63 63 64 63 63 63 63 62 61 61 61 60 60 60 60 61 61 61 61 62 61 59 59 59 58 58 57 57 59 60 59 59 57 58
63 63 63 64 63 64 64 63 63 64 63 63 62 63 61 61 62 62 61 60 60 61 62 62 62 62 63 62 61 61 61 62 59 59 59 58 60 60 64 59 57 58
63 63 63 65 65 65 64 63 63 64 64 63 62 61 61 61 62 62 61 61 61 62 62 60 60 62 61 60 61 61 61 60 59 60 60 58 58 60 61 59 58 58
62 62 62 64 65 65 65 65 64 64 63 63 62 61 62 62 62 62 61 62 62 61 61 61 61 61 60 62 62 60 60 62 62 60 59 59 59 59 60 63 59 59
60 60 61 62 63 64 65 65 65 65 66 64 63 62 61 62 62 62 62 61 61 61 61 61 62 61 60 62 61 60 60 61 61 59 59 59 59 59 63 61 59 58
59 59 60 61 61 62 63 64 65 65 65 65 63 62 63 61 62 63 63 63 62 62 62 61 62 62 62 63 63 60 61 61 60 60 60 59 59 59 60 59 57 57
58 58 59 60 60 61 61 62 63 65 65 65 63 64 62 61 62 63 63 65 65 64 63 62 64 64 62 62 62 61 60 59 58 58 58 58 58 58 59 57 57 57
58 57 59 59 60 60 60 59 61 63 63 63 64 64 62 61 63 63 64 64 63 61 61 62 62 62 62 61 60 59 59 59 59 59 58 57 57 57 57 57 57 57
58 57 58 58 58 58 59 60 60 60 63 64 62 64 62 62 63 63 61 61 62 63 62 62 61 61 61 61 61 60 59 58 58 57 57 56 55 57 57 57 57 57
59 59 59 58 58 59 59 59 60 60 60 61 63 64 64 63 65 62 59 61 60 61 61 60 59 58 59 59 60 59 58 56 56 56 56 55 54 54 56 57 57 57
58 58 58 58 58 59 58 59 59 60 60 59 61 63 65 63 62 61 60 60 60 59 60 59 58 56 56 57 58 59 58 56 56 55 55 55 55 55 55 55 55 57
58 58 58 58 57 57 57 57 57 57 57 59 60 60 60 60 60 60 59 58 59 58 58 57 55 54 52 50 53 58 58 57 57 56 55 54 54 55 55 55 56 55
58 58 58 58 58 57 57 57 58 58 58 59 59 59 59 60 60 59 58 58 58 57 56 55 52 50 43 42 42 48 58 57 57 57 56 55 54 54 54 54 54 56
57 58 58 57 57 57 58 58 57 57 58 58 59 58 59 59 59 59 58 57 58 57 55 53 50 45 40 41 41 43 49 57 58 58 57 56 56 55 56 55 56 57
57 57 57 57 57 57 57 57 56 57 58 57 57 58 58 58 58 58 57 57 57 56 54 52 50 41 40 41 40 40 40 49 58 57 57 56 56 55 55 55 55 57
57 57 57 57 57 56 55 55 56 55 55 56 56 56 56 56 55 56 56 56 56 55 54 52 50 43 40 41 40 40 38 43 55 55 56 56 56 55 55 54 56 57
57 57 56 56 56 56 55 55 55 55 55 55 55 56 55 54 54 55 54 54 55 55 53 52 51 41 39 39 40 39 39 41 56 58 56 54 53 53 53 54 56 55
56 56 56 56 56 55 55 55 54 55 54 54 54 55 54 54 54 55 54 54 55 54 52 50 45 37 38 39 39 40 39 48 55 56 55 53 52 52 52 53 54 53
55 54 55 55 55 55 54 53 54 54 54 56 56 55 55 55 55 55 55 55 54 53 52 49 46 38 38 39 39 39 44 53 55 55 54 52 51 51 52 53 53 52
56 54 54 54 54 54 54 54 54 55 57 57 56 56 55 55 55 55 55 55 55 53 52 51 48 39 37 38 39 38 46 53 54 53 52 51 49 48 49 50 51 52
54 55 56 55 55 56 56 55 55 55 55 55 55 54 54 54 54 55 54 53 52 53 54 52 48 42 38 38 38 36 42 51 54 53 52 50 50 48 47 46 47 48
57 55 53 55 57 57 56 56 55 54 54 54 54 54 55 53 53 55 54 52 52 52 53 51 49 45 40 37 37 36 40 50 53 52 51 50 50 49 47 44 43 42

ECMWFNIL_sfc_temp_066.txt.gz
Temp
63 63 63 63 62 61 60 60 60 61 60 58 58 57 59 57 58 58 58 59 60 59 59 59 59 58 59 56 56 58 57 55 55 55 56 56 55 57 58 57 56 56
62 62 62 61 60 60 60 61 60 60 59 58 58 57 57 57 58 59 59 59 60 59 58 58 58 57 56 56 55 56 55 56 57 59 57 56 54 56 55 54 54 55
62 62 62 61 60 60 60 60 60 59 58 57 58 58 59 58 58 57 57 58 59 58 58 58 57 56 56 54 55 55 56 56 57 55 57 55 54 55 52 54 55 55
61 62 62 61 61 62 61 60 59 59 58 59 59 59 60 59 58 56 58 60 58 58 57 58 57 56 57 56 55 55 54 54 54 54 55 54 54 54 54 55 55 56
62 62 62 62 63 63 62 62 61 60 60 59 58 58 60 57 56 56 56 56 57 57 57 58 57 57 56 56 56 55 55 55 54 54 55 54 54 56 55 56 56 55
62 64 64 64 63 63 63 63 62 62 61 61 60 59 58 57 57 57 57 57 57 57 57 57 58 57 57 56 57 57 56 57 54 54 55 54 54 54 59 55 55 56
62 63 63 64 64 64 64 63 63 63 63 63 62 60 59 59 59 57 57 57 57 58 58 57 58 57 57 56 57 56 55 55 55 55 55 55 54 55 55 55 54 55
61 62 63 64 64 64 64 63 63 63 63 63 63 61 62 61 60 58 57 57 57 57 57 58 58 57 56 57 58 56 56 58 56 55 54 55 55 55 54 57 53 55
60 60 61 61 61 62 63 64 63 63 64 64 63 62 62 62 61 59 59 57 57 57 57 57 58 58 57 58 57 57 57 56 56 55 55 55 55 54 55 54 54 53
59 60 60 60 59 59 62 63 63 63 64 63 63 62 62 62 62 61 60 58 58 57 58 58 58 59 58 58 59 59 58 57 56 56 56 56 56 55 55 55 54 54
57 58 59 59 59 59 60 62 63 64 63 63 62 63 62 62 61 61 61 61 61 60 60 59 58 58 58 58 58 58 58 58 57 56 56 56 55 56 58 54 54 54
57 58 58 59 59 59 59 60 61 62 63 64 65 63 61 62 62 62 63 63 63 60 59 58 58 58 57 57 57 57 57 56 57 56 56 56 54 55 55 54 54 54
57 57 56 57 58 58 59 60 60 60 62 62 63 63 62 61 62 62 60 62 60 60 61 61 60 59 58 58 58 58 57 57 56 56 55 55 55 55 55 54 54 54
57 57 57 58 57 58 58 58 58 58 57 58 60 61 62 62 62 61 60 61 61 61 61 61 60 59 59 59 58 57 56 55 55 55 54 53 53 54 54 54 55 55
56 56 56 56 57 57 57 58 59 59 58 58 60 60 62 62 61 61 60 60 59 59 59 59 60 59 58 58 57 56 56 56 55 55 54 54 53 53 53 53 54 54
56 56 56 56 56 56 56 56 57 58 58 58 58 59 60 60 61 60 60 59 58 57 57 57 57 58 57 54 55 57 56 56 55 54 55 55 54 53 52 53 54 53
55 55 55 56 56 55 55 56 56 56 55 55 56 56 58 59 59 59 59 59 59 57 55 54 55 55 49 46 47 51 56 55 55 55 55 55 55 54 53 53 52 53
55 55 55 55 54 55 55 55 54 55 56 55 55 55 56 57 57 59 58 57 57 56 55 54 52 49 42 43 45 47 51 56 55 55 55 55 54 54 54 54 54 52
53 54 54 53 53 53 53 54 54 54 55 55 56 56 56 57 56 56 56 56 56 54 53 52 51 42 41 43 44 45 47 52 56 55 55 54 54 54 54 54 54 53
53 53 52 52 53 53 53 52 53 53 53 53 54 55 56 56 55 54 54 55 55 54 53 52 51 44 41 42 42 42 42 48 56 55 54 54 54 55 55 54 55 54
54 52 52 52 52 52 52 52 52 51 52 51 54 54 55 54 54 54 54 54 54 53 52 51 52 42 40 40 40 40 39 44 55 54 53 52 51 53 54 54 54 53
52 51 50 50 52 51 51 52 52 51 51 51 51 52 52 52 53 54 53 53 53 52 52 51 48 39 39 39 39 39 39 51 54 53 51 50 50 51 52 52 51 51
51 51 50 49 50 50 51 51 51 50 51 51 51 51 52 51 52 53 53 54 53 51 51 50 47 41 38 39 39 38 44 53 52 51 50 50 50 50 50 50 50 50
52 52 51 51 50 50 50 49 50 51 50 51 51 51 51 51 51 52 52 53 53 51 51 50 49 40 37 39 39 38 47 52 52 51 49 49 47 47 48 48 50 51
51 51 50 50 50 50 50 50 49 52 51 52 52 52 54 53 52 51 50 50 50 50 53 51 49 41 38 38 38 37 48 52 51 50 48 47 47 44 44 45 46 47
54 55 54 51 50 52 51 50 50 51 51 52 51 53 52 50 52 52 51 49 48 50 51 50 48 44 40 38 37 37 42 51 50 50 48 46 46 47 44 41 40 40

ECMWFNIL_sfc_temp_072.txt.gz
Temp
61 61 60 59 58 59 58 57 57 58 57 56 57 56 56 56 56 57 56 56 57 56 56 56 56 56 56 55 56 57 56 54 54 53 54 55 54 55 56 56 57 58
60 60 60 59 58 58 57 58 58 58 57 56 56 55 55 56 56 57 57 57 56 55 54 55 55 55 55 56 55 56 55 55 55 56 54 54 53 54 54 55 56 57
60 59 59 59 59 57 57 57 57 57 57 56 55 56 56 56 56 55 56 56 56 54 54 54 54 54 54 54 55 56 55 55 54 54 54 53 53 53 53 54 55 57
60 60 60 59 58 57 56 56 55 56 55 56 55 56 57 57 56 55 56 58 55 54 53 54 54 54 54 54 54 54 53 53 53 54 54 54 54 53 54 55 55 55
60 59 59 59 58 58 57 57 56 56 56 56 54 55 56 55 55 55 55 54 55 54 54 54 53 54 54 54 55 55 54 53 53 54 55 54 53 55 55 56 55 55
59 60 59 59 58 58 57 57 57 56 56 55 55 56 55 55 56 55 55 55 54 55 54 54 54 53 54 54 54 54 54 55 53 54 55 55 54 54 56 55 55 55
58 59 59 59 58 58 58 57 56 57 57 56 55 55 55 55 55 55 55 55 55 56 56 55 55 54 53 54 54 53 53 53 53 55 56 54 55 55 55 56 55 55
58 59 59 59 58 58 57 57 56 56 56 56 57 55 56 56 56 55 55 55 56 55 55 55 55 55 54 54 55 54 54 54 54 54 54 54 55 55 54 55 55 55
58 58 58 58 58 58 58 57 56 56 57 57 56 55 55 57 56 56 56 56 56 55 55 56 56 55 54 54 54 55 55 54 53 54 55 55 55 54 55 55 55 54
57 57 57 58 58 57 57 57 57 56 57 57 56 56 56 55 56 56 55 55 56 56 56 56 56 56 55 55 55 55 55 55 54 54 54 55 56 55 55 55 55 55
56 57 57 57 57 57 57 57 57 57 57 57 56 56 56 55 56 56 56 56 57 57 57 56 57 57 56 55 55 55 55 56 55 55 55 55 54 55 56 55 55 55
56 56 56 57 57 57 57 57 56 56 56 56 57 57 55 55 56 56 58 57 57 57 58 58 58 58 58 57 56 56 55 55 56 55 54 55 55 55 54 55 56 54
56 56 56 56 57 57 57 57 57 56 57 57 56 57 56 56 56 57 57 58 57 58 58 59 59 58 58 57 57 57 57 56 55 55 54 54 54 54 54 55 55 54
56 56 56 56 56 57 57 57 56 56 56 56 56 56 56 57 57 58 58 58 58 59 58 59 59 58 58 57 57 57 56 56 56 55 54 54 53 53 53 54 54 55
56 57 56 57 57 57 56 57 57 57 56 56 57 57 57 58 58 59 59 58 58 58 58 58 59 58 57 57 56 56 55 56 55 55 55 55 53 52 52 53 53 53
56 57 57 56 57 57 56 55 56 57 57 57 57 58 58 58 59 59 59 59 58 58 58 58 58 58 56 53 54 57 56 55 55 54 54 54 54 52 52 52 52 52
54 54 55 56 56 56 55 55 56 57 57 57 57 57 58 57 57 58 58 58 58 58 57 57 57 57 50 46 48 51 56 56 56 55 54 54 54 53 53 52 52 52
53 54 53 54 54 55 55 54 53 53 55 56 56 56 56 56 56 57 57 57 57 58 57 56 56 53 46 45 45 46 50 56 56 55 55 54 54 53 52 52 52 52
53 53 51 51 52 51 52 53 53 53 52 52 54 55 55 55 55 56 56 56 57 56 56 55 55 48 44 43 43 42 43 51 55 55 55 54 54 54 53 52 52 52
53 52 51 50 51 51 51 51 50 50 50 50 51 52 53 53 52 53 53 54 54 54 54 53 53 47 42 43 43 43 42 46 55 55 55 55 54 54 54 53 53 53
53 53 52 52 51 51 50 50 49 48 50 50 50 51 50 50 50 52 51 51 52 52 52 52 50 43 43 43 43 42 41 42 54 54 54 54 53 54 54 53 53 53
53 53 53 54 52 50 50 50 49 48 49 49 49 49 48 48 49 50 50 51 51 51 50 52 47 40 41 42 42 42 41 50 53 54 54 53 52 52 53 53 53 53
50 50 50 51 51 51 50 49 49 50 49 49 50 48 49 50 49 50 51 51 50 50 50 48 47 42 41 41 41 40 43 50 52 52 52 52 52 52 53 53 53 53
49 49 49 49 49 48 48 48 49 48 48 48 49 48 49 49 49 49 49 49 50 49 49 49 49 43 39 40 40 40 44 50 52 52 51 50 50 50 51 52 52 51
47 47 46 46 46 46 47 46 47 48 49 50 49 50 49 48 48 50 48 47 49 49 52 50 49 48 41 40 40 39 43 49 51 52 50 48 49 48 48 50 51 51
47 47 46 46 45 45 46 46 46 47 47 49 50 50 49 48 48 49 49 48 47 47 49 49 49 49 44 39 40 39 40 47 50 52 51 49 48 49 48 48 48 49

ECMWFNIL_sfc_temp_075.txt.gz
Temp
68 69 68 69 68 67 66 68 70 71 71 71 71 70 71 70 69 69 69 69 69 69 69 69 69 69 69 69 68 71 71 68 67 68 68 69 69 69 68 69 69 71
69 69 69 69 68 67 67 68 70 71 70 70 71 70 69 68 68 69 69 68 69 69 69 69 69 69 69 70 68 69 69 68 67 68 67 67 68 68 68 68 69 70
69 68 68 68 67 66 66 68 69 71 70 69 68 69 68 68 67 68 69 69 69 68 68 68 68 69 69 69 69 70 70 68 67 68 68 68 67 69 68 68 69 69
69 69 69 69 68 67 67 67 67 68 68 67 68 68 68 67 68 67 67 68 69 68 68 69 69 69 70 69 69 70 69 69 68 68 67 67 68 69 68 69 69 70
68 68 69 69 68 68 67 67 67 68 69 68 66 67 68 67 68 68 68 68 69 69 68 68 69 68 68 69 70 69 69 68 67 69 69 67 68 68 68 69 69 69
67 69 69 68 67 67 67 68 68 69 68 66 67 68 68 69 69 69 69 69 69 69 68 69 69 68 70 69 70 70 70 70 68 70 70 69 68 69 70 69 69 69
66 66 66 67 67 67 68 68 68 69 69 69 68 67 68 69 69 70 71 70 70 70 71 69 69 68 69 70 70 69 69 69 70 72 71 70 69 67 69 70 70 70
66 66 66 66 66 67 68 68 68 68 68 68 68 68 69 70 70 69 70 71 71 71 71 71 71 70 70 71 71 69 68 69 70 72 71 70 69 69 68 69 68 70
66 66 66 66 66 66 66 67 67 68 69 69 69 68 69 70 70 70 70 72 71 70 71 71 72 71 70 70 70 71 71 69 69 71 71 71 70 70 71 70 69 68
66 66 65 65 65 65 65 65 66 66 68 69 69 69 69 68 70 71 70 71 70 71 71 71 71 71 71 72 72 72 72 72 71 71 72 72 72 72 72 71 70 68
64 65 65 65 65 65 64 64 65 66 67 69 68 68 68 68 69 70 70 71 70 71 72 72 72 72 71 71 71 72 72 72 72 72 71 71 71 71 69 72 72 71
64 65 66 65 65 64 64 64 64 66 67 68 70 69 68 69 69 70 71 72 72 73 73 73 73 73 73 73 73 71 71 71 71 71 71 71 71 71 72 72 71 71
64 62 61 63 64 64 64 64 65 65 67 68 69 69 69 69 70 70 70 72 73 72 72 72 72 72 72 71 72 72 71 71 70 70 69 69 70 71 71 70 71 71
63 62 63 63 64 65 65 64 65 65 67 68 68 69 69 71 71 71 70 71 71 72 71 70 69 69 71 70 70 70 69 69 70 69 69 69 68 68 69 70 70 70
62 63 62 62 64 65 66 65 66 66 66 67 67 68 69 71 72 72 70 70 70 70 69 67 67 67 65 64 64 65 66 67 69 71 70 69 68 68 67 67 69 68
60 61 62 63 63 64 65 66 66 67 67 67 67 68 69 69 70 70 70 69 69 69 67 65 66 65 60 54 57 66 66 67 67 69 70 70 68 67 66 66 67 67
62 62 62 61 60 60 61 63 65 65 66 67 67 67 66 67 68 68 68 69 70 69 66 63 64 63 51 47 48 52 65 65 65 65 68 69 69 68 67 67 67 68
61 62 61 59 58 57 57 57 58 60 62 64 64 65 65 66 66 66 66 67 67 68 66 64 65 52 45 45 45 45 51 65 67 66 66 69 70 69 69 68 68 67
60 60 61 61 60 58 57 57 57 58 59 61 63 63 64 64 64 64 65 66 67 66 65 64 65 47 44 43 44 43 43 51 70 69 68 68 69 70 70 69 68 67
61 61 61 60 60 59 59 59 59 57 57 59 60 61 62 62 62 63 64 65 65 64 64 64 65 47 43 42 43 42 42 46 67 68 69 70 69 69 68 68 67 68
57 57 58 60 60 60 59 58 58 58 57 56 60 61 62 61 62 62 62 63 64 64 64 63 58 41 42 42 42 42 41 43 61 65 67 68 68 68 68 68 68 67
53 53 56 58 59 59 59 58 56 56 56 56 57 59 59 61 61 63 62 62 62 63 63 64 57 40 41 41 41 41 40 53 60 63 65 67 67 66 67 67 67 67
53 53 53 55 57 58 58 56 56 56 56 58 59 59 59 60 60 61 62 63 62 62 63 62 62 45 40 41 41 40 45 58 61 63 64 64 65 65 65 65 65 66
53 53 53 53 54 55 55 56 57 57 57 57 59 60 60 60 60 61 61 61 61 62 62 62 63 51 40 40 40 39 47 60 62 63 63 63 63 63 64 64 64 55
54 54 54 54 54 54 54 54 54 56 59 61 60 62 61 62 62 62 61 60 60 60 54 57 62 53 39 40 40 39 47 57 61 63 63 63 63 62 61 60 61 57
55 55 55 55 56 55 55 55 56 57 57 58 58 59 59 59 60 60 59 58 58 58 58 59 59 59 47 38 40 40 41 54 60 62 63 62 62 63 61 60 59 61

ECMWFNIL_sfc_temp_078.txt.gz
Temp
70 71 70 73 75 74 73 73 73 74 75 76 77 77 77 77 77 77 77 77 77 77 77 77 77 77 77 77 77 80 80 77 77 77 76 77 77 76 75 75 74 76
69 70 72 74 73 71 73 74 74 74 75 77 78 78 77 76 76 77 77 77 77 77 77 77 77 78 78 79 77 78 78 77 76 79 76 75 76 76 75 74 75 76
71 72 72 72 70 70 71 73 74 75 76 77 77 76 75 76 76 77 77 77 77 76 76 77 77 77 78 78 77 78 77 76 76 77 77 76 76 76 76 76 76 75
73 73 73 73 73 73 73 72 73 75 76 75 76 76 76 76 76 76 76 76 77 76 76 76 76 78 79 78 78 78 77 78 78 77 77 77 77 77 76 76 76 76
74 75 75 76 76 76 75 74 74 75 76 76 76 76 76 75 75 76 76 76 76 76 76 76 76 76 77 77 79 77 77 77 77 78 78 76 77 76 76 76 75 74
76 77 77 77 76 76 74 74 75 76 76 75 75 76 76 76 76 76 76 76 76 76 76 76 76 76 77 77 77 77 77 78 77 78 78 77 77 77 79 76 75 75
75 75 75 77 76 74 74 75 75 76 77 76 77 76 76 76 77 77 78 77 77 77 77 76 76 75 77 77 77 76 77 77 78 79 78 78 77 75 77 77 76 76
74 75 75 76 74 74 75 76 76 76 76 77 75 76 77 77 78 77 78 78 78 78 77 78 77 77 77 77 77 75 75 77 78 78 78 77 76 77 77 77 76 77
74 74 75 74 74 74 75 76 76 76 77 76 76 76 78 78 78 77 78 78 78 77 78 78 78 77 77 77 76 76 76 76 77 77 76 76 76 77 78 78 76 76
74 74 74 73 73 74 74 76 76 76 77 76 77 77 77 77 78 78 78 77 77 78 78 78 77 77 77 78 78 77 77 76 77 77 78 77 77 78 79 78 77 75
72 73 73 73 73 74 74 75 75 76 76 77 76 76 77 77 77 79 78 78 76 78 78 78 78 78 78 78 77 78 78 77 78 78 77 78 77 77 75 78 77 76
69 69 72 73 73 73 73 74 75 75 76 76 77 76 76 76 77 78 78 79 79 80 80 79 80 79 79 79 79 78 77 77 77 77 77 78 77 78 79 78 77 77
67 70 70 70 71 72 73 74 75 75 76 76 76 76 76 76 77 77 78 79 79 79 79 79 79 79 79 78 79 79 78 77 76 76 76 76 77 78 78 78 78 78
64 68 68 65 67 69 71 72 73 74 75 76 76 76 76 77 77 77 77 79 79 79 79 79 78 79 79 79 79 78 77 77 76 75 75 75 76 77 77 77 77 77
64 63 63 65 65 67 68 70 72 73 74 74 75 76 76 78 78 78 77 78 79 78 78 78 77 76 77 78 77 77 77 76 76 76 75 75 75 76 76 76 77 77
65 65 65 63 63 64 67 70 71 72 73 74 75 76 76 77 78 77 78 77 77 77 77 75 75 76 64 54 58 74 77 75 75 75 76 76 75 74 74 75 76 76
65 64 65 63 63 63 65 67 70 72 73 74 74 75 75 75 76 76 76 76 77 76 75 74 74 70 47 49 48 47 68 74 73 73 74 75 75 74 73 73 74 77
66 65 65 64 62 61 62 62 64 69 71 72 72 72 73 75 74 75 75 75 75 76 74 74 74 51 43 45 46 45 50 70 75 75 74 75 75 75 75 75 75 75
68 69 68 66 64 62 59 59 59 63 64 65 66 69 71 71 73 72 73 74 74 75 75 74 74 44 43 42 43 43 43 55 76 76 75 75 75 75 75 76 76 75
67 68 67 69 68 66 64 61 60 60 60 60 63 65 66 67 69 70 72 73 74 74 74 74 73 46 42 41 42 41 41 50 75 74 74 75 75 75 75 76 75 75
66 66 67 67 68 67 66 64 62 60 60 59 60 61 63 65 67 68 69 70 70 72 72 70 64 41 42 41 41 41 40 48 71 72 73 73 72 72 70 69 75 75
64 64 65 65 66 67 66 65 65 66 64 63 61 61 62 64 66 67 67 68 68 69 69 68 60 40 41 41 40 41 40 63 70 70 71 72 73 72 71 74 76 75
63 62 63 66 66 64 62 61 62 64 64 65 64 64 64 65 65 67 68 68 68 68 68 69 64 45 39 40 41 38 48 68 69 71 72 72 72 73 74 74 74 74
66 67 66 65 64 62 62 62 61 61 63 67 67 65 65 66 68 67 66 66 67 67 66 68 62 45 39 40 40 39 48 62 67 69 70 71 72 72 73 74 73 60
65 65 65 65 65 64 64 64 63 63 64 65 66 67 66 67 67 69 67 67 65 64 57 64 62 49 39 40 40 40 49 63 67 69 69 70 71 72 72 72 72 64
64 63 63 64 65 64 65 65 66 67 67 67 68 69 68 67 66 66 65 64 65 65 64 65 64 60 48 38 41 40 40 57 68 69 68 69 70 70 70 71 70 71

ECMWFNIL_sfc_temp_081.txt.gz
Temp
68 65 67 66 66 67 68 68 71 74 76 77 77 77 78 77 79 79 78 78 79 78 78 78 78 78 79 78 78 81 79 76 76 76 77 74 74 75 75 74 73 74
68 67 68 66 66 66 68 68 74 76 76 76 77 78 78 78 78 79 78 78 79 78 78 78 78 79 78 79 79 79 79 77 77 79 76 76 76 76 75 75 74 73
71 69 69 67 66 68 72 74 76 76 76 78 77 76 76 77 78 78 78 78 78 78 77 78 78 79 79 79 79 79 78 78 78 78 77 77 76 76 75 76 76 76
73 72 71 71 70 72 74 75 75 76 76 76 75 76 77 77 78 78 78 78 77 77 77 78 78 79 80 80 79 79 79 79 79 78 77 77 77 76 76 76 76 76
74 73 74 72 74 76 76 75 75 75 75 75 76 76 77 77 77 78 77 77 77 77 77 77 78 78 79 79 80 78 78 78 78 79 78 77 77 77 76 76 76 75
75 75 77 75 76 76 75 76 77 77 76 75 75 77 77 78 78 78 78 77 78 78 77 78 78 78 79 79 79 78 78 79 78 79 79 78 78 78 79 77 76 75
73 75 75 77 76 76 76 77 77 77 77 76 77 76 77 77 78 78 79 78 79 78 78 77 77 77 78 78 78 78 79 79 79 80 80 79 78 77 78 77 76 76
71 74 75 77 76 76 77 78 78 77 77 78 76 77 78 78 79 78 79 79 79 79 79 79 78 78 78 78 78 77 77 79 79 80 79 78 77 78 78 79 77 77
70 67 74 76 75 75 76 78 77 77 78 77 77 77 78 78 78 78 79 80 79 79 79 79 78 78 78 78 77 77 78 78 78 78 77 76 76 77 79 79 78 76
65 67 71 74 75 75 76 76 76 77 77 77 78 77 78 77 78 79 79 79 78 79 79 79 78 78 78 79 78 78 78 78 78 77 78 78 78 79 79 78 77 76
66 65 69 74 75 76 75 76 76 76 76 78 77 77 77 77 78 79 79 79 77 79 79 79 79 79 78 78 78 78 79 78 78 79 78 79 79 79 77 78 77 77
62 63 66 74 74 75 76 76 76 76 77 77 78 77 77 78 77 78 78 79 80 81 80 80 80 80 80 80 79 79 78 78 78 78 78 79 78 79 79 79 78 77
64 65 65 66 71 74 75 77 77 77 78 77 77 77 77 76 77 78 78 79 80 80 80 80 80 80 80 79 80 80 79 78 78 77 78 78 79 79 79 79 79 79
67 66 67 70 70 71 75 76 76 76 77 78 78 77 77 78 78 78 78 80 80 81 81 80 80 80 80 80 80 79 78 78 77 77 77 77 77 78 78 78 79 79
65 67 67 68 71 73 74 75 76 76 77 77 77 77 77 79 79 79 78 80 80 80 81 80 79 79 79 78 79 78 79 77 77 77 77 76 77 77 77 78 78 78
63 63 65 67 68 70 72 73 74 75 75 76 76 77 78 78 79 79 79 79 79 79 80 78 78 75 57 46 52 72 78 77 76 77 76 76 76 76 76 77 77 77
64 64 65 64 65 66 68 71 73 73 74 75 75 76 76 77 78 78 78 78 79 78 77 76 75 67 43 44 44 43 67 77 76 76 77 75 76 75 75 75 76 77
63 65 64 63 64 65 65 65 68 73 73 74 74 74 75 76 76 77 77 77 77 78 75 75 73 48 43 43 43 42 47 66 76 76 75 76 75 76 76 76 76 76
65 63 62 61 61 61 62 63 63 64 66 66 67 71 74 74 75 75 75 76 77 77 75 75 71 42 42 40 41 44 40 54 75 75 75 76 76 76 76 76 75 72
66 65 62 61 60 60 60 60 61 60 60 61 62 65 68 69 70 71 73 74 74 75 74 74 66 44 41 40 42 41 41 49 75 73 74 76 76 76 74 70 66 63
66 66 64 64 64 63 62 61 61 62 63 63 63 64 66 67 67 68 68 70 71 72 73 67 55 40 40 40 41 41 41 47 72 73 74 74 74 74 75 70 72 68
66 66 64 66 67 67 65 64 63 63 63 63 63 64 65 64 64 65 66 68 69 69 68 63 51 39 39 41 40 43 40 61 71 72 72 72 72 73 74 75 74 71
62 63 61 62 64 66 67 66 64 62 62 64 62 62 62 62 64 63 64 65 67 68 68 62 57 43 39 40 42 40 46 67 71 72 72 71 72 73 74 74 74 71
67 64 62 61 63 65 64 65 65 65 66 67 65 64 62 64 66 66 65 65 65 64 64 61 57 46 40 41 41 41 45 62 69 71 71 71 72 72 73 73 72 60
66 67 66 65 64 62 63 63 65 65 65 62 61 62 65 66 64 63 62 62 62 63 59 60 56 49 40 42 40 40 48 63 67 69 69 69 70 70 69 68 69 63
67 68 68 68 68 66 64 60 59 60 62 62 61 61 59 59 60 60 59 59 60 62 63 64 62 59 50 38 41 41 40 51 65 67 68 69 69 67 68 67 65 63

ECMWFNIL_sfc_temp_084.txt.gz
Temp
69 69 68 68 68 69 68 67 68 69 69 70 70 71 72 71 73 73 73 73 73 72 73 73 72 72 74 72 72 74 73 71 69 69 67 69 69 68 69 68 68 67
70 69 69 68 68 67 68 68 67 68 70 71 72 72 72 73 73 73 73 72 73 73 73 73 72 72 72 72 72 71 70 71 71 72 68 69 68 68 68 69 69 68
69 69 68 68 66 67 66 66 66 67 70 72 73 72 72 73 73 73 72 72 72 72 73 72 72 72 73 74 73 72 71 70 70 72 71 70 67 68 67 68 69 68
69 69 69 68 67 67 66 66 67 68 71 71 71 72 73 73 72 72 72 73 71 71 72 72 73 73 74 74 73 71 72 71 71 71 70 70 70 70 69 67 69 69
69 69 69 68 68 67 66 67 68 70 71 71 71 71 72 71 72 72 72 71 71 71 71 72 73 72 72 73 73 71 71 70 70 71 70 69 70 71 70 69 69 69
68 69 69 68 67 66 65 66 71 71 71 71 70 72 71 72 72 72 71 71 71 71 71 72 72 72 73 72 71 71 71 72 71 72 72 70 70 71 74 70 68 69
66 68 68 68 67 67 64 67 70 71 71 71 72 71 72 72 73 73 73 72 72 72 72 71 71 72 72 72 70 72 71 71 72 73 73 71 70 70 72 71 70 70
69 69 69 70 68 67 68 70 72 71 71 72 72 72 73 74 74 73 72 73 73 73 72 72 72 71 72 72 71 70 69 74 73 74 71 71 70 70 70 73 70 69
68 69 70 69 69 69 70 73 72 72 73 72 72 72 73 73 73 72 73 73 73 72 72 71 72 71 72 71 70 70 71 72 71 70 69 69 69 69 72 72 69 69
67 67 68 70 70 71 72 72 73 72 73 72 73 72 74 72 73 74 73 72 72 72 72 71 72 71 73 72 72 71 71 71 70 69 71 71 70 71 73 71 69 68
63 64 66 68 70 71 71 72 72 72 72 74 72 72 73 72 72 74 73 73 72 73 73 72 72 72 71 71 71 72 72 70 70 71 71 71 71 71 72 70 69 68
63 64 64 66 69 70 71 71 71 72 72 72 73 73 72 72 72 72 74 74 74 74 73 73 73 72 72 72 72 72 70 70 71 71 71 70 71 71 71 70 69 69
62 63 63 63 66 69 70 71 72 71 72 72 72 72 72 71 72 72 72 73 73 73 73 73 73 73 71 71 72 72 71 71 70 71 70 69 72 70 70 70 70 70
63 63 64 65 67 69 70 71 71 71 71 72 72 71 71 73 73 72 72 72 73 73 73 72 71 72 73 72 72 71 70 70 70 70 69 71 70 70 70 71 70 70
64 65 66 66 67 69 70 70 70 71 72 72 71 71 72 73 73 73 72 73 73 72 73 72 71 66 65 67 70 72 71 69 70 71 69 70 71 69 70 70 70 70
64 65 66 67 68 68 69 69 69 71 70 70 71 71 71 72 73 72 72 72 72 72 71 70 66 64 54 50 52 66 71 71 70 69 70 69 68 68 68 70 71 67
64 64 65 65 64 65 66 69 69 69 69 70 70 70 71 71 71 71 71 72 73 71 70 67 63 55 43 43 43 49 66 68 69 68 68 68 67 66 67 68 66 64
63 63 62 61 61 63 64 65 67 67 68 69 68 69 71 71 71 71 72 72 71 71 68 64 56 43 40 41 41 41 47 64 68 68 67 65 67 67 65 64 63 62
61 61 60 59 59 60 61 63 63 63 63 64 64 65 67 68 70 70 70 72 70 70 66 60 53 41 41 41 41 41 41 55 70 67 67 67 66 64 62 62 61 61
60 59 58 58 58 58 58 59 59 59 60 61 62 63 64 64 65 65 66 67 68 65 60 56 51 42 40 41 41 41 39 49 68 67 67 65 63 62 61 59 61 62
60 59 58 58 59 59 59 58 59 59 59 59 60 60 61 61 62 63 64 65 65 63 59 53 48 40 41 41 41 40 39 48 65 67 67 66 63 63 62 62 63 65
61 60 59 60 60 60 60 60 60 61 61 61 61 61 62 62 63 63 63 63 63 61 58 55 48 39 40 40 40 40 41 59 65 66 67 67 67 67 66 66 65 64
60 60 60 60 61 61 61 61 61 61 61 62 61 61 61 61 62 61 62 61 61 59 57 55 52 42 40 40 40 39 47 61 64 66 66 66 67 67 68 66 65 65
59 60 60 61 62 62 62 61 61 60 61 62 61 60 60 62 63 62 61 61 60 59 58 55 52 44 40 40 40 39 45 57 62 64 64 64 64 65 66 64 61 60
59 59 59 59 58 59 60 59 60 62 61 60 60 61 61 61 61 60 59 59 60 59 57 56 54 49 41 40 40 40 45 53 59 62 62 62 63 63 63 64 61 58
63 61 61 61 61 61 61 58 58 59 61 61 60 61 60 60 60 60 59 59 59 60 60 59 55 52 45 40 41 40 41 51 57 60 58 59 62 62 63 62 60 59

ECMWFNIL_sfc_temp_087.txt.gz
Temp
63 63 63 63 63 64 64 63 63 64 64 64 64 65 65 66 68 68 67 67 67 66 66 66 67 67 68 66 65 67 66 66 65 65 65 64 62 63 64 63 62 62
63 63 64 64 63 64 64 64 64 64 64 64 65 66 68 68 67 67 67 67 67 67 66 66 66 66 67 66 66 65 64 65 65 67 64 64 62 63 63 62 61 62
64 63 63 64 64 64 63 63 64 65 65 65 66 68 67 67 66 67 67 67 67 67 66 66 65 65 65 64 66 65 65 64 64 64 64 64 63 64 63 62 62 62
64 65 64 64 64 63 63 63 63 64 64 65 66 67 68 68 67 66 66 68 65 65 66 65 65 65 65 67 66 64 65 64 64 64 63 62 62 63 63 63 63 63
64 65 64 64 64 63 63 63 64 63 65 67 67 67 67 66 65 65 66 64 63 64 65 64 64 64 64 66 65 64 65 64 64 64 63 62 62 63 63 63 63 62
64 65 65 64 64 63 63 64 64 65 66 67 67 67 67 66 66 65 65 64 64 66 65 63 65 64 64 65 65 66 66 65 64 64 64 63 63 63 67 64 63 63
64 64 64 64 64 63 63 64 64 66 67 68 68 66 66 66 66 66 65 64 64 64 64 64 63 63 64 65 65 63 63 64 63 64 65 63 63 63 65 65 64 64
64 64 64 64 63 63 63 64 65 66 66 68 67 66 67 67 67 67 66 65 65 63 63 63 62 62 63 64 63 62 62 66 64 64 64 63 63 63 62 66 63 64
64 64 64 63 63 63 64 65 65 65 67 66 66 66 66 68 68 67 66 65 64 64 64 62 63 63 61 62 62 62 61 61 63 64 63 62 63 63 63 63 64 64
63 64 64 63 63 63 64 64 65 65 65 65 66 66 66 68 69 66 64 64 64 64 64 62 63 63 63 64 63 61 61 63 62 63 64 64 62 63 64 64 63 62
62 63 63 63 63 63 63 64 65 65 64 65 65 64 65 67 67 63 64 64 64 64 63 63 63 62 63 63 62 60 62 63 64 63 62 61 63 65 66 63 61 61
61 62 62 63 64 64 64 66 66 65 64 64 64 64 66 67 64 64 66 65 64 64 64 65 63 62 64 62 61 61 62 60 60 61 62 64 64 65 64 63 62 60
60 61 61 62 63 64 65 66 65 65 66 65 64 66 66 64 62 64 64 64 63 64 65 65 63 64 63 61 62 62 61 62 62 61 61 62 62 63 62 62 62 61
59 60 61 62 63 65 65 65 65 65 65 64 66 66 64 63 64 65 64 63 64 65 62 61 61 61 62 62 62 63 62 61 61 61 62 61 61 62 62 61 61 60
59 60 61 62 64 65 65 65 65 64 64 64 65 65 65 64 64 63 63 63 63 62 61 61 59 58 58 60 62 63 62 62 62 62 61 61 62 62 61 61 61 61
59 59 60 61 63 64 64 63 63 64 64 63 64 64 64 64 63 62 61 62 62 61 60 58 56 54 51 51 57 62 61 63 63 62 62 61 61 60 60 60 60 59
59 60 60 60 60 61 61 62 63 64 64 64 65 63 63 63 63 62 60 62 61 59 56 53 49 48 44 45 48 56 63 62 61 61 61 60 59 59 59 59 58 59
58 58 58 58 60 60 60 61 61 61 61 61 61 61 61 62 63 61 61 61 59 56 53 50 46 43 41 43 44 49 56 63 62 62 60 59 59 58 58 58 59 59
58 57 57 57 57 58 59 59 59 60 60 60 60 60 61 61 60 61 61 59 57 55 52 50 47 41 41 42 42 44 50 59 62 61 59 59 59 58 58 57 58 60
58 57 57 57 57 57 58 58 58 57 58 58 59 60 60 60 60 59 58 57 56 54 51 48 47 42 41 42 42 42 45 55 62 61 60 60 59 58 57 56 57 56
57 57 57 57 57 57 57 57 57 57 58 58 58 58 58 58 58 58 57 56 55 54 51 47 45 41 41 41 42 44 47 53 61 61 61 59 58 57 56 56 56 57
56 56 57 57 57 57 57 57 57 58 58 57 57 58 58 58 58 59 58 57 56 54 52 49 45 40 41 41 43 45 50 58 59 59 58 58 57 57 56 56 56 56
57 56 56 56 57 57 57 57 57 57 57 57 57 57 57 57 57 57 57 56 55 54 52 49 47 41 40 41 42 45 52 59 60 60 60 61 61 61 59 59 58 57
57 57 56 56 56 57 57 56 56 56 56 57 57 57 57 57 58 57 57 56 55 54 52 49 47 42 40 41 42 44 51 57 58 59 58 59 59 59 58 56 53 53
55 57 56 56 56 56 56 55 55 57 57 57 57 57 57 57 57 56 56 55 55 54 53 51 48 44 41 41 41 43 51 56 57 57 56 56 57 57 56 54 52 48
52 54 56 56 56 55 54 55 55 56 57 57 57 57 57 56 56 56 56 55 55 55 53 51 48 46 43 41 42 44 47 55 55 55 54 54 56 55 53 52 51 49

ECMWFNIL_sfc_temp_090.txt.gz
Temp
62 62 62 62 61 61 61 61 62 62 62 62 62 61 62 62 63 62 62 62 63 63 63 63 64 64 65 64 64 65 64 64 63 63 63 62 61 62 62 61 60 61
62 62 62 62 61 61 61 62 62 62 62 62 62 62 62 63 63 63 63 63 64 64 64 64 64 64 64 63 63 63 62 63 63 65 63 63 61 62 62 61 61 59
62 62 62 61 61 62 62 62 63 62 63 63 63 63 63 64 63 63 63 64 64 64 64 65 65 64 64 63 63 63 63 62 63 62 63 62 61 62 61 61 60 60
62 63 63 62 62 62 63 62 62 62 63 63 63 64 65 65 64 63 63 66 64 63 63 64 64 64 64 63 63 62 62 62 62 62 61 60 61 62 61 61 60 60
62 62 62 63 63 63 62 63 62 62 63 64 64 64 64 63 63 63 64 63 64 63 63 64 63 63 63 63 63 62 61 61 60 61 61 60 60 62 61 61 60 60
62 63 63 63 63 63 62 63 63 63 64 63 64 64 65 65 65 65 64 64 63 63 62 62 63 62 63 62 62 62 61 61 61 61 61 61 60 60 63 62 61 60
63 63 63 63 63 63 62 62 62 63 65 65 65 64 65 65 66 65 65 64 64 63 63 62 63 62 62 63 62 61 61 61 60 60 61 60 60 60 62 62 61 61
63 63 63 63 62 61 62 61 62 62 61 62 63 64 66 66 66 65 64 64 64 63 62 63 63 64 64 64 64 62 60 62 61 60 60 59 59 60 59 63 61 61
63 63 62 62 61 61 62 62 62 63 63 63 63 63 65 67 66 65 65 64 63 62 62 62 63 63 63 63 62 61 60 60 61 60 60 59 59 59 60 61 61 61
62 62 62 61 62 62 62 62 62 62 63 64 62 62 64 66 66 65 64 64 63 62 61 62 62 62 62 63 61 60 61 61 61 61 60 60 59 59 60 60 61 60
61 61 61 61 61 61 62 62 61 61 64 65 64 65 66 65 64 64 64 64 63 63 62 62 62 63 62 61 60 60 61 61 61 61 60 59 60 60 63 60 59 59
59 59 60 61 61 62 62 62 62 63 64 62 65 66 65 65 63 64 65 64 64 63 63 62 62 63 63 61 60 59 59 59 59 60 60 60 59 59 59 59 60 58
59 59 59 60 61 61 62 62 63 63 63 63 63 65 65 63 63 63 63 64 63 63 63 61 61 61 61 59 59 58 59 59 59 59 58 58 57 57 57 57 58 57
59 59 59 60 60 61 63 63 63 62 62 62 63 64 63 63 63 64 62 63 62 61 59 58 58 59 58 58 59 59 59 58 59 59 58 58 57 57 57 57 57 56
57 57 59 60 60 60 61 63 63 62 62 62 62 63 63 64 63 62 60 60 59 59 59 58 57 56 57 59 58 58 59 59 60 60 59 58 58 58 57 58 58 58
57 58 58 59 59 60 60 60 62 62 63 62 63 63 62 61 60 60 61 59 58 57 57 55 53 52 53 56 57 60 60 60 60 59 59 59 59 58 57 58 58 58
57 58 59 59 59 59 59 59 61 62 62 62 62 62 61 60 60 60 59 59 58 56 54 52 51 50 49 48 50 54 60 59 58 57 58 58 59 58 57 57 56 56
57 57 58 58 58 59 59 59 59 61 61 60 60 60 59 59 59 58 57 57 55 54 52 51 49 46 47 48 50 51 54 60 59 58 58 57 57 57 56 56 57 57
57 57 56 56 56 57 57 57 59 58 58 58 58 58 59 58 57 57 56 56 55 53 50 49 47 42 44 48 49 49 51 57 60 59 58 57 57 57 56 56 56 56
56 57 56 56 57 56 56 57 57 56 56 57 58 58 58 56 56 55 55 54 53 52 49 48 48 43 43 45 46 46 48 53 59 59 58 58 57 56 56 54 53 55
57 57 56 57 57 57 57 56 56 56 56 56 56 56 56 55 55 54 53 53 52 51 49 47 47 41 43 46 47 48 49 52 59 58 57 56 55 55 54 54 55 56
55 55 56 57 57 57 57 56 55 55 56 55 55 55 54 54 54 54 53 52 52 52 51 49 45 40 43 45 46 48 50 57 58 58 56 56 56 57 56 56 56 56
55 55 55 56 56 56 55 55 56 55 55 56 56 55 55 54 54 53 54 53 52 51 50 47 47 42 41 44 45 47 52 59 58 57 57 56 55 54 53 53 54 54
55 55 55 55 55 56 55 55 55 55 55 56 56 55 54 54 54 53 53 52 52 50 50 47 47 43 41 43 45 48 53 58 57 57 56 55 53 53 52 51 52 54
51 54 55 55 54 54 55 55 55 55 55 56 56 55 54 54 53 52 52 52 51 50 51 49 47 46 42 43 44 47 53 56 57 56 55 53 53 51 51 50 49 46
50 51 51 53 54 54 55 54 55 56 56 56 55 55 54 54 54 53 52 50 50 50 50 49 47 46 44 42 44 45 48 55 55 54 53 52 53 53 51 49 48 47

ECMWFNIL_sfc_temp_093.txt.gz
Temp
61 61 62 62 62 62 62 62 62 63 63 63 62 61 61 61 61 62 62 62 62 62 62 62 62 63 63 63 63 63 62 62 61 61 61 61 60 60 61 59 58 59
60 61 61 61 61 61 62 62 62 62 63 63 62 61 61 61 61 62 61 61 62 61 61 61 61 62 62 62 62 62 61 61 61 62 61 60 60 60 60 59 59 57
61 61 61 61 61 61 61 61 61 62 62 63 62 62 62 61 61 61 61 61 61 61 61 61 61 61 62 62 62 62 62 61 61 60 61 61 59 60 59 59 58 58
61 61 62 62 61 61 61 61 61 61 62 62 62 62 62 62 61 61 61 63 61 60 60 61 61 61 61 61 61 60 61 61 61 61 60 58 59 60 59 58 58 58
61 61 61 62 62 61 61 61 61 61 61 62 62 62 62 61 61 61 61 61 60 59 60 61 61 61 61 61 61 60 59 59 58 60 60 58 57 59 58 59 58 58
62 62 62 62 62 61 61 61 62 62 61 60 61 62 62 62 61 61 61 61 59 59 60 60 60 60 61 60 60 60 60 60 58 59 59 59 58 58 61 59 59 58
61 62 62 62 61 62 61 62 61 60 60 61 61 60 61 61 61 61 61 61 60 60 60 60 60 59 59 60 60 59 58 59 58 59 59 57 58 57 59 59 59 59
61 62 62 62 62 61 61 60 60 61 61 61 61 61 61 61 61 62 62 62 61 60 60 60 60 60 59 60 59 58 57 59 59 58 58 57 57 58 57 59 57 58
61 61 61 62 62 61 60 59 61 62 62 61 61 60 61 62 61 62 63 63 61 60 59 58 59 59 59 59 59 58 58 58 58 59 59 58 58 57 58 58 57 57
60 61 61 61 61 60 59 60 60 60 61 62 61 60 60 61 62 62 63 62 61 60 59 58 59 59 59 59 59 58 58 58 57 57 57 58 58 58 58 58 57 57
59 60 60 60 59 59 60 60 60 60 61 61 60 60 61 61 62 61 62 61 61 61 59 59 59 60 59 58 57 58 59 59 58 57 57 57 58 58 60 58 58 58
59 59 59 60 59 59 60 60 60 60 60 60 61 61 61 62 62 61 62 61 61 60 60 60 60 60 60 59 58 57 58 59 59 58 57 57 56 58 58 59 58 58
58 59 59 58 58 59 60 60 60 60 60 61 61 61 61 61 61 61 59 61 59 59 60 60 60 60 59 58 57 57 58 58 58 57 57 56 55 56 57 57 59 58
58 58 58 58 59 60 60 60 60 59 60 61 61 60 61 61 60 60 58 59 58 57 57 58 60 58 57 57 57 58 58 58 58 57 56 55 54 54 55 55 55 55
57 58 59 58 59 60 60 59 60 60 61 60 61 61 61 61 59 58 58 57 56 56 56 56 57 56 57 58 57 58 59 59 58 57 56 55 54 54 54 54 54 54
57 58 59 58 59 59 58 59 59 60 61 60 60 60 58 58 57 58 57 56 56 54 54 54 53 53 56 54 56 60 59 59 58 57 56 56 56 55 55 55 55 54
57 57 58 58 58 57 57 58 58 57 59 60 58 57 58 58 58 57 56 55 55 54 52 51 50 52 49 47 49 53 59 59 58 57 56 56 56 56 55 55 54 54
56 57 57 57 58 57 57 57 57 57 58 57 56 56 56 57 57 56 55 54 53 52 50 49 49 50 45 47 48 50 54 59 58 58 57 56 57 56 55 55 55 55
56 57 56 56 57 57 57 57 57 56 55 56 56 55 56 56 55 55 54 54 53 51 49 49 48 46 45 47 47 48 50 55 57 57 57 56 56 55 54 54 54 55
55 55 55 55 55 56 56 55 55 54 54 54 55 55 55 54 54 54 53 53 52 51 49 48 48 46 46 46 47 47 49 53 58 57 56 55 54 53 53 52 53 54
55 55 55 56 56 55 55 55 53 53 54 54 55 54 54 53 53 52 52 52 51 50 50 48 47 44 44 45 46 47 48 51 57 57 55 54 54 54 54 55 55 54
55 54 55 55 55 55 55 54 53 53 53 53 52 52 51 52 51 52 51 51 50 50 50 48 45 44 44 45 46 46 49 56 55 55 55 54 54 54 54 55 54 53
55 54 54 54 55 55 54 54 53 52 52 53 52 51 51 51 51 51 51 51 50 49 49 48 46 42 43 45 45 47 51 56 55 54 53 52 52 52 53 53 52 52
53 55 54 53 54 54 54 54 54 53 53 52 52 52 51 51 51 50 50 50 49 49 48 46 46 43 40 44 45 48 51 55 54 53 52 51 50 51 51 51 53 55
50 52 54 54 53 53 54 54 54 53 53 52 52 52 51 51 50 50 49 48 49 49 50 48 46 45 42 43 45 48 53 56 55 53 51 50 49 48 49 49 47 46
49 49 50 52 53 53 54 54 54 54 54 53 52 51 51 50 50 49 48 47 47 47 46 46 46 45 42 41 44 47 49 55 54 53 50 50 50 50 49 47 46 46

ECMWFNIL_sfc_temp_099.txt.gz
Temp
66 66 66 65 65 66 67 66 67 67 67 68 67 67 67 68 68 68 69 69 70 70 71 72 72 72 72 73 72 74 74 73 72 72 71 71 70 69 69 70 71 72
64 64 64 64 64 64 64 64 66 66 67 68 67 66 67 68 68 68 68 69 70 71 72 72 72 72 72 73 72 72 73 72 71 73 70 69 69 68 69 70 70 72
63 63 64 63 63 64 65 65 65 66 65 66 65 65 65 66 66 68 69 70 70 70 71 71 71 71 72 73 72 72 73 72 71 72 71 71 71 68 68 70 71 71
66 66 66 66 65 65 64 62 63 64 64 64 63 64 65 65 65 66 67 69 70 70 70 70 70 70 71 73 72 72 72 72 73 72 71 71 72 72 70 71 71 71
67 67 67 67 67 64 63 62 62 63 64 65 64 65 65 65 65 66 66 68 69 70 70 70 70 66 68 68 71 71 71 71 72 71 72 71 72 71 71 71 71 70
67 68 68 67 65 62 62 62 62 64 65 64 65 66 66 66 66 65 66 68 68 70 70 71 69 66 66 65 66 68 68 71 71 71 72 71 71 72 73 71 70 71
65 65 65 65 64 64 63 62 63 64 65 65 66 66 67 66 66 66 65 67 66 68 71 71 70 66 66 64 64 65 66 71 72 73 72 72 72 70 71 70 71 71
64 65 67 67 66 64 63 63 64 64 66 66 65 67 67 67 67 66 66 64 65 66 66 68 71 70 67 66 65 66 69 72 72 72 72 72 71 71 69 70 70 70
63 63 64 65 64 63 63 64 64 65 67 66 66 67 68 68 68 68 67 67 67 67 67 68 72 72 69 67 67 68 71 71 71 72 71 71 71 71 72 72 71 71
62 63 64 63 62 63 64 66 66 66 66 67 68 68 68 68 68 68 68 68 69 70 70 72 72 72 72 72 72 72 72 72 72 72 72 72 72 73 73 72 72 70
62 63 63 63 63 64 65 66 67 67 66 67 67 67 68 68 67 69 68 68 68 69 71 71 71 72 72 71 72 72 73 72 72 72 72 72 72 73 71 73 72 71
62 63 63 64 64 65 65 65 66 67 67 67 68 68 67 67 67 67 68 68 69 71 71 71 71 72 73 72 72 72 72 72 72 71 72 73 72 72 73 73 72 72
62 62 63 64 64 65 65 65 65 66 66 66 67 68 67 67 68 68 68 69 70 70 70 70 70 71 72 72 72 72 71 71 70 71 71 71 71 72 73 73 73 73
61 62 63 63 64 64 64 64 65 65 66 67 67 67 67 68 68 68 66 67 66 65 66 68 69 70 71 71 71 71 71 71 71 70 70 70 69 71 71 72 72 72
60 61 62 62 62 63 63 63 64 65 65 66 67 67 67 68 67 65 64 63 64 65 67 68 68 68 68 69 69 70 71 70 70 71 70 69 69 69 69 70 70 70
61 61 62 62 61 61 63 63 63 63 64 66 66 65 66 66 66 64 64 62 63 64 66 67 68 67 62 57 60 70 70 69 69 70 69 68 67 66 67 68 68 68
61 61 62 61 60 60 61 63 64 63 63 64 64 63 64 64 64 63 63 63 65 65 66 66 66 66 51 49 51 55 66 68 69 69 69 68 67 66 66 66 67 67
60 61 61 60 60 60 60 61 62 61 61 62 62 61 61 63 63 64 63 61 61 63 63 64 66 53 45 46 48 50 57 69 70 69 69 69 69 67 67 67 66 66
59 59 60 59 59 59 60 61 61 60 60 59 58 59 61 61 61 61 61 59 59 61 62 63 63 44 44 45 46 47 51 62 71 70 69 69 69 69 68 67 67 66
59 59 59 58 58 58 57 58 58 57 57 57 57 58 59 59 59 58 58 59 60 62 62 61 61 46 43 44 45 46 48 58 71 69 69 69 69 68 67 67 67 66
56 58 57 57 57 56 55 55 56 56 55 55 56 56 56 56 59 58 58 59 60 61 60 58 54 42 42 43 44 46 48 57 69 67 67 66 66 65 65 66 67 67
54 56 57 57 56 54 53 53 53 53 53 53 53 52 53 54 56 59 60 60 59 59 59 57 52 41 42 43 44 46 50 66 67 66 65 65 64 63 64 65 66 66
54 55 56 57 57 55 53 52 52 52 52 53 52 52 51 51 53 57 59 60 59 60 59 57 54 44 41 43 44 47 56 67 66 65 64 62 61 62 64 64 64 65
52 53 54 56 56 56 54 52 51 51 51 52 51 51 50 51 51 52 54 56 57 57 58 56 53 46 42 43 45 49 57 66 65 63 61 61 60 60 60 59 55 50
51 52 53 54 54 54 54 52 51 51 51 51 50 50 49 50 50 50 50 52 53 53 52 54 54 49 42 42 44 48 59 65 64 62 60 59 59 58 58 57 53 48
50 50 51 51 54 55 54 53 53 51 50 50 49 49 49 49 49 49 49 49 51 52 52 54 53 51 46 42 44 45 48 63 64 61 59 58 59 59 55 52 51 49

ECMWFNIL_sfc_temp_102.txt.gz
Temp
73 73 73 73 74 74 70 69 70 72 72 71 71 72 70 69 70 70 70 70 71 71 72 74 71 67 68 69 71 70 71 71 70 69 68 70 68 70 74 75 74 73
71 71 70 69 69 71 69 68 69 71 72 71 71 72 71 71 71 71 71 72 70 69 72 71 69 69 69 68 69 70 71 69 66 66 68 69 68 74 73 74 74 74
70 69 69 68 68 68 68 69 70 71 72 73 72 72 71 71 71 72 72 71 69 68 69 72 71 69 72 69 68 70 69 67 66 67 69 72 73 74 75 73 70 70
70 71 71 71 71 69 69 70 70 71 71 72 72 73 72 72 72 73 72 72 71 70 70 73 74 74 76 74 72 66 68 67 68 68 68 67 71 75 74 74 72 72
71 72 73 73 72 71 71 71 72 71 70 72 73 73 72 71 71 72 72 72 70 70 69 69 72 73 74 75 75 70 68 67 68 69 71 71 69 73 73 72 68 69
73 73 70 69 72 72 71 71 72 73 72 70 71 72 72 72 71 72 73 72 71 69 66 70 71 72 74 73 71 66 67 67 72 74 73 70 70 67 71 73 74 72
71 71 70 72 72 72 71 70 72 72 72 71 71 70 72 72 71 72 74 73 72 69 72 69 67 68 71 71 72 72 71 72 76 76 76 70 69 70 76 76 74 73
71 71 72 71 70 70 70 70 71 72 72 71 70 72 72 71 72 72 73 74 74 73 72 73 70 71 70 71 71 71 72 74 75 76 75 72 71 73 77 77 76 75
69 69 69 68 68 67 65 69 70 71 72 71 71 72 72 72 72 73 73 75 74 73 74 72 73 74 72 70 70 71 73 73 73 72 67 71 73 76 78 78 77 76
66 67 66 67 66 65 67 69 70 70 72 71 72 72 72 72 73 74 74 73 74 74 73 73 72 72 70 70 71 72 74 74 73 70 67 71 73 76 78 78 76 76
65 65 65 65 65 65 66 68 68 69 71 73 73 72 72 72 73 74 74 74 71 73 74 72 72 71 70 69 71 73 74 73 73 71 69 73 72 72 76 78 77 76
64 64 65 66 66 65 65 66 68 70 71 71 72 71 71 71 72 72 73 74 74 73 75 75 73 69 69 70 72 71 71 71 70 69 67 70 78 78 78 78 77 77
64 65 65 66 66 67 68 67 67 69 71 71 70 70 70 70 70 71 70 73 72 69 69 72 72 71 67 68 70 69 69 70 70 71 73 77 78 78 79 78 78 78
65 65 65 65 66 67 68 68 68 69 69 71 70 68 68 68 70 71 70 68 71 73 70 71 72 68 68 68 68 68 69 70 73 75 76 77 76 78 78 78 78 78
65 66 66 66 66 66 66 67 67 68 69 69 69 69 66 68 68 67 72 72 71 71 73 73 71 69 67 66 68 67 67 74 76 76 76 75 76 77 77 78 77 77
66 66 67 67 66 65 66 66 65 64 64 65 67 68 67 67 67 67 67 69 70 71 72 71 70 69 64 58 62 71 75 76 75 75 76 76 75 75 75 76 77 76
65 66 67 67 67 67 66 65 64 64 64 64 65 64 63 64 63 64 65 65 67 68 68 70 69 68 55 52 54 59 72 75 75 75 75 75 75 74 74 74 75 74
65 66 66 66 68 68 67 65 64 64 64 64 64 63 63 64 64 63 64 64 64 66 66 68 71 56 49 48 50 54 61 74 75 75 75 74 74 74 74 74 73 72
65 66 65 66 67 67 66 65 63 62 62 63 63 62 63 64 64 63 61 62 62 63 65 67 66 45 47 46 48 51 54 65 77 76 75 74 74 74 75 74 73 72
65 65 64 64 65 64 63 63 62 59 58 60 61 62 60 60 61 60 60 61 62 63 62 64 60 46 45 45 47 48 50 58 79 75 76 75 74 74 74 74 74 73
64 64 64 64 63 62 60 59 58 57 58 58 57 56 57 57 58 57 58 58 60 61 61 58 53 41 43 43 45 47 48 57 76 74 75 74 74 74 74 74 74 73
62 63 64 65 63 62 59 58 58 58 56 56 55 55 56 56 57 57 57 58 59 59 58 56 51 40 42 43 44 47 49 73 74 75 74 73 73 74 74 74 75 74
61 62 62 63 62 61 60 58 58 58 56 55 54 54 54 54 54 55 56 57 58 59 57 55 52 43 41 43 46 46 58 75 74 74 73 71 71 71 71 70 68 71
60 61 61 61 60 59 58 58 58 58 57 56 53 52 51 52 54 54 54 54 54 56 57 55 53 46 41 42 43 40 54 73 74 72 71 70 69 68 67 65 60 47
59 59 59 59 59 59 58 58 57 57 58 58 55 53 51 52 53 53 52 53 55 56 54 56 57 51 42 42 42 42 60 74 72 71 67 67 68 67 66 66 63 54
57 57 57 58 58 58 59 59 59 58 57 56 55 54 52 52 51 52 51 51 54 55 55 56 56 54 48 41 43 46 47 70 71 70 66 64 67 67 64 62 61 59

ECMWFNIL_sfc_temp_105.txt.gz
Temp
75 76 75 75 75 73 70 68 71 73 73 74 74 76 77 76 76 74 74 74 73 72 70 70 69 68 70 70 68 68 70 72 72 67 67 67 67 69 71 72 70 68
75 75 76 75 75 74 74 73 73 73 74 72 74 75 77 77 77 75 73 73 73 70 70 70 70 70 70 70 70 67 69 72 71 73 70 69 68 68 70 70 67 67
74 74 74 74 74 74 74 74 74 73 70 73 73 72 72 74 75 75 74 74 74 73 71 71 70 70 70 70 70 69 69 70 71 72 72 71 70 70 69 68 66 66
74 74 75 75 75 75 74 74 72 70 72 72 72 73 71 72 75 74 73 74 73 73 72 72 71 71 71 70 70 70 70 70 71 71 70 71 70 69 68 66 66 66
74 75 76 76 76 75 73 72 71 70 71 71 70 72 72 72 72 74 74 73 73 74 72 72 73 71 69 69 69 69 69 70 71 71 69 69 70 68 68 66 65 64
75 77 77 76 76 75 72 71 69 67 67 66 66 71 71 70 74 73 74 72 73 69 71 73 73 72 70 67 66 66 68 69 70 71 70 70 70 70 69 67 67 67
73 74 75 76 75 73 71 70 67 67 68 68 69 71 73 73 75 75 75 74 75 69 71 71 71 71 70 67 65 66 68 69 71 72 71 70 68 69 69 68 69 67
72 73 74 74 72 71 70 68 66 66 67 68 69 69 74 76 76 76 76 76 73 73 71 73 73 74 71 69 66 67 70 72 73 72 71 69 67 68 70 69 67 70
72 72 72 71 71 70 69 68 68 68 69 68 68 68 71 74 75 75 75 74 72 70 70 72 73 70 72 70 69 70 71 71 72 70 68 67 66 67 71 71 69 71
70 70 70 70 69 69 68 68 68 67 66 65 67 67 66 71 76 73 75 72 71 73 75 74 75 71 69 72 73 72 72 70 68 66 66 67 67 69 70 71 72 71
69 70 70 69 69 69 68 69 68 66 66 68 69 68 71 71 69 75 71 69 67 68 72 70 70 69 70 70 70 69 71 67 64 67 67 68 70 70 69 68 70 70
68 68 69 69 69 69 69 68 67 67 68 69 70 71 71 68 67 67 69 68 68 69 69 70 66 67 69 70 68 67 66 67 65 67 68 72 72 72 71 71 71 73
66 67 67 68 68 68 69 69 70 68 68 69 70 68 68 67 66 67 67 67 67 67 66 68 71 73 74 74 74 73 70 66 67 70 72 72 71 71 71 71 69 71
67 68 68 68 68 69 69 70 69 70 70 68 66 66 65 66 66 66 67 68 67 66 66 68 71 71 71 74 75 74 73 73 70 71 72 71 70 69 67 67 69 73
67 68 69 69 69 69 69 70 69 70 69 71 70 69 66 66 68 69 69 68 68 67 66 68 68 70 70 71 71 72 72 72 72 72 71 69 68 66 66 66 67 70
67 68 69 69 70 69 69 69 70 69 70 70 69 67 65 66 68 67 67 67 66 66 67 67 66 68 65 59 62 69 70 70 68 68 69 67 65 66 67 66 71 70
67 68 68 68 69 69 69 69 69 68 68 69 69 66 65 66 66 66 65 65 65 66 65 65 66 66 52 51 52 56 66 67 67 67 66 65 65 66 66 67 70 71
66 67 67 67 68 68 69 68 67 67 66 66 67 67 66 65 65 65 65 66 65 64 64 65 66 57 48 48 49 50 58 68 67 65 64 64 65 65 68 70 70 71
66 66 67 66 66 67 67 66 66 65 64 63 62 62 65 64 65 66 65 65 64 64 64 64 61 44 45 46 48 48 50 61 66 65 64 64 69 69 70 71 71 71
65 66 66 66 66 66 66 65 64 62 62 61 61 61 62 62 61 61 62 63 63 62 60 58 54 44 41 42 44 46 49 56 72 67 68 70 70 73 74 71 70 73
64 64 64 64 65 65 64 63 62 62 61 61 60 59 59 58 58 60 60 59 60 59 58 55 51 41 41 41 42 43 44 52 74 74 74 72 72 74 71 72 70 70
62 62 63 64 64 64 63 62 62 61 60 60 59 59 58 58 57 57 58 58 58 58 55 53 50 41 41 41 42 43 43 66 73 73 71 70 71 69 64 67 70 67
62 61 61 63 63 63 62 60 60 60 60 60 59 58 56 55 54 55 56 56 56 56 55 53 51 43 40 40 41 39 53 70 70 69 72 73 69 67 67 63 61 68
62 61 61 61 61 61 60 60 59 60 60 60 58 56 53 54 53 54 54 53 53 54 54 52 51 46 41 41 43 41 49 67 64 60 65 70 69 69 66 63 57 47
61 61 60 60 59 59 60 59 58 58 59 60 59 57 55 55 54 53 52 51 50 49 49 50 50 48 42 41 42 44 56 66 62 61 61 64 68 67 65 62 59 53
60 60 59 59 59 58 58 58 59 58 57 58 57 57 56 56 55 54 53 50 50 49 47 47 48 48 44 41 42 44 48 63 61 60 63 65 66 64 62 59 57 54

ECMWFNIL_sfc_temp_108.txt.gz
Temp
73 73 72 72 72 72 71 70 70 70 70 70 70 70 67 66 66 66 67 69 70 70 69 68 68 68 68 68 68 67 67 66 66 66 67 66 66 66 65 65 65 65
72 72 72 72 72 72 72 72 71 70 70 70 70 69 67 67 67 67 66 66 67 69 69 68 69 68 68 68 67 66 66 65 64 67 66 66 65 65 65 65 65 66
72 72 72 71 71 72 72 72 72 71 68 69 69 68 66 66 66 66 66 67 66 68 68 66 66 68 68 68 67 66 66 66 65 65 65 65 65 65 65 66 65 66
72 72 72 73 73 73 72 72 71 71 70 69 68 68 66 66 66 66 65 67 66 65 66 67 67 67 69 68 67 66 67 67 66 65 64 64 65 65 65 66 66 65
71 72 73 73 73 73 72 71 71 70 70 68 68 67 66 65 65 65 66 65 66 65 67 67 66 66 67 68 67 66 66 67 67 66 65 64 66 65 66 66 65 65
72 73 73 72 72 72 70 70 70 70 69 68 68 68 67 67 66 67 65 64 64 65 66 67 67 66 67 67 66 65 66 65 66 67 67 66 66 67 68 66 65 64
70 70 71 72 71 71 70 70 70 69 68 67 67 67 67 66 65 66 66 65 66 63 64 65 66 66 66 65 65 65 65 65 65 65 67 67 67 66 68 67 65 65
70 70 70 70 70 69 69 69 69 69 68 67 66 66 66 65 66 65 64 66 65 65 65 65 66 66 64 64 66 65 66 66 66 66 66 67 67 67 67 67 66 65
69 69 69 69 69 69 69 69 68 68 68 67 66 66 67 64 65 65 64 65 66 64 65 65 65 64 66 66 67 67 65 65 64 65 64 66 66 67 67 67 65 65
67 68 67 67 67 68 68 68 68 67 66 66 66 66 67 67 67 66 65 65 65 64 65 65 65 66 65 66 65 66 65 64 65 66 67 67 66 68 68 66 65 64
66 67 66 66 67 67 67 68 68 68 66 65 65 65 66 66 66 66 65 66 65 65 65 65 65 65 64 65 64 63 65 65 66 66 66 67 67 67 68 67 65 64
65 66 66 67 67 67 68 68 68 67 66 65 66 65 66 65 66 67 67 67 67 67 66 65 64 64 65 65 65 64 64 64 64 65 65 66 67 67 67 67 66 66
65 65 66 67 67 67 68 69 68 67 66 65 66 66 66 65 66 66 66 65 66 66 65 65 64 64 64 63 65 65 65 64 63 63 65 65 66 68 68 68 66 64
65 66 67 67 67 68 68 68 68 67 67 67 65 66 65 65 64 64 65 65 65 65 65 65 65 64 64 64 64 64 64 64 64 64 64 65 66 66 66 67 66 65
65 66 67 67 67 68 67 67 67 67 67 66 65 65 66 66 65 66 66 66 66 65 65 64 64 65 65 64 65 65 64 63 64 64 64 64 65 65 66 65 64 65
66 66 67 66 66 66 66 66 66 66 65 65 64 66 66 66 66 67 66 65 66 66 66 65 64 66 61 58 59 63 64 64 63 64 63 64 65 65 63 63 64 65
65 66 66 65 65 65 65 64 63 63 63 62 63 64 64 64 64 64 64 64 63 63 63 63 59 51 43 44 49 54 64 64 63 63 64 64 64 64 63 62 63 62
64 64 64 64 64 64 64 63 63 62 61 61 61 61 62 63 61 61 61 61 61 59 56 55 54 45 41 42 42 43 48 61 63 62 63 63 64 63 63 62 62 61
63 63 63 63 63 63 63 63 61 61 60 59 59 59 60 60 60 59 59 59 58 57 54 53 51 43 42 42 42 42 41 51 66 64 63 62 62 62 62 62 62 62
62 62 62 62 63 62 62 61 60 59 59 58 58 58 58 58 58 58 58 57 56 55 54 51 48 42 41 42 42 42 41 48 65 65 63 63 63 62 62 62 62 61
61 61 61 62 62 61 60 60 59 59 58 57 56 55 55 55 55 56 56 56 55 54 53 51 47 41 42 42 42 43 45 53 65 64 63 61 61 61 61 63 62 62
60 60 60 60 60 60 59 59 59 58 57 57 55 55 55 54 53 52 52 52 52 53 52 50 48 41 42 43 43 43 51 64 63 62 61 60 58 56 54 54 59 60
59 59 58 58 58 58 58 57 57 57 57 57 55 54 53 53 52 51 50 49 48 49 50 49 47 43 41 43 43 46 56 61 62 61 59 57 55 54 52 50 49 55
58 58 58 57 57 56 56 56 56 57 57 57 55 53 53 53 53 52 50 49 47 46 47 47 46 44 42 44 44 47 55 60 60 59 58 54 53 52 51 49 48 48
58 57 57 57 56 55 55 55 54 55 56 57 56 55 54 54 53 52 50 49 48 46 46 46 45 44 41 42 44 46 55 59 58 56 55 53 51 50 49 48 48 46
56 55 55 55 55 55 55 55 55 55 54 55 56 56 55 54 54 52 50 49 49 47 45 45 45 44 42 41 43 44 48 55 54 52 49 48 49 48 48 48 46 45

ECMWFNIL_sfc_temp_111.txt.gz
Temp
66 66 65 65 65 68 68 67 65 64 64 63 63 63 61 63 63 63 63 63 63 63 64 64 64 64 64 64 65 65 65 64 64 64 64 64 63 63 63 63 63 63
65 64 64 64 65 65 66 66 65 64 63 63 63 64 62 63 63 63 63 63 63 63 64 64 65 64 64 64 64 65 64 64 63 65 64 64 64 63 64 64 64 63
65 65 66 65 65 65 65 65 64 64 64 63 63 63 62 62 62 63 63 63 62 63 63 64 65 64 64 64 64 63 63 63 63 64 64 63 63 63 63 63 63 64
64 64 65 66 66 66 65 65 64 63 63 63 62 63 63 63 62 62 63 64 62 63 63 63 63 63 63 63 63 63 64 64 64 63 63 63 63 63 62 62 63 63
64 64 65 66 65 65 64 64 63 63 62 62 62 62 63 62 62 62 63 62 63 63 63 63 64 64 63 62 63 63 64 63 63 63 62 62 62 63 63 63 63 63
65 67 67 67 66 64 64 63 63 63 63 62 62 63 62 63 63 63 63 62 62 62 62 63 63 63 63 63 63 64 63 62 63 63 62 62 62 63 63 63 64 63
63 65 66 66 65 64 63 63 63 63 63 63 63 62 63 62 62 62 62 62 62 62 62 62 61 61 63 64 63 63 63 62 63 63 62 62 63 63 64 63 63 64
62 63 63 63 62 62 62 62 62 62 62 63 62 62 63 62 62 62 62 62 62 62 62 62 62 63 62 62 61 62 62 63 62 62 63 63 63 62 63 64 63 63
63 62 62 63 62 61 61 62 62 63 63 62 62 62 63 62 62 62 63 63 62 62 62 62 62 63 62 62 61 62 62 62 62 62 62 62 62 63 64 64 63 62
63 63 63 63 62 61 61 62 63 63 63 62 62 62 62 63 63 63 63 62 62 62 62 62 62 62 62 63 63 63 62 62 62 62 62 62 63 64 64 63 63 62
63 63 63 63 63 63 63 64 64 64 63 62 62 62 62 62 62 63 62 62 62 62 63 62 62 62 62 61 62 62 63 62 62 62 62 62 63 63 65 63 62 62
62 62 63 64 64 64 64 64 64 64 63 62 62 62 63 63 63 62 62 62 62 62 62 62 61 62 61 61 62 61 62 62 62 62 62 62 62 63 62 63 62 62
62 62 63 63 63 63 63 62 61 62 62 62 62 63 63 62 62 62 62 62 61 62 62 61 61 61 61 61 62 62 62 62 61 61 61 61 62 63 62 62 63 63
62 63 63 63 63 62 61 60 61 61 61 62 61 61 61 61 61 62 63 63 62 61 61 62 62 61 61 61 62 62 61 61 61 61 61 62 62 62 62 62 63 62
62 62 63 63 62 61 60 60 60 61 61 61 61 61 62 61 62 61 61 60 60 59 60 60 60 61 61 61 61 62 61 61 61 61 61 61 61 61 62 62 62 62
61 62 62 62 62 60 60 60 60 60 59 59 59 60 60 60 60 60 59 57 56 57 56 54 53 52 50 51 56 60 61 61 60 60 61 61 60 61 61 61 62 62
61 61 61 60 60 60 59 59 59 58 58 58 58 58 58 58 58 57 57 56 55 54 53 53 51 49 44 41 43 48 61 60 60 59 60 60 61 60 59 59 59 59
60 60 60 59 59 59 59 59 58 57 56 56 56 55 55 56 55 55 55 55 54 53 51 50 50 46 40 42 43 43 50 60 60 60 60 60 60 60 60 59 58 58
59 59 59 58 58 58 58 58 57 55 55 54 54 54 53 52 51 52 52 53 54 52 50 49 48 44 41 43 43 43 48 57 60 60 59 59 59 60 59 59 58 58
58 57 57 57 58 57 57 57 56 55 54 54 54 53 51 50 50 49 50 50 51 51 51 49 47 44 40 44 46 46 49 54 59 57 55 54 54 55 58 60 59 59
57 56 56 56 56 56 56 56 55 54 54 54 53 52 50 49 48 48 48 48 48 50 50 49 48 42 42 47 48 49 49 51 56 55 53 52 51 51 51 54 58 59
56 55 55 55 55 55 54 54 54 54 53 53 53 52 52 51 49 48 47 46 47 48 48 48 47 41 43 47 48 48 49 54 53 52 51 50 49 48 48 48 50 52
54 54 54 54 54 53 53 53 53 53 54 54 52 51 50 49 48 47 47 46 46 46 46 46 46 43 42 46 47 48 50 53 52 50 49 48 48 48 47 47 48 49
53 53 53 53 53 52 52 52 53 53 54 54 52 51 50 50 49 48 47 46 45 45 45 44 44 43 42 45 46 47 50 52 51 49 48 47 46 47 46 46 46 48
52 52 52 52 52 52 52 52 52 52 53 54 53 52 51 51 50 48 47 47 46 45 46 44 43 43 42 42 43 45 49 51 49 48 47 46 46 45 45 45 45 45
51 51 51 51 51 52 53 52 52 52 52 52 52 52 51 51 50 49 48 47 47 45 44 44 43 43 42 41 42 43 45 49 49 47 45 44 45 45 44 44 44 44

ECMWFNIL_sfc_temp_114.txt.gz
Temp
65 65 64 64 65 64 64 63 64 63 62 61 62 62 61 62 62 61 61 61 61 62 62 63 63 63 63 63 63 63 63 63 63 63 62 63 63 63 62 62 62 62
64 63 63 62 62 63 62 61 62 61 61 60 61 61 61 61 61 61 61 61 61 62 62 62 63 63 63 63 63 63 63 63 62 64 63 63 63 63 63 63 62 62
61 61 61 61 61 61 62 62 61 61 60 61 60 60 61 60 62 62 62 61 61 61 62 62 63 63 63 63 63 63 62 62 62 63 63 63 63 63 63 63 62 62
62 62 63 63 63 62 62 62 61 61 61 61 61 61 61 62 62 62 61 63 62 61 62 62 63 63 64 63 63 62 62 62 63 63 63 63 63 63 63 62 62 62
62 62 60 60 61 60 59 60 60 60 60 60 61 61 61 61 61 61 61 61 62 62 62 62 63 63 62 62 61 61 61 62 63 63 63 62 62 63 63 62 62 62
59 59 60 60 60 59 60 60 60 60 61 60 61 61 61 61 60 60 61 62 62 62 62 62 62 62 62 62 62 61 61 62 63 63 62 62 62 63 63 62 62 62
58 59 59 60 59 59 59 60 62 61 60 61 61 60 61 60 60 61 61 61 61 61 61 61 61 62 62 62 62 62 62 62 63 62 62 61 62 61 62 62 62 62
59 60 61 61 60 60 60 62 63 62 61 61 60 60 60 60 61 61 61 61 61 61 61 61 62 62 62 62 62 62 62 63 62 62 61 61 61 61 61 62 62 62
62 62 63 63 62 61 61 62 61 61 61 60 60 60 61 60 61 61 61 61 61 61 61 62 62 63 63 62 62 62 62 62 62 62 61 61 61 61 62 62 61 61
61 62 62 62 61 61 59 58 59 59 60 60 60 61 61 61 62 62 61 61 61 62 62 62 62 62 62 62 62 62 62 62 62 61 62 62 62 62 62 61 61 61
60 61 61 61 60 59 57 57 57 59 60 61 60 61 61 61 61 61 61 62 61 60 61 61 62 62 62 62 61 62 62 62 61 61 61 62 62 62 63 63 62 61
57 58 58 58 58 57 56 56 57 59 60 60 60 60 60 60 61 61 61 60 60 60 60 61 62 62 62 61 61 61 61 61 61 61 61 61 61 62 62 63 63 62
56 57 58 58 56 55 56 58 59 59 59 59 60 59 59 59 59 58 58 58 58 59 59 60 61 61 61 61 61 62 61 61 60 60 61 61 61 61 61 61 62 62
59 60 59 58 56 56 57 58 58 58 58 59 59 58 58 58 57 56 56 55 56 56 56 56 56 57 58 58 60 61 60 60 60 60 60 60 60 60 60 60 61 61
59 59 59 57 57 57 57 57 56 57 57 57 56 56 56 56 57 56 55 55 54 54 54 54 53 52 52 51 55 60 60 59 59 59 59 59 59 60 60 60 60 60
59 58 58 57 57 56 56 56 56 56 55 55 54 54 54 54 54 54 54 54 53 53 52 52 52 51 50 46 46 56 61 60 59 59 59 59 59 60 60 60 61 60
58 58 57 57 57 56 55 55 55 55 54 53 53 52 52 52 52 51 51 51 52 52 51 50 50 49 44 41 43 51 60 60 59 59 59 59 59 59 58 59 58 58
57 57 56 56 56 56 55 55 54 54 53 52 52 51 51 51 50 50 50 50 51 52 51 49 49 46 42 45 47 48 52 57 56 56 57 58 59 59 58 57 57 57
56 55 55 55 55 55 55 54 54 53 52 51 50 51 50 49 49 49 48 49 50 50 50 49 48 44 44 45 45 46 46 51 52 52 51 50 51 53 57 58 57 57
55 55 54 54 55 55 54 54 53 51 51 51 51 50 49 48 48 47 47 47 48 49 50 49 46 44 44 44 45 45 45 48 52 50 49 48 48 49 50 52 56 57
54 53 53 53 54 54 54 53 52 51 51 50 50 49 48 47 46 46 46 47 47 48 48 48 46 42 43 43 44 44 45 47 50 50 48 48 47 47 47 49 50 53
53 52 53 53 52 53 53 52 51 51 50 50 50 49 49 48 47 47 46 46 47 47 46 45 44 41 42 43 43 44 46 49 49 48 47 47 47 47 47 47 48 49
52 52 52 52 52 52 51 51 51 51 51 51 49 48 47 47 46 46 46 46 46 46 45 44 44 42 41 42 43 44 47 49 48 47 47 46 46 47 46 46 47 48
51 51 51 51 51 50 50 51 51 51 51 51 49 48 47 46 46 46 46 46 45 45 45 43 43 43 41 41 42 43 47 49 48 47 47 46 46 46 46 45 46 47
50 51 51 51 50 50 51 50 50 50 50 50 50 49 47 46 46 46 46 46 46 45 46 44 43 43 42 41 42 42 46 48 47 47 46 45 45 45 45 44 45 45
50 50 50 51 50 50 51 50 50 50 49 49 48 47 46 46 46 46 45 45 46 45 45 44 43 43 42 41 42 42 43 46 46 44 44 43 44 44 43 43 43 43

ECMWFNIL_sfc_temp_117.txt.gz
Temp
62 62 61 60 60 61 61 61 60 59 59 58 58 60 60 61 61 61 61 61 61 61 61 61 62 62 63 63 63 63 63 63 63 63 62 62 62 62 62 62 62 61
63 62 62 60 60 60 60 59 59 58 59 59 60 60 60 60 61 61 60 60 60 61 62 62 63 63 63 63 63 62 62 63 62 64 62 62 62 62 62 63 62 62
61 60 61 60 58 58 58 59 58 58 58 59 59 59 60 60 60 61 60 60 60 61 62 63 63 63 63 63 63 62 62 62 62 63 62 62 62 62 62 62 62 62
62 61 61 59 58 57 58 58 58 59 59 59 59 59 60 60 60 60 60 61 60 61 61 62 62 63 63 63 63 62 62 62 63 63 62 62 62 63 63 63 62 62
61 61 60 59 59 59 59 58 58 59 59 59 59 59 60 59 59 59 60 60 60 61 61 61 61 62 63 62 63 62 62 62 62 62 62 62 63 63 63 62 62 61
61 60 59 58 57 57 58 59 61 60 59 59 60 60 60 60 60 60 61 61 61 61 61 61 62 62 63 62 62 62 61 61 62 62 62 61 62 63 63 62 62 61
59 58 58 59 59 60 60 60 60 60 60 60 61 60 61 61 61 61 61 61 61 61 62 62 62 62 62 62 62 62 62 62 62 62 62 61 61 62 63 62 62 62
58 59 60 61 60 59 58 58 58 58 59 59 59 61 61 61 61 61 61 62 61 62 62 62 62 62 62 62 61 61 61 62 62 62 62 62 61 61 62 62 61 61
61 61 60 59 58 58 56 56 56 57 58 58 59 60 60 60 60 61 61 61 61 61 61 61 61 62 62 62 62 61 61 62 62 62 62 61 61 61 61 62 61 61
60 59 58 57 56 55 54 54 55 56 58 59 59 60 59 60 60 59 59 59 58 59 60 60 61 62 62 62 62 62 62 62 62 62 61 61 61 61 61 61 61 61
57 57 56 54 54 53 53 54 56 57 58 59 59 59 59 58 58 57 56 56 56 56 57 57 59 61 62 62 62 61 61 61 62 61 61 61 61 61 62 61 61 61
54 54 53 53 53 53 54 56 57 57 57 57 58 57 57 57 56 56 55 55 55 55 55 56 56 58 59 60 61 61 61 61 60 60 60 60 60 60 61 62 62 61
56 56 54 53 54 55 56 56 56 56 55 55 56 55 55 54 55 54 55 55 55 54 54 54 55 55 55 55 57 60 60 59 57 59 59 59 60 60 61 60 61 61
57 56 55 54 55 55 55 55 55 55 54 54 54 53 53 53 53 53 53 54 54 54 54 54 54 54 53 53 54 58 59 58 59 59 59 59 60 60 60 60 60 61
56 56 55 55 55 55 55 55 55 54 54 54 53 53 53 52 52 52 52 52 53 54 53 53 52 52 52 51 51 55 59 58 58 59 58 59 59 60 60 60 60 60
56 55 56 56 55 54 54 54 54 54 53 52 52 52 51 52 51 51 51 51 52 52 52 51 50 50 50 48 49 56 60 59 58 58 58 58 59 59 59 59 59 59
55 55 55 54 54 54 54 53 53 53 52 51 51 51 50 50 50 50 50 51 51 50 49 49 48 47 44 43 43 47 54 53 53 52 53 53 54 55 56 57 58 58
55 55 54 54 54 53 53 53 52 52 51 50 50 49 49 50 49 49 50 51 51 50 48 47 47 45 42 43 43 44 48 50 50 50 50 50 51 51 52 54 56 56
54 54 54 53 53 53 52 52 51 50 50 49 48 49 49 48 47 48 48 49 49 48 46 46 45 42 42 43 43 43 44 48 49 49 48 48 48 49 50 50 53 56
54 53 53 53 53 52 52 51 50 49 49 49 49 48 47 47 47 47 47 48 48 47 46 46 44 42 41 42 43 43 43 46 49 48 48 47 47 47 48 49 50 52
53 52 52 52 52 52 51 50 50 49 49 49 48 47 47 46 46 46 46 47 47 46 45 45 44 41 41 41 42 43 44 45 48 48 47 47 47 47 47 47 48 50
52 52 51 51 51 51 50 49 49 49 48 48 48 48 48 47 47 47 46 46 46 46 44 44 44 41 41 41 42 42 45 48 47 47 46 46 46 46 47 47 48 47
51 51 51 50 49 49 49 49 48 48 48 48 47 47 47 46 46 46 46 45 45 45 44 43 43 42 41 42 42 42 45 48 48 47 46 45 45 46 46 46 47 48
51 51 50 49 48 48 48 48 48 47 47 47 47 46 46 46 47 46 46 46 45 44 44 42 42 42 40 41 42 42 45 46 46 46 45 45 45 45 45 45 46 47
50 50 50 49 48 48 48 47 46 45 45 46 46 46 46 47 47 46 46 46 46 45 46 44 43 42 41 40 41 42 45 45 45 44 44 44 44 44 44 44 44 44
50 50 49 48 46 47 47 46 45 43 43 43 44 44 45 45 45 45 45 45 46 45 45 44 44 43 41 40 41 41 42 45 45 43 42 43 43 44 43 43 43 43

ECMWFNIL_sfc_temp_120.txt.gz
Temp
61 60 59 59 59 60 60 60 60 60 60 59 59 60 60 60 61 61 61 61 61 61 62 62 62 62 62 63 63 63 63 63 63 63 63 63 62 62 62 62 62 62
61 61 61 60 60 60 60 60 59 59 59 60 60 59 59 60 60 60 60 61 62 62 62 62 62 63 63 63 63 63 63 63 62 64 63 63 62 62 62 63 62 63
61 60 59 59 59 59 59 60 60 59 59 59 59 59 60 61 61 61 61 61 62 62 62 63 63 63 63 63 63 63 62 62 62 63 62 62 63 62 62 62 62 62
61 60 59 59 59 59 59 59 59 59 59 59 60 60 61 61 61 61 61 62 61 62 62 63 63 63 63 63 63 62 62 62 63 63 62 63 63 63 62 62 62 62
59 58 59 59 60 60 59 58 59 59 60 60 60 61 61 61 61 61 61 61 62 62 62 62 62 62 63 63 63 62 62 62 63 63 62 62 63 62 63 63 62 62
59 59 59 59 58 58 58 58 59 59 59 59 60 61 61 61 61 61 61 61 61 62 62 62 62 62 63 63 62 62 62 62 62 62 61 61 62 63 63 63 62 62
58 59 59 59 58 59 58 58 58 57 57 59 60 60 61 60 60 60 60 60 60 60 61 61 61 62 62 62 62 62 62 62 62 62 61 61 62 62 63 63 62 62
58 59 59 59 58 57 57 56 56 55 57 59 59 60 60 59 59 58 58 58 58 58 58 59 60 61 62 62 62 62 62 62 62 62 62 62 62 62 62 62 62 62
58 58 58 57 56 55 54 54 55 56 58 58 58 58 59 58 57 57 57 57 57 57 57 57 58 58 60 61 62 62 62 62 62 62 62 61 61 62 62 62 62 61
57 57 56 55 54 53 53 54 56 57 57 56 56 57 57 57 57 56 56 56 56 56 56 56 56 57 57 59 60 61 61 61 62 62 62 62 61 62 62 61 61 61
55 55 53 53 52 53 54 55 55 55 55 55 55 55 56 55 55 55 55 55 55 55 55 55 55 56 56 56 58 59 61 61 61 62 61 61 61 61 62 62 61 61
54 53 51 52 53 54 55 55 55 55 54 55 55 54 54 54 54 54 54 54 54 55 55 54 55 55 55 55 55 57 59 61 60 60 61 61 61 61 61 62 62 61
54 54 53 53 54 55 55 55 54 54 54 53 54 53 53 52 53 53 54 54 54 54 53 53 52 53 52 52 54 55 57 60 60 60 60 60 60 61 61 61 61 61
54 55 55 55 55 55 54 54 54 54 53 53 53 52 52 52 52 52 53 53 53 52 52 51 50 50 50 51 53 55 58 58 58 58 59 60 60 60 60 60 60 61
55 55 55 55 54 54 53 53 53 53 52 52 52 51 51 52 52 52 52 51 51 50 50 50 49 48 48 48 51 55 55 54 54 55 55 56 58 59 59 59 59 59
55 55 54 54 53 52 52 52 52 52 51 51 50 51 51 51 51 52 51 50 49 49 49 48 47 47 48 46 47 51 53 52 53 52 53 53 54 55 56 58 58 57
55 54 54 52 52 52 52 51 51 51 50 50 50 50 50 50 50 50 50 50 48 47 47 47 46 46 44 42 42 45 51 51 50 50 51 51 52 52 52 54 56 57
54 53 52 52 52 51 51 51 50 50 49 49 49 49 49 49 49 48 49 49 48 47 46 45 45 44 42 43 43 42 46 50 50 49 49 49 50 50 51 52 54 54
53 52 52 51 51 51 51 50 50 49 48 48 48 49 49 48 47 47 47 48 47 46 46 45 45 42 42 43 43 42 43 48 49 49 48 48 48 49 49 50 51 52
52 52 51 51 51 51 50 49 49 48 48 48 48 48 47 47 47 46 47 47 46 46 45 46 45 42 42 42 42 43 43 46 49 48 48 47 47 47 48 49 49 50
52 51 50 50 50 50 49 48 48 48 48 48 48 47 47 46 46 46 46 46 46 45 45 44 44 41 41 42 42 43 44 46 49 48 47 47 46 47 47 47 48 49
51 50 50 50 49 49 48 47 47 47 47 48 48 48 48 47 47 47 46 45 46 45 44 43 43 40 40 41 42 42 45 49 49 48 47 46 46 46 46 46 47 48
50 49 49 49 48 47 47 46 46 46 47 48 47 47 47 46 46 45 45 45 45 45 44 43 43 41 40 40 41 42 46 50 49 49 47 46 45 46 46 46 46 47
50 49 48 48 47 46 45 46 46 47 47 48 47 46 46 47 47 46 45 45 44 44 44 42 42 42 40 40 41 41 45 48 49 49 46 46 46 46 46 45 46 47
49 48 48 47 46 45 45 45 45 45 46 47 47 47 46 47 46 45 45 45 45 44 45 43 42 42 40 40 40 41 45 47 48 47 45 45 45 45 45 45 45 45
48 48 47 46 45 44 44 44 45 45 45 45 45 46 45 44 45 44 43 44 45 44 44 44 43 42 41 40 41 41 42 46 46 45 44 44 44 45 44 44 44 43

ECMWFNIL_sfc_temp_123.txt.gz
Temp
70 70 69 69 69 69 69 69 69 69 68 68 67 66 65 65 67 67 67 67 68 68 68 67 67 67 68 67 67 67 67 68 68 68 68 67 66 66 66 67 66 65
68 69 69 69 69 69 68 68 67 67 66 66 65 65 65 66 67 67 66 66 67 68 69 68 67 68 68 67 68 67 67 68 68 69 68 67 66 67 67 67 67 67
68 68 68 67 67 66 67 67 67 67 66 66 65 65 65 66 67 67 66 67 67 67 68 68 67 67 67 68 68 68 67 67 67 68 67 67 67 67 67 67 66 66
67 67 67 67 67 67 67 67 67 67 66 65 64 64 65 65 67 67 66 67 67 68 68 67 66 67 68 69 68 67 67 67 67 66 66 67 67 67 66 67 66 65
66 67 67 67 67 67 66 65 65 64 64 64 65 66 65 65 65 66 65 65 65 65 65 65 66 66 66 65 66 65 66 66 67 65 64 66 67 67 66 66 67 67
66 67 66 66 65 65 65 64 63 63 64 64 64 64 64 64 64 62 61 61 61 62 62 62 63 63 64 65 65 65 65 65 66 66 64 65 67 67 66 66 65 65
64 64 64 65 64 64 63 63 63 63 64 64 64 63 63 62 62 61 61 60 61 61 62 62 62 61 62 64 64 65 66 67 67 66 66 65 65 65 66 65 65 65
62 64 64 64 64 63 62 63 63 62 62 62 61 62 61 60 60 60 60 61 61 61 61 61 61 61 61 61 62 63 65 66 66 67 67 67 65 65 66 66 65 64
62 61 62 62 61 61 61 61 61 61 62 60 60 61 61 59 59 60 60 61 61 60 60 59 59 59 60 59 59 60 61 63 65 65 65 65 65 66 66 66 66 65
60 60 60 61 60 60 59 59 59 59 60 59 59 59 58 59 60 60 59 59 58 58 58 58 58 58 59 59 59 59 60 62 64 65 65 66 66 66 66 66 66 65
59 59 58 58 57 58 57 58 57 58 58 57 57 57 57 57 58 58 58 57 56 56 56 56 56 56 56 57 58 58 60 61 63 64 64 64 64 65 65 66 65 64
58 57 57 57 56 56 56 56 56 56 56 56 57 56 56 56 56 56 56 56 55 55 55 55 55 54 55 56 59 61 61 61 62 63 63 64 64 65 65 65 64 65
57 57 56 56 56 56 56 56 56 55 55 55 56 56 55 55 55 55 55 54 54 54 54 55 55 54 54 55 58 59 59 59 59 60 61 62 63 63 62 62 62 62
56 56 56 56 56 55 55 55 55 55 54 55 55 55 54 55 54 53 53 53 53 53 53 54 54 53 52 53 56 58 57 57 57 57 58 59 59 60 60 61 60 60
57 56 56 56 55 55 55 54 54 54 54 54 54 54 53 54 54 54 52 52 54 54 53 52 51 50 50 50 53 56 56 56 56 56 56 56 57 58 59 60 60 59
56 56 55 55 54 54 54 54 54 55 54 54 53 53 53 53 53 52 52 53 53 53 52 50 49 50 48 45 47 54 55 55 55 55 55 55 55 55 56 58 58 58
56 55 56 54 54 53 53 54 54 54 54 53 53 53 52 52 52 51 51 52 52 52 50 50 49 48 43 42 42 45 53 54 53 53 53 53 54 54 54 55 56 57
56 55 54 54 54 53 53 53 53 53 53 52 52 52 52 53 53 52 52 52 52 52 50 50 49 45 41 42 43 43 47 53 53 53 53 52 52 53 54 54 55 56
55 54 53 53 53 52 53 53 53 52 52 52 51 52 53 55 55 54 53 52 52 51 50 50 50 42 41 42 43 43 44 52 55 53 52 51 51 52 53 53 54 54
55 54 53 53 53 52 52 53 52 51 52 53 53 55 56 54 54 53 53 53 52 52 50 50 47 42 41 41 43 43 43 49 56 54 53 52 52 52 52 52 52 52
55 53 52 52 52 52 52 52 52 52 52 53 54 57 56 55 54 54 53 53 53 52 51 48 46 40 40 41 41 43 44 50 56 55 55 54 53 53 53 53 54 54
54 52 52 52 51 52 51 51 51 51 51 53 53 54 54 54 55 55 53 53 53 53 51 49 47 40 40 40 41 42 47 56 57 56 54 54 54 54 53 53 55 55
54 52 51 51 51 51 51 50 50 51 51 53 53 53 53 52 54 53 53 52 52 52 52 51 49 43 39 40 41 41 50 56 56 58 56 54 54 55 54 52 51 53
54 53 52 52 51 52 51 51 51 51 51 52 52 52 52 53 53 52 52 52 51 50 51 50 49 44 40 40 41 40 49 56 56 55 54 55 53 54 54 53 50 45
53 52 52 51 50 50 50 50 50 51 51 52 51 52 52 53 53 53 52 52 52 51 48 50 49 46 40 40 41 41 51 57 57 55 53 53 54 53 53 53 52 48
52 51 52 51 50 50 50 50 51 51 50 51 51 53 52 53 53 52 51 51 52 51 50 50 50 48 44 39 41 41 43 55 56 55 53 52 52 53 52 52 52 51

ECMWFNIL_sfc_temp_126.txt.gz
Temp
75 75 73 73 73 74 73 72 72 72 72 72 71 71 71 71 72 71 71 71 71 71 73 73 73 73 72 72 72 72 72 72 73 74 73 73 73 73 72 71 70 69
73 73 74 73 73 73 73 72 71 71 71 70 70 70 71 71 71 71 71 71 72 72 72 72 73 73 72 72 72 71 72 73 73 75 73 73 73 73 72 72 71 71
73 72 71 71 71 70 71 72 71 71 70 70 70 70 70 71 70 72 72 71 71 70 71 71 71 71 71 71 72 72 72 72 71 73 73 73 73 72 73 73 72 71
72 72 72 71 71 71 71 71 71 71 70 70 70 69 70 70 70 71 70 69 69 70 70 69 68 69 71 72 71 70 71 71 73 73 72 73 73 73 73 74 73 72
72 72 72 72 72 71 71 70 69 69 69 69 69 69 69 69 69 69 68 68 68 68 69 69 69 68 68 68 70 70 70 72 74 74 73 73 73 73 73 74 73 72
72 73 72 72 71 69 69 69 68 68 68 67 66 68 68 68 68 67 67 67 68 68 68 67 67 67 68 68 69 69 70 71 72 73 73 73 74 75 74 73 73 73
69 69 69 70 68 68 68 68 67 67 67 67 68 68 68 68 67 67 68 67 67 67 67 66 66 66 67 67 66 66 67 69 70 71 71 73 73 73 74 74 72 73
68 68 68 68 67 67 66 66 66 66 66 67 66 66 66 66 66 65 66 66 66 66 66 65 64 65 65 65 64 65 66 67 68 69 70 72 71 73 74 73 72 73
67 67 67 66 66 65 64 64 65 64 65 64 64 64 65 64 64 64 64 65 65 64 63 62 63 62 62 62 62 63 66 67 67 69 69 69 70 71 72 73 72 72
65 65 64 64 64 63 62 62 63 63 64 63 64 64 63 63 64 63 62 62 61 62 62 62 61 62 63 63 64 65 65 66 68 68 68 68 68 69 70 69 70 69
64 64 63 62 62 62 60 61 61 62 62 63 63 62 62 61 62 61 60 60 59 62 63 63 63 64 64 65 65 65 65 65 65 66 66 66 65 65 65 66 66 67
62 62 61 61 61 61 61 61 62 62 62 62 62 61 60 60 60 59 58 60 62 63 64 64 64 63 63 63 64 64 63 63 63 64 65 64 64 64 65 65 63 63
61 61 60 60 60 60 61 62 62 61 62 61 61 60 60 59 58 59 60 61 61 62 62 62 61 60 59 60 62 64 63 63 62 63 64 63 63 63 64 63 63 61
60 60 60 60 61 61 60 61 61 61 60 60 60 59 58 57 57 60 62 62 61 61 60 59 59 58 57 57 60 62 62 62 62 62 63 63 63 63 63 63 62 61
60 60 61 61 61 61 61 61 61 61 60 59 58 57 56 58 60 61 61 61 60 59 59 58 56 54 53 52 56 60 61 62 61 61 60 60 61 61 62 61 61 61
60 59 60 61 60 61 61 62 61 60 59 58 57 57 58 59 62 61 61 60 59 58 58 56 55 54 48 44 46 54 62 61 61 60 60 59 59 59 60 60 60 60
60 60 60 60 60 61 62 62 61 60 59 58 58 58 59 61 61 60 59 58 58 57 56 55 54 50 42 42 43 44 58 62 61 60 60 59 59 59 58 59 61 61
59 60 59 59 60 61 61 61 60 59 59 59 59 60 62 62 60 59 58 58 57 58 56 54 54 44 40 42 42 43 48 61 61 60 59 59 59 59 59 60 61 61
59 60 59 59 60 60 60 60 61 61 61 61 61 62 62 61 61 59 58 57 57 57 56 55 55 43 41 41 41 42 45 57 63 62 60 59 59 59 60 60 60 60
59 59 59 59 60 59 59 60 62 62 62 63 63 63 62 61 60 59 58 58 58 58 56 56 53 43 40 41 42 41 46 54 65 64 61 61 60 60 60 61 61 60
59 59 59 58 59 59 59 60 62 63 64 64 63 63 63 62 61 59 58 59 59 58 58 56 52 40 40 40 41 40 44 55 65 63 62 61 60 59 60 61 62 61
59 59 59 59 59 60 60 60 62 62 62 62 63 63 63 63 62 61 60 60 59 59 58 57 54 40 39 41 41 40 46 66 65 63 62 62 61 60 58 57 58 60
59 59 58 58 58 58 58 58 59 62 63 65 64 64 61 62 61 60 60 60 59 60 59 57 56 45 39 40 42 38 55 65 64 64 62 61 60 61 59 56 53 54
59 60 58 58 59 58 57 57 58 59 61 64 64 62 61 62 63 62 61 59 58 57 57 56 55 47 39 40 41 39 50 65 65 63 62 61 60 61 61 59 54 45
59 60 60 59 58 57 57 57 58 59 60 62 62 62 61 62 62 62 61 60 59 56 52 55 55 50 41 40 40 41 52 66 64 63 61 61 61 60 60 60 58 52
58 59 60 59 57 58 58 58 59 60 60 62 62 64 62 62 61 60 59 59 58 57 56 56 55 53 46 39 40 42 42 61 64 62 60 60 60 60 59 58 57 57

ECMWFNIL_sfc_temp_129.txt.gz
Temp
78 78 77 77 77 76 76 75 74 74 74 74 73 73 74 74 74 73 73 73 74 74 75 75 75 75 75 75 75 74 74 74 74 74 74 75 75 74 73 74 74 73
77 77 77 77 76 75 75 74 73 73 73 72 72 72 73 73 73 73 73 72 73 74 75 74 74 74 74 74 74 73 73 73 73 75 74 74 73 74 74 74 73 74
76 75 74 74 73 73 73 73 73 73 72 72 72 71 71 73 72 73 73 72 72 72 73 72 72 73 72 72 73 73 73 73 73 74 74 73 73 74 74 73 73 74
74 74 74 74 73 73 73 72 72 72 72 71 71 71 72 72 72 72 72 72 71 71 72 72 71 71 71 71 70 71 73 73 74 73 74 74 75 75 74 74 73 73
73 73 74 73 73 73 73 72 72 72 71 71 71 71 71 71 71 72 71 71 72 71 71 71 70 69 69 70 70 69 71 72 73 73 73 73 74 74 74 74 72 72
73 74 74 73 72 72 72 71 71 70 70 70 70 72 71 71 71 71 70 70 70 70 70 69 68 68 69 69 68 68 69 69 70 72 73 73 73 75 74 74 73 72
71 71 71 72 71 71 71 70 70 70 70 71 71 69 69 69 69 68 69 69 69 68 68 68 67 67 67 67 67 66 67 68 70 71 72 72 72 72 73 73 71 71
70 71 71 70 69 69 69 69 69 69 69 70 69 68 68 67 68 67 67 67 66 67 67 68 68 68 67 66 66 66 67 68 68 70 71 71 70 70 71 71 70 71
69 69 69 68 68 67 67 67 67 66 67 66 67 68 67 67 66 66 66 67 67 68 68 67 68 68 68 67 66 66 66 66 67 67 67 67 67 68 68 68 67 67
68 68 67 67 65 65 64 66 66 66 66 67 67 66 66 65 66 66 67 67 67 68 68 68 67 67 67 67 67 67 66 65 66 66 66 66 65 65 65 65 63 62
66 66 66 65 64 64 63 65 65 65 66 67 66 65 65 65 65 66 66 66 65 66 66 66 66 66 65 65 66 66 65 65 65 65 66 65 64 64 64 63 60 59
65 65 64 63 63 64 65 65 65 65 65 65 66 65 64 65 66 65 65 66 66 66 66 65 64 63 63 63 64 65 65 65 64 64 64 64 64 64 63 62 59 59
64 63 63 63 63 64 65 65 66 66 66 65 65 65 65 65 66 66 66 66 65 64 63 62 61 60 60 61 63 64 65 65 63 63 63 63 63 63 63 62 61 59
62 63 63 63 64 65 65 65 65 64 64 64 64 63 64 65 66 66 66 65 63 62 61 60 60 59 58 58 60 62 64 63 63 62 62 62 62 63 62 62 61 60
62 63 63 63 65 65 65 65 64 64 64 64 64 64 64 66 67 66 65 65 63 61 60 58 57 56 54 52 54 58 64 63 63 62 61 61 62 63 63 63 62 60
63 63 64 65 65 64 64 64 64 64 64 64 65 66 66 66 66 65 65 63 62 61 60 58 57 55 48 44 46 52 61 63 63 62 62 62 62 62 62 63 63 62
64 65 65 64 65 65 64 64 64 64 64 65 65 66 65 65 65 64 63 63 62 60 59 58 57 51 41 42 42 43 54 64 63 62 63 63 63 63 63 63 63 63
64 65 65 65 65 65 65 65 65 65 65 66 65 65 65 64 63 63 63 63 62 61 59 58 57 44 40 41 42 41 44 59 65 64 63 63 63 63 64 64 63 63
64 64 64 64 64 65 65 65 65 65 66 65 64 64 64 63 63 63 63 63 63 61 60 59 58 44 40 40 42 40 41 52 68 65 63 63 63 62 63 63 63 63
63 63 63 63 64 65 65 65 65 65 65 66 65 65 64 63 63 63 63 63 63 63 61 59 56 44 40 40 42 40 41 47 69 64 63 63 61 61 61 61 62 62
63 62 62 63 64 65 65 65 65 65 66 67 67 66 65 64 64 63 62 63 64 64 62 58 54 40 40 40 41 41 38 49 67 65 64 63 61 60 59 58 60 62
62 62 62 63 64 65 65 64 64 65 65 65 66 66 65 65 64 64 63 63 63 64 61 59 56 41 40 41 40 41 42 65 66 65 63 63 62 60 58 57 57 58
62 62 62 63 64 63 63 64 64 64 65 66 65 65 64 64 63 62 63 62 61 62 61 59 57 46 39 40 41 40 49 68 66 66 64 62 62 61 59 56 53 54
63 63 63 63 64 63 63 64 64 65 65 66 65 65 64 64 64 63 62 62 60 59 60 58 57 48 40 41 41 41 47 66 67 66 64 62 61 62 61 59 55 47
64 64 64 63 63 63 63 63 64 64 65 66 66 66 65 66 65 64 62 62 60 59 55 57 57 51 42 40 40 42 49 66 66 66 63 63 62 60 60 60 58 53
63 63 63 64 64 64 64 64 65 65 65 66 66 67 66 65 64 63 61 60 60 59 57 57 57 54 47 40 41 43 42 60 67 64 62 61 61 61 59 59 58 58

ECMWFNIL_sfc_temp_132.txt.gz
Temp
65 65 65 66 70 73 73 72 72 72 71 71 70 70 70 70 71 70 70 70 70 70 70 70 70 70 70 70 70 70 70 69 70 70 70 69 69 69 69 68 68 68
66 65 65 68 72 72 72 72 72 72 70 69 69 69 70 70 71 70 70 69 69 69 70 69 69 69 69 69 68 68 68 69 69 71 70 69 69 69 68 69 67 67
68 69 71 72 71 71 71 71 71 70 70 70 69 69 69 71 71 71 69 68 68 68 68 69 69 68 68 68 68 68 67 68 68 69 69 68 68 68 69 68 67 66
72 72 72 72 71 71 71 70 70 70 70 69 69 70 71 70 70 70 69 70 68 69 69 68 67 68 68 68 68 67 67 67 68 68 68 69 68 68 68 68 67 67
71 71 71 71 71 71 71 71 70 70 69 69 69 70 70 69 69 68 68 67 67 67 67 67 67 66 67 67 67 66 66 67 68 68 68 68 67 68 68 67 66 66
71 72 72 71 70 70 70 70 70 69 69 69 69 69 68 69 68 67 67 67 67 66 66 66 66 66 66 66 65 65 66 66 67 68 68 67 67 68 67 66 65 64
70 70 69 70 70 70 68 67 68 68 69 69 68 65 67 67 67 66 66 66 66 66 66 66 66 66 66 65 65 65 66 66 66 66 66 66 66 66 66 64 62 61
69 69 69 68 68 68 67 67 67 67 68 68 65 65 66 66 66 65 65 66 67 67 67 67 66 66 66 65 65 64 64 65 64 65 65 64 64 63 63 61 60 59
68 68 68 67 66 66 65 65 65 66 67 66 66 65 65 65 65 65 66 67 67 66 66 65 65 64 64 64 64 64 64 63 64 64 63 62 62 62 61 60 59 58
67 67 66 66 65 64 64 65 64 65 67 66 65 65 64 64 66 67 66 65 65 64 64 63 62 62 63 63 63 63 63 63 63 63 62 62 61 61 60 59 58 57
66 66 64 64 63 63 63 64 64 65 65 65 64 64 64 64 65 65 64 64 62 62 61 60 60 61 61 62 63 64 63 62 62 62 62 61 61 61 60 58 57 56
64 64 63 63 62 63 63 64 64 64 64 64 65 64 65 65 64 64 63 62 62 61 60 60 60 59 59 60 62 63 63 62 62 62 61 61 61 60 60 58 57 57
63 63 63 63 63 63 64 65 64 64 64 64 64 65 65 64 64 63 62 61 60 59 59 59 59 58 56 56 58 61 62 62 61 61 61 61 61 61 60 59 58 57
62 62 62 63 64 64 64 64 63 63 63 63 65 65 64 64 63 62 61 61 59 58 58 59 57 55 53 53 55 57 61 61 62 61 61 62 62 62 61 59 59 58
62 62 63 64 64 63 63 62 63 63 63 63 64 64 64 64 64 63 61 60 59 58 59 58 56 53 50 48 50 54 57 62 61 62 61 61 61 62 62 61 60 59
62 62 64 64 63 62 62 62 63 63 64 64 64 64 63 63 63 62 61 60 58 58 58 56 54 51 46 44 44 47 52 61 61 61 62 62 61 61 61 61 60 60
63 63 64 63 62 62 62 63 63 64 64 64 63 62 62 63 63 62 60 59 59 58 57 56 53 47 42 41 42 43 49 58 61 61 61 61 61 60 60 60 60 60
63 64 64 63 63 63 63 63 64 64 64 63 62 61 62 62 61 61 60 59 59 58 56 55 52 43 41 41 42 42 45 58 60 60 58 58 59 58 59 60 60 60
63 64 63 63 63 63 63 64 64 64 63 62 61 62 62 61 61 61 60 60 58 57 55 54 51 42 41 41 42 42 40 53 61 59 57 56 56 56 56 56 58 59
63 63 63 63 63 63 64 64 63 62 62 62 62 61 61 61 61 61 61 60 58 57 56 53 48 42 41 41 42 41 39 49 62 59 57 56 55 54 53 53 54 57
62 62 62 63 63 63 63 64 63 63 63 63 62 62 61 60 60 60 60 60 59 58 57 53 48 41 41 41 41 42 40 50 61 60 58 56 54 53 52 51 52 54
62 62 62 63 63 63 63 63 63 62 62 62 62 61 61 61 60 60 59 59 59 58 56 54 50 41 41 41 42 41 44 61 60 59 57 57 55 53 52 51 51 52
62 62 63 63 63 62 62 61 61 62 62 62 61 61 59 59 58 58 58 57 57 57 55 53 51 44 40 41 42 41 48 62 60 59 58 56 55 54 53 52 51 51
63 63 63 62 62 62 62 62 62 62 62 62 61 60 59 59 59 58 57 56 55 55 55 53 51 46 41 42 42 42 48 61 61 60 57 56 55 55 54 53 53 52
63 63 63 62 62 61 62 62 61 61 62 63 62 61 60 60 60 58 56 56 55 54 53 53 51 48 42 42 42 43 50 60 60 59 56 55 55 54 54 54 53 53
62 62 62 62 61 61 62 62 62 62 62 62 62 63 61 60 58 57 55 54 54 53 52 52 52 49 44 41 43 44 46 58 60 57 55 54 55 55 53 52 52 52